[[{"header":{"parameterUnit":"m.s-1","parameterCategory":1,"la1":30.6,"la2":28.766,"lo1":-90.7593,"lo2":-88.6598,"dx":0.0162,"dy":0.0183,"nx":116,"ny":114,"refTime":"2022-12-31T06:00:00:Z","depth":0,"parameterNumber":2,"parameterNumberName":"U-component_of_WINDS"},"data":[0.0,0.0,0.0,0.0,0.0,0.0,0.0,0.0,0.0,0.0,0.0,0.0,0.0,0.0,0.0,0.0,0.0,0.0,0.0,0.0,0.0,0.0,0.0,0.0,0.0,0.0,0.0,0.0,0.0,0.0,0.0,0.0,0.0,0.0,0.0,0.0,0.0,0.0,0.0,0.0,0.0,0.0,0.0,0.0,0.0,0.0,0.0,0.0,0.0,0.0,0.0,0.0,0.0,0.0,0.0,0.0,0.0,0.0,0.0,0.0,0.0,0.0,0.0,0.0,0.0,0.0,0.0,0.0,0.0,0.0,0.0,0.0,0.0,0.0,0.0,0.0,0.0,0.0,0.0,0.0,0.0,0.0,0.0,0.0,0.0,0.0,0.0,0.0,0.0,0.0,0.0,0.0,0.0,0.0,0.0,0.0,0.0,0.0,0.0,0.0,0.0,0.0,0.0,0.0,0.0,0.0,0.0,0.0,0.0,0.0,0.0,0.0,0.0,0.0,0.0,0.0,0.0,0.0,0.0,0.0,0.0,0.0,0.0,0.0,0.0,0.0,0.0,0.0,0.0,0.0,0.0,0.0,0.0,0.0,0.0,0.0,0.0,0.0,0.0,0.0,0.0,0.0,0.0,0.0,0.0,0.0,0.0,0.0,0.0,0.0,0.0,0.0,0.0,0.0,0.0,0.0,0.0,0.0,0.0,0.0,0.0,0.0,0.0,0.0,0.0,0.0,0.0,0.0,0.0,0.0,0.0,0.0,0.0,0.0,0.0,0.0,0.0,0.0,0.0,0.0,0.0,0.0,0.0,0.0,0.0,0.0,0.0,0.0,0.0,0.0,0.0,0.0,0.0,0.0,0.0,0.0,0.0,0.0,0.0,0.0,0.0,0.0,0.0,0.0,0.0,0.0,0.0,0.0,0.0,0.0,0.0,0.0,0.0,0.0,0.0,0.0,0.0,0.0,0.0,0.0,0.0,0.0,0.0,0.0,0.0,0.0,0.0,0.0,0.0,0.0,0.0,0.0,0.0,0.0,0.0,0.0,0.0,0.0,0.0,0.0,0.0,0.0,0.0,0.0,0.0,0.0,0.0,0.0,0.0,0.0,0.0,0.0,0.0,0.0,0.0,0.0,0.0,0.0,0.0,0.0,0.0,0.0,0.0,0.0,0.0,0.0,0.0,0.0,0.0,0.0,0.0,0.0,0.0,0.0,0.0,0.0,0.0,0.0,0.0,0.0,0.0,0.0,0.0,0.0,0.0,0.0,0.0,0.0,0.0,0.0,0.0,0.0,0.0,0.0,0.0,0.0,0.0,0.0,0.0,0.0,0.0,0.0,0.0,0.0,0.0,0.0,0.0,0.0,0.0,0.0,0.0,0.0,0.0,0.0,0.0,0.0,0.0,0.0,0.0,0.0,0.0,0.0,0.0,0.0,0.0,0.0,0.0,0.0,0.0,0.0,0.0,0.0,0.0,0.0,0.0,0.0,0.0,0.0,0.0,0.0,0.0,0.0,0.0,0.0,0.0,0.0,0.0,0.0,0.0,0.0,0.0,0.0,0.0,0.0,0.0,0.0,0.0,0.0,0.0,0.0,0.0,0.0,0.0,0.0,0.0,0.0,0.0,0.0,0.0,0.0,0.0,0.0,0.0,0.0,0.0,0.0,0.0,0.0,0.0,0.0,0.0,0.0,0.0,0.0,0.0,0.0,0.0,0.0,0.0,0.0,0.0,0.0,0.0,0.0,0.0,0.0,0.0,0.0,0.0,0.0,0.0,0.0,0.0,0.0,0.0,0.0,0.0,0.0,0.0,0.0,0.0,0.0,0.0,0.0,0.0,0.0,0.0,0.0,0.0,0.0,0.0,0.0,0.0,0.0,0.0,0.0,0.0,0.0,0.0,0.0,0.0,0.0,0.0,0.0,0.0,0.0,0.0,0.0,0.0,0.0,0.0,0.0,0.0,0.0,0.0,0.0,0.0,0.0,0.0,0.0,0.0,0.0,0.0,0.0,0.0,0.0,0.0,0.0,0.0,0.0,0.0,0.0,0.0,0.0,0.0,0.0,0.0,0.0,0.0,0.0,0.0,0.0,0.0,0.0,0.0,0.0,0.0,0.0,0.0,0.0,0.0,0.0,0.0,0.0,0.0,0.0,0.0,0.0,0.0,0.0,0.0,0.0,0.0,0.0,0.0,0.0,0.0,0.0,0.0,0.0,0.0,0.0,0.0,0.0,0.0,0.0,0.0,0.0,0.0,0.0,0.0,0.0,0.0,0.0,0.0,0.0,0.0,0.0,0.0,0.0,0.0,0.0,0.0,0.0,0.0,0.0,0.0,0.0,0.0,0.0,0.0,0.0,0.0,0.0,0.0,0.0,0.0,0.0,0.0,0.0,0.0,0.0,0.0,0.0,0.0,0.0,0.0,0.0,0.0,0.0,0.0,0.0,0.0,0.0,0.0,0.0,0.0,0.0,0.0,0.0,0.0,0.0,0.0,0.0,0.0,0.0,0.0,0.0,0.0,0.0,0.0,0.0,0.0,0.0,0.0,0.0,0.0,0.0,0.0,0.0,0.0,0.0,0.0,0.0,0.0,0.0,0.0,0.0,0.0,0.0,0.0,0.0,0.0,0.0,0.0,0.0,0.0,0.0,0.0,0.0,0.0,0.0,0.0,0.0,0.0,0.0,0.0,0.0,0.0,0.0,0.0,0.0,0.0,0.0,0.0,0.0,0.0,0.0,0.0,0.0,0.0,0.0,0.0,0.0,0.0,0.0,0.0,0.0,0.0,0.0,0.0,0.0,0.0,0.0,0.0,0.0,0.0,0.0,0.0,0.0,0.0,0.0,0.0,0.0,0.0,0.0,0.0,0.0,0.0,0.0,0.0,0.0,0.0,0.0,0.0,0.0,0.0,0.0,0.0,0.0,0.0,0.0,0.0,0.0,0.0,0.0,0.0,0.0,0.0,0.0,0.0,0.0,0.0,0.0,0.0,0.0,0.0,0.0,0.0,0.0,0.0,0.0,0.0,0.0,0.0,0.0,0.0,0.0,0.0,0.0,0.0,0.0,0.0,0.0,0.0,0.0,0.0,0.0,0.0,0.0,0.0,0.0,0.0,0.0,0.0,0.0,0.0,0.0,0.0,0.0,0.0,0.0,0.0,0.0,0.0,0.0,0.0,0.0,0.0,0.0,0.0,0.0,0.0,0.0,0.0,0.0,0.0,0.0,0.0,0.0,0.0,0.0,0.0,0.0,0.0,0.0,0.0,0.0,0.0,0.0,0.0,0.0,0.0,0.0,0.0,0.0,0.0,0.0,0.0,0.0,0.0,0.0,0.0,0.0,0.0,0.0,0.0,0.0,0.0,0.0,0.0,0.0,0.0,0.0,0.0,0.0,0.0,0.0,0.0,0.0,0.0,0.0,0.0,0.0,0.0,0.0,0.0,0.0,0.0,0.0,0.0,0.0,0.0,0.0,0.0,0.0,0.0,0.0,0.0,0.0,0.0,0.0,0.0,0.0,0.0,0.0,0.0,0.0,0.0,0.0,0.0,0.0,0.0,0.0,0.0,0.0,0.0,0.0,0.0,0.0,0.0,0.0,0.0,0.0,0.0,0.0,0.0,0.0,0.0,0.0,0.0,0.0,0.0,0.0,0.0,0.0,0.0,0.0,0.0,0.0,0.0,0.0,0.0,0.0,0.0,0.0,0.0,0.0,0.0,0.0,0.0,0.0,0.0,0.0,0.0,0.0,0.0,0.0,0.0,0.0,0.0,0.0,0.0,0.0,0.0,0.0,0.0,0.0,0.0,0.0,0.0,0.0,0.0,0.0,0.0,0.0,0.0,0.0,0.0,0.0,0.0,0.0,0.0,0.0,0.0,0.0,0.0,0.0,0.0,0.0,0.0,0.0,0.0,0.0,0.0,0.0,0.0,0.0,0.0,0.0,0.0,0.0,0.0,0.0,0.0,0.0,0.0,0.0,0.0,0.0,0.0,0.0,0.0,0.0,0.0,0.0,0.0,0.0,0.0,0.0,0.0,0.0,0.0,0.0,0.0,0.0,0.0,0.0,0.0,0.0,0.0,0.0,0.0,0.0,0.0,0.0,0.0,0.0,0.0,0.0,0.0,0.0,0.0,0.0,0.0,0.0,0.0,0.0,0.0,0.0,0.0,0.0,0.0,0.0,0.0,0.0,0.0,0.0,0.0,0.0,0.0,0.0,0.0,0.0,0.0,0.0,0.0,0.0,0.0,0.0,0.0,0.0,0.0,0.0,0.0,0.0,0.0,0.0,0.0,0.0,0.0,0.0,0.0,0.0,0.0,0.0,0.0,0.0,0.0,0.0,0.0,0.0,0.0,0.0,0.0,0.0,0.0,0.0,0.0,0.0,0.0,0.0,0.0,0.0,0.0,0.0,0.0,0.0,0.0,0.0,0.0,0.0,0.0,0.0,0.0,0.0,0.0,0.0,0.0,0.0,0.0,0.0,0.0,0.0,0.0,0.0,0.0,0.0,0.0,0.0,0.0,0.0,0.0,0.0,0.0,0.0,0.0,0.0,0.0,0.0,0.0,0.0,0.0,0.0,0.0,0.0,0.0,0.0,0.0,0.0,0.0,0.0,0.0,0.0,0.0,0.0,0.0,0.0,0.0,0.0,0.0,0.0,0.0,0.0,0.0,0.0,0.0,0.0,0.0,0.0,0.0,0.0,0.0,0.0,0.0,0.0,0.0,0.0,0.0,0.0,0.0,0.0,0.0,0.0,0.0,0.0,0.0,0.0,0.0,0.0,0.0,0.0,0.0,0.0,0.0,0.0,0.0,0.0,0.0,0.0,0.0,0.0,0.0,0.0,0.0,0.0,0.0,0.0,0.0,0.0,0.0,0.0,0.0,0.0,0.0,0.0,0.0,0.0,0.0,0.0,0.0,0.0,0.0,0.0,0.0,0.0,0.0,0.0,0.0,0.0,0.0,0.0,0.0,0.0,0.0,0.0,0.0,0.0,0.0,0.0,0.0,0.0,0.0,0.0,0.0,0.0,0.0,0.0,0.0,0.0,0.0,0.0,0.0,0.0,0.0,0.0,0.0,0.0,0.0,0.0,0.0,0.0,0.0,0.0,0.0,0.0,0.0,0.0,0.0,0.0,0.0,0.0,0.0,0.0,0.0,0.0,0.0,0.0,0.0,0.0,0.0,0.0,0.0,0.0,0.0,0.0,0.0,0.0,0.0,0.0,0.0,0.0,0.0,0.0,0.0,0.0,0.0,0.0,0.0,0.0,0.0,0.0,0.0,0.0,0.0,0.0,0.0,0.0,0.0,0.0,0.0,0.0,0.0,0.0,0.0,0.0,0.0,0.0,0.0,0.0,0.0,0.0,0.0,0.0,0.0,0.0,0.0,0.0,0.0,0.0,0.0,0.0,0.0,0.0,0.0,0.0,0.0,0.0,0.0,0.0,0.0,0.0,0.0,0.0,0.0,0.0,0.0,0.0,0.0,0.0,0.0,0.0,0.0,0.0,0.0,0.0,0.0,0.0,0.0,0.0,0.0,0.0,0.0,0.0,0.0,0.0,0.0,0.0,0.0,0.0,0.0,0.0,0.0,0.0,0.0,0.0,0.0,0.0,0.0,0.0,0.0,0.0,0.0,0.0,0.0,0.0,0.0,0.0,0.0,0.0,0.0,0.0,0.0,0.0,0.0,0.0,0.0,0.0,0.0,0.0,0.0,0.0,0.0,0.0,0.0,0.0,0.0,0.0,0.0,0.0,0.0,0.0,0.0,0.0,0.0,0.0,0.0,0.0,0.0,0.0,0.0,0.0,0.0,0.0,0.0,0.0,0.0,0.0,0.0,0.0,0.0,0.0,0.0,0.0,0.0,0.0,0.0,0.0,0.0,0.0,0.0,0.0,0.0,0.0,0.0,0.0,0.0,0.0,0.0,0.0,0.0,0.0,0.0,0.0,0.0,0.0,0.0,0.0,0.0,0.0,0.0,0.0,0.0,0.0,0.0,0.0,0.0,0.0,0.0,0.0,0.0,0.0,0.0,0.0,0.0,0.0,0.0,0.0,0.0,0.0,0.0,0.0,0.0,0.0,0.0,0.0,0.0,0.0,0.0,0.0,-1.165,-0.9749,0.0,0.0,0.0,0.0,0.0,0.0,0.0,0.0,0.0,0.0,0.0,0.0,0.0,0.0,0.0,0.0,0.0,0.0,0.0,0.0,0.0,0.0,0.0,-0.5108,-0.6406,-0.4931,-0.1866,0.0,0.0,0.0,0.0,0.0,0.0,0.0,0.0,0.0,-0.1405,-0.9276,-1.0068,-1.5171,-2.3969,-1.3949,-0.7219,-0.3477,0.0,0.0,0.0,0.0,0.0,0.0,0.0,0.0,0.0,0.0,0.0,0.0,0.0,0.0,0.0,0.0,0.0,0.0,0.0,0.0,0.0,0.0,0.0,0.0,0.0,0.0,0.0,0.0,0.0,0.0,0.0,0.0,0.0,0.0,0.0,0.0,0.0,0.0,0.0,0.0,0.0,0.0,0.0,0.0,0.0,0.0,0.0,0.0,0.0,0.0,0.0,0.0,0.0,0.0,0.0,0.0,0.0,0.0,0.0,0.0,0.0,0.0,0.0,0.0,0.0,0.0,0.0,0.0,0.0,0.0,-1.4224,-1.2587,0.0,0.0,0.0,0.0,0.0,0.0,0.0,0.0,0.0,0.0,0.0,0.0,0.0,0.0,0.0,0.0,0.0,0.0,0.0,0.0,0.0,-0.4545,-0.4508,-0.7645,-0.876,-0.6285,-0.3403,-0.136,-0.05,-0.0154,0.0,0.0,0.0,0.0,0.5036,0.2847,-0.4653,-1.7577,-1.5556,-1.7732,-2.3732,-2.106,-1.614,-0.9522,-0.7721,0.0,0.0,0.0,0.0,0.0,0.0,0.0,0.0,0.0,0.0,0.0,0.0,0.0,0.0,0.0,0.0,0.0,0.0,0.0,0.0,0.0,0.0,0.0,0.0,0.0,0.0,0.0,0.0,0.0,0.0,0.0,0.0,0.0,0.0,0.0,0.0,0.0,0.0,0.0,0.0,0.0,0.0,0.0,0.0,0.0,0.0,0.0,0.0,0.0,0.0,0.0,0.0,0.0,0.0,0.0,0.0,0.0,0.0,0.0,0.0,0.0,0.0,0.0,-1.7047,-1.6618,-1.7483,-1.6362,-1.612,-1.657,-1.5551,-1.4623,-1.3498,-0.971,0.0,0.0,0.0,0.0,0.0,0.0,0.0,0.0,0.0,0.0,0.0,0.0,0.0,0.0,0.0,0.0,0.0,0.0,0.0,-0.6838,-1.2305,-1.1135,-1.0282,-1.1075,-0.9581,-0.6762,-0.2462,-0.081,0.0,0.0,0.0,0.0,0.5085,-0.6078,-1.1542,-1.0795,-1.9884,-2.3607,-2.2197,-2.1883,-2.0674,-1.865,-1.634,-1.4268,-1.2269,0.0,0.0,0.0,0.0,0.0,0.0,0.0,0.0,0.0,0.0,0.0,0.0,0.0,0.0,0.0,0.0,0.0,0.0,0.0,0.0,0.0,0.0,0.0,0.0,0.0,0.0,0.0,0.0,0.0,0.0,0.0,0.0,0.0,0.0,0.0,0.0,0.0,0.0,0.0,0.0,0.0,-1.2148,-1.1712,0.0,0.0,0.0,0.0,0.0,0.0,0.0,0.0,0.0,0.0,0.0,0.0,0.0,-1.5994,-1.5312,-1.8256,-1.9756,-1.985,-2.2038,-2.2724,-2.2016,-2.0914,-1.9386,-1.7423,-1.5874,0.0,-1.4639,-1.156,0.0,0.0,0.0,0.0,0.0,0.0,0.0,0.0,0.0,0.0,0.0,0.0,0.0,0.0,0.0,0.0,0.0,0.0,0.0,0.0,0.0,-1.2702,-1.2787,-1.3035,-1.2817,-1.0923,-0.6878,-0.4261,0.0,0.0,0.0,-0.3217,-0.3218,-0.7895,-1.1411,-1.3598,-2.0844,-2.445,-2.4506,-2.3211,-2.2365,-2.1805,-1.9693,-1.7261,-1.4609,-1.3052,0.0,0.0,0.0,0.0,0.0,0.0,0.0,0.0,0.0,0.0,0.0,0.0,0.0,0.0,0.0,0.0,0.0,0.0,0.0,0.0,0.0,0.0,0.0,0.0,0.0,0.0,0.0,0.0,0.0,0.0,0.0,0.0,0.0,0.0,0.0,0.0,0.0,0.0,0.0,-1.2973,-1.4021,-1.4423,-1.3476,-1.2169,0.0,0.0,0.0,0.0,0.0,0.0,0.0,0.0,0.0,-1.5001,-1.6522,-1.7842,-1.8893,-2.0344,-2.1352,-2.1922,-2.2644,-2.2736,-2.222,-2.0623,-1.8998,-1.7295,-1.5248,-1.4529,-1.4625,-1.1579,-0.9858,-0.9023,0.0,0.0,0.0,0.0,-1.2431,-1.3459,0.0,0.0,0.0,0.0,0.0,0.0,0.0,0.0,0.0,0.0,0.0,0.0,-1.2271,-1.4117,-1.5016,-1.4753,-1.5033,-1.423,-1.1843,-0.8315,-0.4615,-0.0808,-0.5703,-0.8926,-0.9779,-0.9509,-1.2355,-1.8503,-2.2209,-2.5132,-2.7269,-2.504,-2.3861,-2.3529,-2.1717,-1.9196,-1.6265,-1.5691,-1.3346,-0.9578,0.0,0.0,0.0,0.0,0.0,0.0,0.0,0.0,0.0,0.0,0.0,0.0,0.0,0.0,0.0,0.0,0.0,0.0,0.0,0.0,0.0,0.0,0.0,0.0,0.0,0.0,0.0,0.0,0.0,0.0,0.0,0.0,0.0,0.0,0.0,0.0,0.0,-1.4866,-1.5648,-1.628,-1.537,-1.3865,0.0,0.0,0.0,0.0,0.0,0.0,-1.5469,-1.6253,-1.7446,-1.9083,-1.8742,-1.9664,-2.1969,-2.1914,-2.2334,-2.329,-2.252,-2.1919,-2.1466,-1.9622,-1.8074,-1.6654,-1.4586,-1.4007,-1.4255,-1.1387,-1.0887,-1.187,-1.059,-0.9902,-1.0146,-1.4596,-1.4654,-1.3015,0.0,0.0,0.0,0.0,0.0,0.0,0.0,0.0,0.0,0.0,0.0,-1.1898,-1.5741,-1.6073,-1.6356,-1.716,-1.6732,-1.6537,-1.6801,-1.2274,-0.7411,-0.2578,-0.4281,-0.6825,-1.0016,-1.3608,-1.7975,-2.3159,-2.5531,-2.7587,-2.9225,-2.7512,-2.619,-2.5219,-2.3584,-2.1225,-1.8357,-1.692,-1.6708,-1.6695,-0.9798,0.0,0.0,0.0,0.0,0.0,0.0,0.0,0.0,0.0,0.0,0.0,0.0,0.0,0.0,0.0,0.0,0.0,0.0,0.0,0.0,0.0,0.0,0.0,0.0,0.0,0.0,0.0,0.0,0.0,0.0,0.0,0.0,0.0,0.0,0.0,0.0,0.0,0.0,-1.5839,-1.6511,0.0,0.0,0.0,0.0,-1.6872,-1.7933,-1.8905,-1.9745,-2.0549,-2.154,-2.2703,-2.1678,-2.1671,-2.2824,-2.2654,-2.2715,-2.3026,-2.2914,-2.2117,-2.0703,-1.94,-1.7638,-1.5536,-1.4242,-1.3773,-1.3663,-1.1617,-1.1669,-1.2935,-1.2241,-1.2215,-1.2874,-1.5168,-1.6068,-1.6396,0.0,0.0,0.0,-0.7914,-0.7899,-0.7922,-0.7989,-0.8412,-0.9014,-0.9826,-1.16,-1.3859,-1.6674,-1.7924,-1.8944,-1.9943,-1.9838,-1.9033,-1.7433,-1.6639,-1.4837,-1.1712,-1.0555,-1.3041,-1.9549,-1.9951,-2.2004,-2.5947,-2.6758,-2.7939,-2.9375,-2.768,-2.6358,-2.5328,-2.4071,-2.2366,-2.0333,-1.9091,-1.7556,-1.583,-1.4585,-1.0339,0.0,0.0,0.0,0.0,0.0,0.0,0.0,0.0,0.0,0.0,0.0,0.0,0.0,0.0,0.0,0.0,0.0,0.0,0.0,0.0,0.0,0.0,0.0,0.0,0.0,0.0,0.0,0.0,0.0,0.0,0.0,0.0,0.0,0.0,0.0,0.0,0.0,-1.8165,-1.8522,0.0,-1.6517,-1.8278,-1.9458,-1.9308,-2.0711,-2.1679,-2.1942,-2.2117,-2.2156,-2.2047,-2.1557,-2.1531,-2.2003,-2.1847,-2.1947,-2.228,-2.1856,-2.1248,-2.0374,-1.8979,-1.7706,-1.6528,-1.4936,-1.4517,-1.4846,-1.392,-1.4255,-1.5441,-1.6578,-1.7117,-1.7422,-1.8359,-1.8537,-1.8295,0.0,0.0,0.0,-0.7914,-0.7999,-0.815,-0.8377,-0.9089,-0.9978,-1.1053,-1.3068,-1.5369,-1.7901,-1.9457,-2.0741,-2.1833,-2.1947,-2.1359,-1.9949,-1.9579,-1.889,-1.7738,-1.6835,-1.8709,-2.37,-2.3755,-2.4917,-2.7365,-2.7604,-2.8324,-2.9475,-2.8315,-2.7083,-2.5871,-2.5079,-2.364,-2.1728,-2.0646,-1.8741,-1.6463,-1.6973,-1.4653,-1.0372,0.0,0.0,0.0,0.0,0.0,0.0,0.0,0.0,0.0,0.0,0.0,0.0,0.0,0.0,0.0,0.0,0.0,0.0,0.0,0.0,0.0,0.0,0.0,0.0,0.0,0.0,0.0,0.0,0.0,0.0,0.0,0.0,0.0,0.0,-1.7516,-1.8596,-1.9489,-1.9886,-1.9657,-1.8623,-2.0812,-2.2242,-2.2068,-2.3218,-2.3769,-2.3462,-2.3517,-2.3191,-2.2422,-2.1993,-2.1987,-2.2416,-2.1895,-2.1784,-2.2088,-2.1563,-2.0931,-2.0234,-1.8948,-1.7946,-1.7124,-1.5979,-1.5782,-1.63,-1.6458,-1.7308,-1.8601,-1.9531,-2.0176,-2.0631,-2.0862,-2.039,-1.935,0.0,0.0,-0.8049,-0.7927,-0.8178,-0.8387,-0.8415,-0.9215,-1.0572,-1.2619,-1.4266,-1.6429,-1.9556,-2.0649,-2.1597,-2.2698,-2.2812,-2.3339,-2.4511,-2.0838,-1.8979,-1.9794,-2.2325,-2.3092,-2.1735,-2.4774,-2.6772,-2.7597,-2.8237,-2.8955,-2.9713,-2.9494,-2.8519,-2.6898,-2.6682,-2.5132,-2.258,-2.1491,-2.0417,-1.9247,-1.6966,-1.6718,-1.7219,0.0,0.0,0.0,0.0,0.0,0.0,0.0,0.0,0.0,0.0,0.0,0.0,0.0,0.0,0.0,0.0,0.0,0.0,0.0,0.0,0.0,0.0,0.0,0.0,0.0,0.0,0.0,0.0,0.0,0.0,0.0,0.0,0.0,-1.8069,-1.8465,-1.8903,-1.9559,-2.0463,-2.101,-2.0939,-2.2736,-2.4284,-2.5221,-2.5412,-2.5136,-2.4334,-2.4885,-2.4891,-2.4175,-2.3217,-2.3159,-2.4122,-2.2872,-2.2318,-2.2447,-2.2059,-2.1272,-2.0206,-1.9317,-1.8338,-1.7288,-1.7288,-1.7491,-1.7957,-1.8956,-2.0511,-2.2123,-2.0891,-2.1168,-2.2297,-2.2392,-2.1447,-1.9556,-0.7899,-0.7927,-0.7969,-0.8037,-0.8118,-0.828,-0.8567,-0.9735,-1.1144,-1.269,-1.4837,-1.7156,-1.9632,-2.1282,-2.2342,-2.2765,-2.3246,-2.3119,-2.2155,-1.9936,-1.9126,-2.0115,-2.438,-2.6544,-2.614,-2.7588,-2.8756,-2.9608,-2.9781,-2.9898,-2.9924,-2.9713,-2.8651,-2.6898,-2.6682,-2.5544,-2.3671,-2.2353,-2.1338,-2.0368,-1.8172,-1.6859,-1.617,0.0,0.0,0.0,0.0,0.0,0.0,0.0,0.0,0.0,0.0,0.0,0.0,0.0,0.0,0.0,0.0,0.0,0.0,0.0,0.0,0.0,0.0,0.0,0.0,0.0,0.0,0.0,0.0,0.0,0.0,0.0,-1.5367,-1.706,-1.78,-1.9007,-2.0018,-2.0481,-2.1095,-2.1586,-2.1752,-2.2964,-2.4138,-2.5087,-2.5221,-2.4969,-2.4276,-2.497,-2.4773,-2.3368,-2.3057,-2.2716,-2.2326,-2.149,-2.1098,-2.1126,-2.1152,-2.1044,-2.0765,-2.0135,-1.9672,-1.9343,-1.895,-1.9082,-1.9617,-2.0431,-2.1687,-2.303,-2.2792,-2.3282,-2.4062,-2.3372,-2.0976,-1.7592,-0.7899,-0.7941,-0.8009,-0.809,-0.8238,-0.8422,-0.8669,-1.0071,-1.1665,-1.3209,-1.5266,-1.7546,-1.9995,-2.1211,-2.2049,-2.2543,-2.3248,-2.3076,-2.1683,-2.0774,-2.0737,-2.1722,-2.537,-2.7525,-2.789,-2.9044,-2.989,-3.0398,-3.0398,-3.0311,-3.015,-2.9504,-2.8437,-2.7039,-2.6391,-2.5383,-2.4115,-2.2697,-2.1661,-2.0844,-1.9006,-1.7557,-1.6555,-1.6814,-1.5944,-1.4594,-1.4672,-1.4127,-1.359,-1.5392,0.0,0.0,0.0,0.0,0.0,0.0,0.0,0.0,0.0,0.0,0.0,0.0,0.0,0.0,0.0,0.0,0.0,0.0,0.0,0.0,0.0,0.0,0.0,0.0,-1.5862,-1.7329,-1.833,-1.9038,-1.9615,-2.0045,-2.0547,-2.1138,-2.1825,-2.2898,-2.3847,-2.4626,-2.452,-2.4161,-2.3592,-2.4294,-2.4005,-2.2497,-2.2844,-2.2572,-2.1612,-2.1302,-2.1071,-2.0894,-2.1246,-2.1354,-2.1244,-2.0733,-2.0553,-2.052,-2.0206,-2.0325,-2.0831,-2.1401,-2.2417,-2.3627,0.0,0.0,0.0,0.0,-2.1076,-1.7942,-0.7928,-0.8023,-0.8102,-0.8131,-0.845,-0.8705,-0.8729,-1.0245,-1.2042,-1.3868,-1.5572,-1.7672,-2.036,-2.077,-2.1189,-2.208,-2.3048,-2.3323,-2.2626,-2.2595,-2.3023,-2.393,-2.5732,-2.7129,-2.8025,-2.9602,-3.0398,-3.0398,-3.0398,-3.0398,-3.0379,-2.9182,-2.8161,-2.7255,-2.6172,-2.5107,-2.4134,-2.2876,-2.1839,-2.088,-1.951,-1.8491,-1.7614,-1.6353,-1.6039,-1.6056,-1.4441,-1.3753,-1.3727,-1.4469,0.0,0.0,0.0,0.0,0.0,0.0,0.0,0.0,0.0,0.0,0.0,0.0,0.0,0.0,0.0,0.0,0.0,0.0,0.0,0.0,0.0,0.0,0.0,0.0,-1.5951,-1.7584,-1.8973,-1.8546,-1.8374,-1.9107,-1.9527,-2.0247,-2.1475,-2.2452,-2.3247,-2.3801,-2.339,-2.2911,-2.24,-2.3056,0.0,0.0,0.0,-2.2495,-2.1602,-2.1803,-2.1714,-2.1316,-2.1927,-2.2057,-2.1715,-2.1397,-2.1243,-2.1243,-2.1243,-2.1458,-2.1803,-2.2152,-2.2972,-2.4039,-2.4472,-2.5014,-2.5356,-2.346,-2.159,-1.9655,-0.8051,-0.809,-0.8158,-0.8322,-0.8542,-0.8741,-0.8852,-1.0306,-1.2042,-1.3868,-1.5704,-1.7604,-1.9601,-2.0558,-2.1111,-2.1317,-2.3153,-2.4289,-2.4237,-2.3647,-2.3833,-2.4955,-2.6558,-2.7872,-2.8852,-2.9871,-3.0398,-3.0398,-3.0398,-3.0398,-3.0398,-2.976,-2.8693,-2.7293,-2.734,-2.6172,-2.4188,-2.4019,-2.2815,-2.0912,-1.9823,-1.8593,-1.7375,-1.7084,-1.6865,-1.6625,-1.6278,-1.6132,-1.6308,-1.7615,-1.6946,-1.5687,-1.6342,-1.4538,0.0,0.0,0.0,0.0,0.0,0.0,0.0,0.0,0.0,0.0,0.0,0.0,0.0,0.0,0.0,0.0,0.0,0.0,0.0,-1.536,-1.6063,-1.6752,-1.7584,-1.7223,-1.7728,-2.0159,-2.0288,-2.0527,-2.1425,-2.1387,-2.1566,-2.227,-2.2193,-2.1607,-2.0499,-2.1675,-2.2029,-2.1241,-2.1648,-2.18,-2.1602,-2.1803,-2.1714,-2.1316,-2.2447,0.0,-2.2495,-2.2686,-2.277,-2.277,-2.277,-2.2813,-2.293,-2.3259,-2.3915,-2.4752,-2.5201,-2.5145,-2.473,-2.401,-2.2437,-2.0459,-0.8573,-0.8322,-0.8171,-0.8361,-0.8567,-0.8736,-0.8869,-1.0077,-1.1706,-1.3814,-1.5377,-1.7098,-1.9234,-1.9178,-1.9001,-1.9001,-2.0594,-2.2308,-2.3983,-2.3814,-2.4105,-2.5113,-2.672,-2.7848,-2.8344,-2.9702,-3.0398,-3.0398,-3.0398,-3.0398,-3.0379,-2.9509,-2.8464,-2.7274,-2.6802,-2.5915,-2.4794,-2.4479,-2.3496,-2.2083,-2.125,-1.9674,-1.779,-1.7256,-1.6942,-1.6789,-1.6607,-1.6448,-1.6456,-1.7506,-1.7098,-1.6323,-1.7077,-1.6007,-1.4337,0.0,0.0,0.0,0.0,0.0,0.0,0.0,0.0,0.0,0.0,0.0,0.0,0.0,0.0,-1.2787,-1.385,0.0,-1.4858,-1.5666,-1.5933,-1.639,-1.7349,-1.6799,-1.6927,-1.8639,-1.9004,-1.9353,-2.0003,-2.0194,-2.0544,-2.1164,-2.0674,-2.0164,-1.9722,-2.0578,-2.0877,-2.0423,-2.1126,-2.1464,-2.1399,-2.1694,-2.189,-2.2027,-2.2908,-2.3262,-2.3124,-2.3382,-2.3512,-2.3512,-2.3512,-2.3512,-2.3515,-2.3971,-2.4496,-2.5033,-2.5376,-2.5254,-2.4833,-2.4231,-2.3253,-2.1971,-0.9096,-0.8693,-0.8355,-0.8406,-0.8592,-0.8771,-0.888,-0.9813,-1.1255,-1.3362,-1.4568,-1.6022,-1.8133,-1.7215,-1.6702,-1.7366,-1.8343,-2.0316,-2.3593,-2.3929,-2.4371,-2.522,-2.6721,-2.7616,-2.7828,-2.9531,-3.0398,-3.0398,-3.0398,-3.0398,-3.0379,-2.9106,-2.8083,-2.7255,-2.6135,-2.5476,-2.5124,-2.4633,-2.3922,-2.3092,-2.2272,-2.0627,-1.8559,-1.7486,-1.6952,-1.6763,-1.6421,-1.6136,-1.5975,-1.6518,-1.6879,-1.7138,-1.7277,-1.662,-1.5756,-1.5264,-1.4052,0.0,0.0,0.0,0.0,0.0,0.0,0.0,0.0,-1.1168,-1.1122,-1.1651,-1.2331,-1.3182,-1.4368,-1.4852,-1.5209,-1.5694,-1.5726,-1.6129,-1.7503,-1.6949,-1.6648,-1.7334,-1.7597,-1.7967,-1.8534,-1.9124,-1.9594,-1.989,-1.9219,-1.8853,-1.8955,-1.9521,-1.9721,-1.957,-2.0569,-2.1147,-2.1191,-2.1694,-2.2233,-2.2793,-2.3436,-2.3728,-2.3691,-2.3914,-2.4019,-2.4019,-2.4019,-2.4019,-2.4053,-2.4511,-2.4851,-2.5129,-2.5282,-2.5287,-2.5092,-2.4403,-2.3934,-2.3422,-0.9188,-0.9186,-0.9079,-0.8498,-0.866,-0.888,-0.8891,-0.9813,-1.0852,-1.183,-1.2902,-1.3941,-1.494,-1.4873,-1.5993,-1.9035,-1.9585,-2.1202,-2.462,-2.4737,-2.5129,-2.6104,-2.6916,-2.7751,-2.8649,-2.9819,-3.0398,-3.0398,-3.0398,-3.0398,-3.0379,-2.9106,-2.8083,-2.7274,-2.6728,-2.5676,-2.4354,-2.4701,-2.4013,-2.2551,-2.1231,-2.0279,-1.9527,-1.8447,-1.7539,-1.6763,-1.6421,-1.6274,-1.6299,-1.6608,-1.6575,-1.6518,-1.7122,-1.7003,-1.6712,-1.6924,-1.6033,-1.5042,-1.5412,-1.3897,-1.2149,-1.1925,-1.1233,-1.0969,0.0,-1.2037,-1.1886,-1.2859,-1.3405,-1.3902,-1.4697,-1.4717,-1.4793,-1.5505,-1.536,-1.5766,-1.7471,-1.7545,-1.7903,-1.914,-1.8056,-1.7512,-1.8346,-1.8393,-1.8204,-1.7773,-1.8119,-1.7995,-1.714,-1.8159,-1.886,-1.9074,-1.9713,-2.0428,-2.1191,-2.2064,-2.2688,-2.307,-2.4136,-2.4562,-2.4404,-2.4656,-2.4779,-2.4779,-2.4779,-2.4779,-2.4779,-2.4974,-2.5109,-2.519,-2.5146,-2.5129,-2.5072,-2.4732,-2.4445,-2.4062,-1.0131,-0.9716,-0.9302,-0.903,-0.894,-0.8891,-0.8891,-0.9345,-1.0172,-1.1515,-1.2166,-1.3004,-1.4359,-1.3673,-1.408,-1.6545,-1.7367,-1.9201,-2.2612,-2.3707,-2.441,-2.4827,-2.604,-2.6909,-2.7338,-2.8859,-2.964,-2.964,-3.016,-2.991,-2.8917,-2.817,-2.6836,-2.5068,-2.4671,-2.4392,-2.4189,-2.4157,-2.405,-2.3837,-2.2528,-2.1396,-2.0342,-1.9418,-1.8554,-1.7827,-1.7798,-1.7647,0.0,-1.8084,-1.7761,-1.7212,-1.7879,-1.7486,-1.6918,-1.7851,-1.7152,-1.608,-1.5993,-1.5047,-1.3901,-1.3138,-1.2156,-1.1399,-1.1546,-1.1314,-1.1147,-1.1453,-1.2048,-1.2726,-1.332,-1.3808,-1.421,-1.4516,-1.485,-1.5706,-1.746,-1.7501,-1.811,-2.0054,-1.9167,-1.8649,-1.9403,-1.8951,-1.8603,-1.8578,-1.7852,-1.74,-1.7396,-1.7957,-1.8539,-1.9045,-2.0069,-2.1043,-2.2006,-2.291,-2.3609,-2.4088,-2.4687,-2.4923,-2.4853,-2.5046,-2.5148,-2.5191,-2.5221,-2.5224,-2.5208,-2.5239,-2.5269,-2.5271,-2.5236,-2.5128,-2.4992,-2.452,-2.4122,-2.378,-1.0907,-1.0345,-0.9781,-0.9503,-0.9248,-0.9042,-0.8925,-0.9054,-0.9602,-1.087,-1.1195,-1.1769,-1.3039,-1.2132,-1.2142,-1.3886,-1.5363,-1.746,-2.0442,-2.2626,-2.3797,-2.3797,-2.517,-2.606,-2.6276,-2.7689,-2.8525,-2.8775,-2.9159,-2.8736,-2.7525,-2.6708,-2.5329,-2.3483,-2.2961,-2.3033,-2.351,-2.3242,-2.3469,-2.394,-2.2771,-2.1665,-2.0621,-1.9719,-1.9204,-1.8861,-1.8591,-1.8376,-1.821,-1.8294,-1.793,-1.7486,-1.7759,-1.7319,-1.7015,-1.8419,-1.8149,-1.7125,-1.6009,-1.5269,-1.4517,-1.3253,-1.2257,-1.1297,-1.0229,-1.0059,-1.0083,-0.9795,-1.0391,-1.1222,-1.1983,-1.2828,-1.3491,-1.3611,-1.4351,-1.5569,-1.7432,-1.7768,-1.8681,-2.096,-2.0796,-2.0645,-2.1151,-1.9876,-1.8952,-1.8803,-1.7807,-1.7329,-1.7641,-1.8025,-1.8503,-1.908,-2.0183,-2.1357,-2.2586,-2.3269,-2.4057,-2.4885,-2.5085,-2.5186,-2.5217,-2.5332,-2.541,-2.5463,-2.5503,-2.5493,-2.544,-2.5434,-2.5383,-2.5321,-2.5265,-2.5135,-2.4943,-2.4414,-2.4062,-2.3818,-1.1193,-1.1062,-1.0745,-0.9764,-0.9588,-0.9422,-0.8959,-0.9119,-0.932,-0.9365,-0.9606,-0.979,-0.9845,-0.9808,-1.0476,-1.2215,-1.4717,-1.6982,-1.8852,-2.1988,-2.3797,-2.3797,-2.4598,-2.5449,-2.6289,-2.6546,-2.7082,-2.7928,-2.7121,-2.6697,-2.6601,-2.4763,-2.3771,-2.3464,-2.2469,-2.1953,-2.1876,-2.1859,-2.1877,-2.1805,-2.0717,-2.0264,-2.0101,-1.9036,-1.9063,-1.9512,-1.8202,-1.7743,-1.7524,-1.6096,-1.6152,-1.6674,-1.5864,-1.6152,-1.7114,-1.8702,-1.9091,-1.8381,-1.5529,-1.4072,-1.2932,-1.1236,-1.0676,-1.0116,-0.8382,-0.8475,-0.8881,-0.863,-0.8981,-0.9769,-1.1099,-1.2008,-1.2649,-1.3073,-1.39,-1.5272,-1.7401,-1.8703,-2.0168,-2.2134,-2.2975,-2.3467,-2.3671,-2.101,-1.8721,-1.7377,-1.781,-1.7915,-1.7353,-1.8111,-1.8733,-1.908,-1.9641,-2.0795,-2.2577,-2.282,-2.3661,-2.5097,-2.5286,-2.5411,-2.5483,-2.5567,-2.5583,-2.5588,-2.56,-2.5598,-2.5595,-2.5511,-2.5465,-2.5379,-2.5176,-2.5058,-2.4962,-2.4601,-2.4588,-2.4678,-1.1589,-1.1302,-1.0857,-1.0063,-0.9757,-0.9416,-0.8864,-0.9001,-0.9189,-0.9293,-0.9534,0.0,0.0,0.0,0.0,0.0,-1.4206,-1.6143,-1.7914,-2.0697,-2.2259,-2.2259,-2.3093,-2.3669,-2.3976,-2.4601,-2.5091,-2.538,-2.562,-2.5178,-2.4062,-2.3195,-2.2186,-2.1035,-2.0597,-2.06,-2.0941,-2.1087,-2.1385,-2.1712,-2.0626,-2.0192,-2.0228,-2.0646,-2.0029,-1.8953,0.0,-1.8575,-1.8353,-1.8149,-1.7464,-1.6849,-1.7479,-1.7279,-1.6908,-1.7334,-1.8022,-1.7992,-1.5096,-1.4014,-1.3228,-1.1185,-1.0525,-0.9916,-0.8505,-0.8219,-0.8238,-0.8364,-0.8854,-0.9714,-1.1161,-1.2189,-1.3022,-1.3588,-1.4351,-1.5647,-1.7854,-1.8675,-1.9853,-2.2065,-2.2954,-2.3208,-2.2836,-2.1443,-2.0681,-2.0953,-1.9505,-1.9041,-2.0028,-1.9485,-1.9467,-2.0202,-2.0619,-2.148,-2.2851,-2.333,-2.4141,-2.5302,-2.5405,-2.545,-2.5434,-2.5551,-2.5572,-2.5545,-2.5577,-2.5551,-2.5477,-2.5484,-2.5465,-2.5406,-2.5363,-2.5236,-2.505,-2.495,-2.486,-2.476,-1.1805,-1.1632,-1.1304,-1.0714,-1.0287,0.0,0.0,0.0,0.0,0.0,0.0,0.0,0.0,0.0,0.0,0.0,0.0,-1.4806,-1.6556,-1.9139,-2.0869,-2.1466,-2.1754,-2.2197,-2.2793,-2.2754,-2.3186,-2.411,-2.4312,-2.3832,-2.2719,-2.2182,-2.1159,-1.9713,-1.9649,-1.9781,-2.0079,-2.0218,-2.1034,-2.2097,-2.0496,-2.0336,-2.104,-2.0806,-1.952,0.0,-1.7948,-1.7363,-1.655,-1.6786,-1.6624,-1.6402,-1.7059,-1.73,-1.7289,-1.7093,-1.7559,-1.7627,-1.5278,-1.4147,-1.3207,-1.1309,-1.0375,-0.9564,-0.819,-0.7729,-0.7809,-0.8401,-0.8915,-0.9828,-1.1616,-1.2839,-1.3914,-1.4822,-1.5834,-1.7151,-1.8958,-1.9492,-2.0269,-2.1763,-2.2411,-2.2604,-2.2287,-2.1868,-2.1826,-2.2419,-2.0548,-1.9973,-2.1353,-2.0374,-2.0228,-2.1306,-2.1344,-2.1973,-2.3306,-2.3748,-2.4443,-2.5394,-2.542,-2.542,-2.5404,-2.5488,-2.5508,-2.5465,-2.5506,-2.5473,-2.542,-2.5463,-2.5443,-2.5383,-2.5498,-2.5379,-2.5158,-2.5119,-2.5045,-2.4936,-1.1805,-1.2018,-1.2049,0.0,0.0,0.0,0.0,0.0,0.0,0.0,0.0,0.0,0.0,0.0,0.0,0.0,0.0,0.0,-1.4753,-1.7332,-1.9542,-2.1235,-2.0581,-2.0946,-2.2639,-2.1119,-2.1485,-2.3918,-2.3062,-2.2604,-2.2446,-2.1604,-2.0641,-1.9614,-1.9614,-1.9485,-1.9305,-1.9305,-2.0682,-2.2611,-2.0136,-2.0404,-2.2016,-1.9463,-1.7613,-1.625,-1.5772,-1.435,-1.2672,-1.2525,-1.3938,-1.5646,-1.4984,-1.6431,-1.8284,-1.7946,-1.7759,-1.7346,-1.5964,-1.4535,-1.3054,-1.1599,-1.0404,-0.9204,-0.7688,-0.7338,-0.7693,-0.8898,-0.9291,-1.0127,-1.2443,-1.3927,-1.5229,-1.6464,-1.8017,-1.9457,-2.0481,-2.0938,-2.1209,-2.1236,-2.1506,-2.1795,-2.2129,-2.2243,-2.2168,-2.1881,-2.1027,-2.0799,-2.1425,-2.0891,-2.11,-2.2331,-2.176,-2.2207,-2.389,-2.4083,-2.4563,-2.5372,-2.5335,-2.5344,-2.5408,-2.5406,-2.5405,-2.54,-2.5407,-2.5406,-2.5394,-2.5463,-2.543,-2.5323,-2.5531,-2.5483,-2.5298,-2.517,-2.5207,-2.5253,0.0,0.0,0.0,0.0,0.0,0.0,0.0,0.0,0.0,0.0,0.0,0.0,0.0,0.0,0.0,0.0,0.0,0.0,-1.3026,-1.4959,-1.6867,-1.8581,-1.8465,-1.9177,-2.0908,-2.0523,-2.0619,-2.1273,-2.0908,-2.069,-2.0661,-2.0224,-1.9894,-1.9614,-1.9614,-1.9485,-1.9305,-1.9471,-1.9793,-2.0063,-1.8027,-1.7555,-1.8015,-1.7628,-1.6498,-1.5193,-1.5584,-1.4997,-1.4093,-1.4582,-1.6221,-1.8115,-1.8481,-1.8843,-1.8985,-1.8361,-1.8173,-1.7837,-1.6145,-1.5931,-1.5682,-1.364,-1.2832,-1.2232,-1.1168,-1.0867,-1.0886,-1.1176,-1.1971,-1.2876,-1.3709,-1.5271,-1.6349,-1.6199,-1.7655,-1.8944,-1.9358,-1.9644,-2.0007,-2.0567,-2.1034,-2.146,-2.1795,-2.2074,-2.2728,-2.3915,-2.2891,-2.2695,-2.3843,-2.2914,-2.2698,-2.3467,-2.2171,-2.2307,-2.403,-2.4675,-2.5062,-2.5176,-2.535,-2.5481,-2.5544,-2.5543,-2.5528,-2.5472,-2.5421,-2.5368,-2.5339,-2.5459,-2.5474,-2.5464,-2.5613,-2.5583,-2.545,-2.5413,-2.5364,-2.5293,0.0,0.0,0.0,0.0,0.0,0.0,0.0,0.0,0.0,0.0,0.0,0.0,0.0,0.0,0.0,0.0,0.0,0.0,0.0,-1.3398,-1.4769,-1.6522,-1.6234,-1.6676,-1.8035,-1.7689,-1.8035,-1.9158,-1.8631,-1.8543,-1.885,-1.8272,-1.7789,-1.7355,-1.7355,-1.7304,-1.7211,-1.7317,-1.79,0.0,0.0,-1.6226,-1.7016,-1.6058,-1.4719,-1.3504,-1.4519,-1.5072,-1.5401,-1.5914,-1.7337,-1.8961,-1.9401,-1.9588,-1.9601,-1.936,-1.917,-1.887,-1.7908,-1.7608,-1.7223,-1.5762,-1.5012,-1.4281,-1.3042,-1.2855,-1.2936,-1.3004,-1.3606,-1.418,-1.4312,-1.6269,-1.7548,-1.6708,-1.8839,-2.0491,-2.0241,-2.0629,-2.0666,-2.0027,-2.0753,-2.1225,-2.1101,-2.2112,-2.3253,-2.4409,-2.3705,-2.3708,-2.4839,-2.3544,-2.3139,-2.3967,-2.2361,-2.235,-2.4121,-2.4848,-2.526,-2.5318,-2.5446,-2.5533,-2.5605,-2.5564,-2.5526,-2.5459,-2.5415,-2.5371,-2.5303,-2.5401,-2.5443,-2.544,-2.5554,-2.5525,-2.543,-2.5457,-2.5391,-2.5303,0.0,0.0,0.0,0.0,0.0,0.0,0.0,0.0,0.0,-1.0412,-1.0128,-0.9979,-0.9869,-0.9954,0.0,0.0,0.0,0.0,0.0,0.0,-1.3016,-1.4774,-1.4121,-1.4178,-1.517,-1.4459,-1.5151,-1.7343,-1.6532,-1.6432,-1.7018,-1.6194,-1.5346,-1.4488,-1.4488,-1.4488,-1.4488,-1.4488,-1.571,-1.7417,-1.5123,-1.5373,-1.686,0.0,-1.2738,-1.1872,-1.3436,-1.5023,-1.6427,-1.6809,-1.7832,-1.8975,-1.9154,-1.9588,-2.0142,-2.0544,-2.0381,-2.0145,-2.0282,-1.9379,-1.8371,-1.8007,-1.7149,-1.6034,-1.4588,-1.4417,-1.4607,-1.4567,-1.4788,-1.4961,-1.4683,-1.6987,-1.8556,-1.7533,-2.0399,-2.2524,-2.1807,-2.2434,-2.2157,-2.0007,-2.082,-2.1298,-2.0698,-2.2379,-2.3701,-2.4178,-2.4098,-2.4312,-2.5031,-2.3659,-2.3225,-2.4072,-2.2752,-2.2713,-2.4199,-2.4833,-2.5298,-2.5601,-2.5521,-2.5547,-2.5592,-2.5525,-2.5454,-2.5415,-2.5389,-2.5364,-2.5322,-2.5395,-2.5363,-2.5323,-2.545,-2.5425,-2.5313,-2.5383,-2.5363,-2.5313,0.0,0.0,0.0,0.0,0.0,0.0,0.0,0.0,0.0,0.0,-1.284,-1.1663,0.0,0.0,0.0,0.0,0.0,0.0,0.0,0.0,0.0,-1.2965,-1.285,-1.3505,-1.5151,-1.5055,-1.5152,-1.5555,-1.5277,-1.5149,-1.5151,-1.4884,-1.4662,-1.4488,-1.4488,-1.4488,-1.4488,-1.4488,-1.4744,-1.4964,-1.3214,-1.2745,-1.2981,-1.1852,0.0,0.0,-1.4633,-1.5871,-1.6447,-1.782,-1.8694,-1.9407,-2.0484,-2.0609,-2.0532,-2.1217,-2.1322,-2.1171,-2.0927,-2.0895,-2.0767,-2.0255,-1.9621,-1.8948,-1.8295,-1.7953,-1.7436,-1.6128,-1.6604,-1.6889,-1.5704,-1.7309,-1.8585,-1.7896,-1.9922,-2.1521,-2.1273,-2.2044,-2.2392,-2.1721,-2.1971,-2.2298,-2.2444,-2.3082,-2.386,-2.4786,-2.5024,-2.517,-2.5324,-2.4898,-2.4486,-2.411,-2.4505,-2.4559,-2.4199,-2.5026,-2.5483,-2.5601,-2.5538,-2.5545,-2.5595,-2.5461,-2.5449,-2.5481,-2.542,-2.5386,-2.5391,-2.5459,-2.544,-2.5395,-2.5468,-2.5451,-2.5381,-2.5406,-2.5354,-2.5303,0.0,0.0,0.0,0.0,0.0,0.0,0.0,-1.5989,-1.6901,-1.9578,-1.8484,-1.6501,-1.3992,-1.2651,-1.1939,0.0,0.0,0.0,0.0,0.0,0.0,-1.1775,-1.1424,-1.1602,-1.2476,-1.2526,-1.2746,-1.3118,0.0,-1.2489,-1.282,-1.2253,-1.2003,-1.2003,-1.2003,-1.2003,-1.2003,-1.2003,-1.2003,-1.1966,-1.1618,-1.1434,-1.1387,-1.1405,0.0,0.0,-1.4988,-1.629,-1.7275,-1.779,-1.8781,-1.9929,-2.0767,-2.1036,-2.1167,-2.1938,-2.2012,-2.1807,-2.1869,-2.1877,-2.1898,-2.1993,-2.1686,-2.1128,-2.0027,-1.9777,-1.9168,-1.6886,-1.7269,-1.7372,-1.531,-1.7195,-1.8543,-1.7001,-1.9159,-2.102,-2.0986,-2.1963,-2.2583,-2.2303,-2.307,-2.3533,-2.3247,-2.3863,-2.4545,-2.5159,-2.536,-2.5434,-2.5398,-2.4915,-2.4273,-2.3508,-2.4319,-2.4626,-2.4315,-2.5134,-2.5595,-2.5658,-2.5573,-2.5564,-2.5601,-2.5503,-2.5466,-2.5508,-2.5466,-2.5441,-2.5394,-2.5434,-2.5413,-2.5337,-2.5376,-2.5387,-2.5357,-2.5357,-2.5337,-2.5354,0.0,0.0,0.0,0.0,0.0,0.0,0.0,-1.8918,-2.0259,-2.4034,-2.3512,-2.1194,-1.7045,-1.4424,-1.2782,0.0,0.0,0.0,0.0,0.0,0.0,0.0,0.0,0.0,-0.9997,0.0,0.0,-1.0997,-1.0254,0.0,0.0,0.0,0.0,0.0,-1.0131,-1.0121,-0.9955,-0.9955,-0.9955,0.0,0.0,-1.0885,-1.1025,0.0,0.0,0.0,0.0,-1.6324,-1.7656,-1.7583,-1.857,-1.9936,-2.06,-2.119,-2.1774,-2.2571,-2.2635,-2.2487,-2.2729,-2.2688,-2.27,-2.3239,-2.3254,-2.2709,-2.1104,-2.088,-2.0215,-1.7443,-1.7455,-1.7351,-1.5282,-1.7061,-1.8326,-1.6799,-1.9012,-2.0933,-2.1036,-2.2263,-2.3033,-2.2685,-2.4126,-2.478,-2.3904,-2.4739,-2.5348,-2.5387,-2.564,-2.5687,-2.5441,-2.4845,-2.4185,-2.3475,-2.4147,-2.4559,-2.4668,-2.5297,-2.5658,-2.5703,-2.5629,-2.557,-2.559,-2.5484,-2.5477,-2.5504,-2.5504,-2.5473,-2.5421,-2.5415,-2.5379,-2.5303,-2.5303,-2.5303,-2.5303,-2.5303,-2.5329,-2.5394,0.0,0.0,0.0,0.0,0.0,0.0,0.0,-1.881,-2.0935,-2.5662,-2.4927,-2.3212,-2.1319,-1.8518,-1.5971,0.0,0.0,0.0,0.0,0.0,0.0,0.0,0.0,0.0,0.0,0.0,0.0,-1.0024,-0.9936,0.0,0.0,0.0,0.0,0.0,0.0,-1.1471,-1.0783,-1.0783,0.0,0.0,0.0,0.0,0.0,0.0,0.0,0.0,0.0,-1.5784,-1.6467,-1.7651,-1.8273,-1.8803,-2.0115,-2.1236,-2.2192,-2.2953,-2.3328,-2.3482,-2.3212,-2.348,-2.3836,-2.3912,-2.3912,-2.3547,-2.2171,-2.1587,-2.0661,-1.8192,-1.7436,-1.7195,-1.7206,-1.7236,-1.7753,-1.9105,-2.0451,-2.1368,-2.1443,-2.3121,-2.4099,-2.3468,-2.5029,-2.5825,-2.496,-2.5833,-2.613,-2.5361,-2.6152,-2.6353,-2.5629,-2.5515,-2.5418,-2.527,-2.5398,-2.5478,-2.5486,-2.5621,-2.5683,-2.5703,-2.5564,-2.5517,-2.5493,-2.5387,-2.5372,-2.5507,-2.5507,-2.5505,-2.5484,-2.5484,-2.5427,-2.5303,-2.5303,-2.5303,-2.5303,-2.5303,-2.5329,-2.5401,0.0,0.0,0.0,0.0,0.0,0.0,-1.9896,-2.0355,-2.2356,-2.8527,-2.7829,-2.6056,-2.4247,-2.1404,-1.8052,-1.4075,0.0,0.0,0.0,0.0,0.0,0.0,0.0,0.0,0.0,0.0,-1.1471,-1.1395,-1.1395,0.0,0.0,0.0,0.0,0.0,0.0,-1.1493,-1.0803,-1.1118,0.0,0.0,0.0,0.0,0.0,0.0,0.0,0.0,0.0,0.0,-1.6979,-1.8046,-1.9039,-1.9862,-1.9926,-2.0917,-2.2136,-2.2614,-2.3228,-2.3696,-2.3687,-2.4063,-2.4484,-2.4484,-2.4092,-2.34,-2.2268,-2.1406,-2.0277,-1.8216,-1.8053,-1.8093,-1.7595,-1.7488,-1.7861,-1.9075,-1.936,-1.9794,-2.0923,-2.2301,-2.3121,-2.2912,-2.4129,-2.4828,-2.4493,-2.4841,-2.5389,-2.6088,-2.6587,-2.6718,-2.6398,-2.6381,-2.6378,-2.6341,-2.5869,-2.5629,-2.566,-2.5683,-2.5703,-2.5703,-2.5561,-2.5493,-2.5508,-2.5363,-2.536,-2.5493,-2.5493,-2.5515,-2.5558,-2.5558,-2.5493,-2.5415,-2.5415,-2.5415,-2.5415,-2.5415,-2.5451,-2.5511,0.0,0.0,0.0,0.0,0.0,-1.5257,-2.0788,-2.1173,-2.3089,-2.9367,-2.8716,-2.7137,-2.5742,-2.2361,-1.8761,-1.5155,-1.4263,0.0,0.0,0.0,0.0,0.0,0.0,0.0,0.0,0.0,-1.2451,-1.2402,-1.2402,-1.2175,0.0,0.0,-1.2231,-1.2026,0.0,0.0,0.0,0.0,0.0,0.0,0.0,0.0,0.0,0.0,0.0,0.0,0.0,0.0,0.0,0.0,0.0,-2.0396,-1.9708,-2.0445,-2.1752,-2.2795,-2.3361,-2.3785,-2.4413,-2.4717,-2.4869,-2.4869,-2.4166,-2.3261,-2.2309,-2.1257,-2.0067,-1.8565,-1.8453,-1.8515,-1.8122,-1.7868,-1.8025,-1.8941,-1.8987,-1.936,-2.0695,-2.1947,-2.2714,-2.259,-2.3909,-2.4649,-2.4149,-2.4322,-2.5177,-2.6908,-2.7181,-2.7362,-2.7605,-2.7418,-2.7079,-2.6552,-2.5945,-2.5659,-2.5703,-2.5703,-2.5703,-2.5703,-2.5573,-2.5526,-2.5508,-2.5376,-2.5391,-2.5493,-2.5493,-2.5549,-2.5601,-2.5601,-2.5561,-2.5493,-2.5472,-2.5488,-2.5493,-2.5449,-2.5512,-2.5603,0.0,0.0,0.0,0.0,0.0,0.0,-1.9343,-2.0686,-2.2784,-2.7266,-2.6556,-2.5625,-2.5609,-2.0957,-1.7805,-1.776,-1.5384,0.0,0.0,0.0,0.0,0.0,0.0,0.0,0.0,0.0,-1.2402,-1.2402,-1.2402,-1.2122,-1.1624,-1.2544,-1.2822,-1.2522,0.0,0.0,0.0,0.0,0.0,0.0,0.0,0.0,0.0,0.0,0.0,0.0,0.0,0.0,0.0,0.0,0.0,0.0,0.0,-1.9858,-2.1046,-2.3696,-2.402,-2.3856,-2.5525,-2.5498,-2.501,-2.501,-2.4239,-2.3288,-2.2489,-2.1361,-2.0264,-1.9455,-1.8507,-1.8102,-1.9094,-1.8455,-1.8136,-1.9127,-2.0137,-2.0858,-2.1066,-2.265,-2.3537,-2.2871,-2.5024,-2.5928,-2.4264,-2.4812,-2.6005,-2.7755,-2.8022,0.0,-2.9232,-2.8654,-2.748,-2.5762,-2.5703,-2.5703,-2.5703,-2.5703,-2.5703,-2.5703,-2.5633,-2.5561,-2.5508,-2.5421,-2.5434,-2.5493,-2.5493,-2.5549,-2.5601,-2.5601,-2.5561,-2.5498,-2.5431,-2.5441,-2.5488,-2.5345,-2.5425,-2.5586,0.0,0.0,0.0,0.0,0.0,0.0,0.0,-1.7523,-1.8792,-2.2767,-2.2412,-2.1989,-2.253,-1.9722,-1.7608,-1.7084,-1.4985,0.0,0.0,0.0,0.0,0.0,0.0,0.0,0.0,0.0,-1.4569,-1.5743,-1.5664,-1.5625,-1.5624,-1.5501,-1.4959,-1.4069,-1.3818,-1.3258,0.0,0.0,0.0,0.0,0.0,0.0,0.0,0.0,0.0,0.0,0.0,0.0,0.0,0.0,0.0,0.0,0.0,0.0,0.0,-2.2283,-2.3098,-2.3371,-2.346,-2.3712,-2.3885,-2.3462,-2.2508,-2.1601,-2.1339,-2.0455,-1.9601,-1.9344,-1.9057,-1.8932,-1.9234,-1.8584,-1.8843,-2.1401,-2.1294,-2.1456,-2.3123,-2.413,-2.3946,-2.1932,-2.3065,-2.4024,-2.4091,-2.4874,-2.6094,-2.7843,-2.8101,-2.8278,-2.8521,-2.8392,-2.7773,-2.6621,-2.6016,-2.5703,-2.5703,-2.5703,-2.5703,-2.5703,-2.5634,-2.5561,-2.5508,-2.5428,-2.5434,-2.5493,-2.5493,-2.5556,-2.5662,-2.5662,-2.5659,-2.5636,-2.5602,-2.562,-2.5637,-2.5585,-2.5605,-2.5662,0.0,0.0,0.0,0.0,0.0,0.0,0.0,-1.612,-1.705,-1.9942,-1.9418,-1.9384,-2.1034,-1.8166,-1.6407,-1.705,-1.4912,0.0,0.0,0.0,0.0,0.0,0.0,0.0,-1.4709,-1.4698,-1.5828,-1.8141,-1.8037,-1.8437,-1.9229,-1.8574,-1.7276,-1.5481,-1.4692,-1.38,0.0,0.0,0.0,0.0,0.0,0.0,-1.4038,0.0,0.0,0.0,0.0,0.0,0.0,0.0,0.0,0.0,0.0,0.0,0.0,0.0,-2.1682,-2.2428,-2.2706,-2.2911,-2.2956,-2.2574,-2.1626,-2.0793,-2.0793,-1.98,-1.8849,-1.8849,-1.8353,-1.8023,-1.8335,-1.7748,-1.806,-2.0721,-2.0517,-2.0864,-2.3266,-2.3689,-2.3379,-2.2411,-2.2882,-2.3627,0.0,-2.5383,-2.65,-2.7925,-2.8139,-2.8198,-2.8193,-2.7945,-2.7402,-2.6543,-2.5977,-2.5703,-2.5703,-2.5703,-2.5703,-2.5703,-2.566,-2.5603,-2.5543,-2.5477,-2.5465,-2.5493,-2.5493,-2.5561,0.0,-2.5683,-2.5703,-2.5703,-2.5662,-2.5683,-2.5683,-2.5637,-2.5659,-2.5684,0.0,0.0,0.0,0.0,0.0,0.0,0.0,-1.6018,-1.697,-1.8318,-1.7325,-1.7529,-2.034,-1.6309,-1.4496,-1.7253,0.0,0.0,0.0,0.0,0.0,0.0,0.0,0.0,-1.4412,-1.4598,-1.6313,-1.9602,-1.9643,-2.0584,-2.2331,-2.1594,-1.9675,-1.6817,-1.6018,-1.4817,-1.3329,0.0,0.0,0.0,-1.2704,-1.3071,0.0,0.0,0.0,0.0,0.0,0.0,0.0,0.0,0.0,0.0,0.0,0.0,0.0,0.0,0.0,0.0,0.0,-2.2716,-2.2174,-2.2117,-2.1384,-2.0704,-2.0704,-1.9397,0.0,-1.8115,-1.6903,-1.6096,-1.688,-1.6402,-1.6452,-1.8213,-1.8721,-1.973,-2.2206,-2.2036,-2.2303,-2.4072,-2.4168,-2.4493,-2.548,-2.6207,-2.6993,-2.7929,-2.8053,-2.8098,-2.8093,-2.7396,-2.6581,-2.5703,-2.5683,-2.5703,-2.5703,-2.5703,-2.5703,-2.5703,-2.5703,-2.5661,-2.5601,-2.5543,-2.5493,-2.5493,-2.5493,-2.5543,-2.5601,-2.566,-2.5683,-2.5683,-2.5611,-2.5636,-2.5683,-2.5558,-2.5598,-2.5684,0.0,0.0,0.0,0.0,0.0,0.0,0.0,0.0,0.0,0.0,-1.4395,-1.4446,-1.5158,-1.4141,-1.3684,0.0,0.0,0.0,0.0,0.0,0.0,0.0,0.0,0.0,-1.4619,-1.4581,-1.6485,-2.0418,-2.0981,-2.2441,-2.4676,-2.3987,-2.1779,-1.8318,-1.7037,-1.531,-1.3396,-1.316,0.0,0.0,-1.3209,-1.3119,0.0,0.0,0.0,0.0,-1.6402,-1.7195,0.0,0.0,0.0,0.0,0.0,0.0,0.0,0.0,-1.9464,-1.9616,-1.9434,0.0,-2.1012,-2.0386,-1.995,-1.9656,0.0,-1.9316,-1.8831,-1.8225,-1.7803,-1.7642,-1.7987,-1.7882,-1.872,-2.1676,-2.1878,-2.2448,-2.4741,-2.4024,-2.3943,-2.5783,-2.488,-2.4947,-2.7104,-2.6346,-2.6067,-2.6967,-2.7084,-2.7136,-2.7132,-2.6954,-2.6451,-2.557,-2.5601,-2.5658,-2.5703,-2.5703,-2.5703,-2.5703,-2.5703,-2.5661,-2.5601,-2.5573,-2.5551,-2.5493,-2.5493,-2.5517,-2.5511,-2.5547,-2.559,-2.5611,-2.5605,-2.5636,-2.5703,-2.5661,-2.5662,-2.5683,0.0,0.0,0.0,0.0,0.0,0.0,0.0,0.0,0.0,0.0,0.0,0.0,0.0,0.0,0.0,0.0,0.0,0.0,0.0,0.0,0.0,0.0,0.0,-1.4087,-1.4185,-1.4208,-1.6656,-2.1619,-2.2008,-2.4197,-2.7969,-2.6676,-2.4003,-2.0078,-1.67,-1.4514,-1.3379,-1.2941,-1.3008,-1.3362,-1.2924,0.0,0.0,0.0,0.0,0.0,-1.5825,-1.6843,0.0,-1.9056,-1.9527,-1.9409,0.0,0.0,0.0,0.0,-1.9166,-1.9043,-1.8491,-1.9206,-2.0018,-1.9563,-1.938,-1.9399,-1.9767,-1.9271,-1.8519,-1.7715,-1.727,-1.7062,-1.723,-1.7576,-1.8708,-2.1356,-2.1947,-2.2885,-2.5279,-2.5982,-2.6316,-2.6572,-2.614,-2.6073,0.0,-2.6293,-2.6197,-2.6708,-2.6787,-2.6802,-2.6802,-2.6413,-2.598,-2.5513,-2.5543,-2.5595,-2.5659,-2.5683,-2.5703,-2.5703,-2.5703,-2.5683,-2.5637,-2.5573,-2.5554,-2.5547,-2.5503,-2.5493,-2.5493,-2.5539,-2.5551,-2.5558,-2.5595,-2.5611,-2.566,-2.5683,-2.5703,-2.5683,0.0,0.0,0.0,0.0,0.0,0.0,0.0,0.0,0.0,0.0,0.0,0.0,0.0,0.0,0.0,0.0,0.0,0.0,0.0,0.0,0.0,0.0,0.0,-1.3903,-1.3995,-1.3947,-1.6691,-2.2313,-2.2715,-2.5447,-3.0279,-2.9094,-2.6091,-2.1475,-1.6257,-1.3732,-1.3346,-1.2556,-1.2673,-1.3329,-1.2523,0.0,0.0,0.0,0.0,0.0,0.0,0.0,0.0,-1.883,-1.9369,-1.936,-1.9313,0.0,0.0,0.0,0.0,0.0,-1.8858,-1.911,-1.9408,-1.928,-1.9274,-1.9473,-2.017,-1.9271,-1.806,-1.7257,-1.6536,-1.6159,-1.6429,-1.718,-1.8396,-2.0199,-2.1337,-2.2681,-2.4649,-2.7005,-2.8044,-2.6755,-2.7121,0.0,-2.5854,-2.6149,-2.6466,-2.652,-2.652,-2.6545,-2.6576,-2.5871,-2.5477,-2.5477,-2.5479,-2.5535,-2.5573,-2.5658,-2.5683,-2.5703,-2.5683,-2.5683,-2.5703,-2.5567,-2.5551,-2.5601,-2.5543,-2.5517,-2.5493,-2.5561,-2.5558,-2.5526,-2.5564,-2.5601,-2.5611,-2.5663,-2.5683,-2.5661,0.0,0.0,0.0,0.0,0.0,0.0,0.0,0.0,0.0,0.0,0.0,0.0,0.0,0.0,0.0,0.0,0.0,0.0,0.0,0.0,0.0,-1.2743,-1.3328,-1.4319,-1.5764,-1.4706,-1.6232,-2.0497,-2.2829,-2.523,-2.7731,-2.9864,-2.7444,-2.1147,-1.7831,-1.5265,-1.3396,-1.3261,-1.3278,-1.3396,-1.3227,0.0,0.0,0.0,0.0,0.0,0.0,0.0,0.0,-1.779,-1.8323,-1.8452,-1.9084,0.0,0.0,0.0,0.0,0.0,-1.9649,-1.9921,-1.9902,-1.9215,-1.9182,-1.9326,-1.9455,-1.9289,-1.8886,-1.8078,-1.7821,-1.8006,-1.888,-1.9832,-2.1093,-2.2913,-2.4049,-2.4351,-2.3331,-2.4736,-2.6063,-2.6544,-2.6082,-2.6118,-2.7158,-2.6048,-2.5264,-2.5267,-2.5278,-2.5339,-2.5523,-2.5407,-2.533,-2.533,-2.5441,-2.5498,-2.5526,-2.5573,-2.5637,-2.5703,-2.5637,-2.5657,-2.5703,-2.5629,-2.5595,-2.5601,-2.5595,-2.5554,-2.5493,-2.5503,-2.5547,-2.557,-2.552,-2.5573,-2.5663,-2.5566,-2.5563,-2.5601,0.0,0.0,0.0,0.0,0.0,0.0,0.0,0.0,0.0,0.0,0.0,0.0,0.0,0.0,0.0,0.0,0.0,0.0,0.0,0.0,0.0,-1.4778,-1.5105,-1.5408,-1.5644,-1.6221,-1.8503,-2.2532,-2.5732,-2.825,-3.0028,-2.8317,-2.4958,-2.0233,-1.6837,-1.4529,-1.3191,-1.3346,-1.3396,-1.3362,0.0,0.0,0.0,0.0,0.0,0.0,0.0,0.0,0.0,0.0,-1.6855,-1.7662,-1.7923,0.0,0.0,0.0,0.0,0.0,-1.881,-1.9076,-1.9306,-1.9186,-1.9775,-2.0498,-2.0934,-2.0698,-2.006,-1.8965,-1.9087,-1.9472,-1.9713,-2.1236,-2.3075,-2.5007,-2.6098,-2.6447,-2.5659,-2.6582,-2.7505,0.0,0.0,-2.6811,-2.7033,-2.591,-2.5163,-2.5163,-2.5057,-2.5088,-2.5303,-2.5203,-2.5192,-2.5303,-2.5398,-2.5471,-2.5489,-2.5539,-2.557,-2.5657,-2.5607,-2.5601,-2.5595,-2.5511,-2.5539,-2.5601,-2.5561,-2.5551,-2.5554,-2.5554,-2.5554,-2.5551,-2.5554,-2.5598,-2.564,-2.5584,-2.5544,-2.5539,0.0,0.0,0.0,0.0,0.0,0.0,0.0,0.0,0.0,0.0,0.0,0.0,0.0,0.0,0.0,0.0,0.0,0.0,0.0,0.0,-1.4172,-1.5925,-1.6619,-1.6997,-1.7119,-1.8572,-2.1224,-2.5091,-2.8384,-3.087,-3.2475,-2.7138,-2.2986,-1.9807,-1.6131,-1.395,-1.3013,-1.3208,-1.3346,-1.3345,0.0,0.0,0.0,0.0,0.0,0.0,0.0,0.0,0.0,0.0,0.0,0.0,0.0,0.0,0.0,-1.8771,-1.8604,-1.848,-1.842,-1.8648,-1.8986,-1.9425,-2.0138,-2.1075,-2.2247,-2.1742,-2.0934,-2.0525,-2.0794,-2.1055,-2.0984,-2.276,-2.4752,-2.6339,-2.7332,-2.7832,-2.7621,-2.8121,-2.8582,-2.8794,-2.7909,-2.7091,-2.6579,-2.5742,-2.5224,-2.5224,-2.5088,-2.5088,-2.5303,-2.5152,-2.5141,-2.5303,-2.5363,-2.5415,-2.5488,-2.5484,-2.552,-2.5601,-2.5564,-2.552,-2.5508,-2.5434,-2.5457,-2.5567,-2.5511,-2.5543,-2.5601,-2.5601,-2.557,-2.5554,-2.5595,-2.5586,-2.5577,-2.5572,-2.5539,-2.5477,0.0,0.0,0.0,0.0,0.0,0.0,0.0,0.0,0.0,0.0,0.0,0.0,0.0,0.0,0.0,0.0,0.0,0.0,0.0,0.0,-1.3558,-1.39,-1.6358,-1.9333,-2.2738,-2.2167,-2.3383,-2.656,-2.8996,-3.1011,-3.2488,-2.8064,-2.4108,-2.0578,-1.7389,-1.4853,-1.3013,-1.3031,-1.3173,-1.3345,-1.2601,0.0,0.0,0.0,0.0,0.0,0.0,0.0,0.0,0.0,0.0,0.0,0.0,0.0,-1.8679,-1.8914,-1.8604,-1.852,-1.9855,-1.9961,-1.98,-2.0154,-1.9688,-1.9741,-2.1994,-2.1347,-2.0952,-2.3345,-2.3309,-2.3087,-2.3994,-2.5229,-2.6211,-2.6561,-2.7332,-2.7621,-2.6813,0.0,-2.7082,-2.789,-2.6505,-2.5723,-2.6275,-2.5538,-2.5022,-2.5022,-2.501,-2.5088,-2.5303,-2.5293,-2.5293,-2.5303,-2.5363,-2.5406,-2.5401,-2.5477,-2.552,-2.5601,-2.5463,-2.5434,-2.5508,-2.5434,-2.5447,-2.5517,-2.5493,-2.5543,-2.5601,-2.5601,-2.5634,-2.5683,-2.5611,-2.5558,-2.5508,-2.5519,-2.5451,-2.5398,0.0,0.0,0.0,0.0,0.0,0.0,0.0,0.0,0.0,0.0,0.0,0.0,0.0,0.0,0.0,0.0,0.0,0.0,0.0,-1.3103,-1.3872,-1.5483,-1.7451,-1.9807,-2.2649,-2.5234,-2.7409,-2.9193,-3.0831,-3.1462,-3.1064,-2.6576,-2.2513,-1.8909,-1.7023,-1.5253,-1.3675,-1.3857,-1.3983,-1.3988,-1.2787,-1.1952,0.0,0.0,0.0,0.0,0.0,0.0,0.0,0.0,-1.2809,-1.4438,-1.497,-1.6741,-1.8497,-1.7965,-1.7359,-1.6907,-1.7312,-1.7914,-1.8411,-1.8339,-1.942,-2.0716,-2.1562,-2.155,-2.2057,-2.4461,-2.3511,-2.2604,-2.3731,-2.578,-2.7282,-2.7165,-2.7892,-2.816,-2.7268,-2.7153,-2.7527,-2.8533,-2.714,-2.6427,-2.7217,-2.6028,-2.5192,-2.5192,-2.5077,-2.5088,-2.5303,-2.5173,-2.5163,-2.5303,-2.5363,-2.5398,-2.5406,-2.5421,-2.5459,-2.5488,-2.5421,-2.5391,-2.5368,-2.5346,-2.5368,-2.5441,-2.5441,-2.5488,-2.5547,-2.5573,-2.5607,-2.5637,-2.5605,-2.5556,-2.5483,-2.5443,-2.5421,-2.5391,0.0,0.0,0.0,0.0,0.0,0.0,0.0,0.0,0.0,0.0,0.0,0.0,0.0,0.0,0.0,0.0,0.0,0.0,-1.2852,-1.2887,-1.3774,-1.5799,-1.7535,-1.9411,-2.1522,-2.6293,-2.9391,-3.0734,-3.2039,-3.1567,-2.9334,-2.5248,-2.1871,-1.9061,-1.7265,-1.6098,-1.5503,-1.5198,-1.5035,-1.4861,-1.3631,-1.2632,0.0,0.0,0.0,0.0,0.0,0.0,0.0,0.0,-1.1274,-1.3017,-1.3499,-1.5367,-1.7317,-1.6924,-1.6795,-1.6717,-1.6564,-1.7317,-1.8191,-1.8405,-1.9876,-2.1416,-2.192,-2.2159,-2.2919,-2.5283,-2.4321,-2.3355,-2.4441,-2.6102,-2.7319,-2.7381,-2.8108,-2.8464,-2.7861,-2.7861,-2.828,-2.9257,-2.7972,-2.7236,-2.7832,-2.6563,-2.5591,-2.5322,-2.5163,-2.5152,-2.5284,-2.5163,-2.5163,-2.5303,-2.5348,-2.5371,-2.5371,-2.5379,-2.5379,-2.5379,-2.5371,-2.5348,-2.5303,-2.5224,-2.5265,-2.536,-2.5307,-2.5352,-2.5463,-2.5526,-2.5548,-2.5579,-2.5598,-2.5558,-2.5484,-2.5428,-2.5394,-2.5391,0.0,0.0,0.0,0.0,0.0,0.0,0.0,0.0,0.0,0.0,0.0,0.0,0.0,0.0,0.0,0.0,0.0,0.0,-1.2591,-1.2591,-1.3032,-1.4038,-1.6199,-1.8184,-1.9917,-2.4884,-2.8519,-3.0785,-3.2298,-3.1098,-2.7382,-2.4388,-2.2582,-2.1732,-1.8477,-1.7609,-1.8485,-1.6951,-1.618,-1.594,-1.5192,-1.4061,-1.2718,0.0,0.0,0.0,0.0,0.0,0.0,0.0,-1.1107,-1.1425,-1.4493,-1.5139,-1.4978,-1.5901,-1.7195,-1.8359,-1.8419,-1.8856,-1.9618,-2.1,-2.1208,-2.1479,-2.3225,-2.3115,-2.3383,-2.6057,-2.6114,-2.5949,-2.673,-2.6422,-2.6287,-2.7081,-2.7888,-2.8397,-2.8397,-2.8643,-2.9103,-2.9904,-2.8765,-2.7909,-2.789,-2.7101,-2.6236,-2.536,-2.5303,-2.5303,-2.5303,-2.5303,-2.5313,-2.5313,-2.5313,-2.5313,-2.5313,-2.5303,-2.5303,-2.5303,-2.5303,-2.5303,-2.5284,-2.5088,-2.5099,-2.5274,-2.5088,-2.5157,-2.5406,-2.5406,-2.5444,-2.5508,-2.5572,-2.5558,-2.5484,-2.5421,-2.5406,-2.5383,0.0,0.0,0.0,0.0,0.0,0.0,0.0,0.0,0.0,0.0,0.0,0.0,0.0,0.0,0.0,0.0,0.0,0.0,-1.2312,-1.2312,-1.2625,-1.3291,-1.4949,-1.5937,-1.6133,-2.0415,-2.4713,-2.8885,-2.8552,-2.68,-2.3751,-2.2656,-2.1151,-1.9349,-1.9184,-1.8423,-1.7233,-1.6778,-1.6666,-1.6704,-1.5774,-1.4657,-1.3475,0.0,0.0,0.0,0.0,0.0,0.0,0.0,0.0,0.0,-1.2316,-1.346,-1.4386,-1.4433,-1.4197,-1.387,-1.3699,-1.5583,-1.769,-1.8009,-2.115,-2.4211,-2.4405,-2.4815,-2.5423,-2.6405,-2.7021,-2.7121,-2.6209,-2.6964,-2.7725,-2.783,-2.854,-2.9101,-2.9101,-2.9177,-2.9362,-2.9744,-2.9055,-2.8288,-2.7676,-2.6998,-2.6236,-2.536,-2.5303,-2.5303,-2.5303,-2.5348,-2.5371,-2.5371,-2.5379,-2.536,-2.536,-2.5312,-2.5303,-2.5303,-2.5303,-2.5224,-2.5088,-2.5022,-2.4993,-2.4949,-2.4974,-2.5038,-2.5147,-2.5369,-2.5459,-2.5436,-2.5499,-2.5465,-2.5354,-2.5339,-2.5321,-2.534,0.0,0.0,0.0,0.0,0.0,0.0,0.0,0.0,-1.1805,-1.1805,-1.1805,-1.1918,0.0,0.0,0.0,-1.2256,-1.1861,-1.1666,-1.1839,-1.1839,-1.2077,-1.2633,-1.3629,-1.4496,-1.5201,-1.8578,-2.1365,-2.3483,-2.4666,-2.387,-2.122,-2.2514,-2.2272,-2.08,-2.2079,-2.1431,-1.9316,-1.8748,-1.8107,-1.7498,-1.7199,-1.6052,-1.4446,0.0,0.0,0.0,0.0,0.0,0.0,0.0,0.0,0.0,-1.0697,-1.1645,-1.2704,-1.3813,-1.4124,-1.4381,-1.5519,-1.7436,-1.9403,-2.0433,-2.3023,-2.5509,-2.6092,-2.6064,-2.5932,-2.6096,-2.6608,-2.693,-2.6596,-2.7437,-2.822,-2.8431,-2.8892,-2.9246,-2.9246,-2.933,-2.9454,-2.957,-2.933,-2.8711,-2.7603,-2.7172,-2.6488,-2.538,-2.5303,-2.5313,-2.5339,-2.5387,-2.5406,-2.5398,-2.5406,-2.5391,-2.5363,-2.5331,-2.5303,-2.5303,-2.5303,-2.5171,-2.493,-2.493,-2.4883,-2.4804,-2.4877,-2.4949,-2.5015,-2.5275,-2.5375,-2.5379,-2.5465,-2.5415,-2.5303,-2.5303,-2.5303,-2.5303,0.0,0.0,0.0,0.0,0.0,0.0,0.0,-1.1805,-1.1805,-1.1805,-1.1805,-1.1805,0.0,0.0,0.0,-1.1833,-1.1512,-1.1296,-1.1296,-1.1296,-1.1535,-1.2041,-1.253,-1.3921,-1.6374,-1.8419,-1.8451,-1.6344,-2.0798,-2.1807,-1.9631,-2.3253,-2.4746,-2.4472,-2.583,-2.5222,-2.3088,-2.1353,-1.9699,-1.8239,-1.8733,-1.7555,-1.5431,-1.4689,0.0,0.0,0.0,0.0,0.0,0.0,0.0,0.0,-0.9649,-0.9967,-1.0435,-1.3466,-1.5606,-1.7634,-2.0606,-2.1907,-2.3076,-2.5714,-2.5771,-2.5722,-2.7699,-2.6749,-2.5509,-2.5676,-2.5678,-2.6101,-2.7622,-2.7915,-2.8154,-2.8865,-2.8994,-2.8994,-2.8994,-2.9203,-2.9372,-2.9372,-2.9495,-2.8992,-2.7571,-2.7404,-2.6778,-2.5379,-2.5274,-2.5303,-2.5403,-2.5398,-2.5406,-2.5398,-2.5379,-2.5352,-2.5293,-2.5274,-2.5274,-2.5274,-2.5284,-2.5126,-2.4804,-2.4771,-2.4741,-2.4727,-2.4727,-2.4836,-2.5015,-2.5136,-2.5245,-2.5312,-2.5447,-2.5415,-2.5303,-2.5303,-2.5313,-2.5303,0.0,0.0,0.0,0.0,0.0,0.0,-1.1805,-1.1805,-1.1805,-1.1805,-1.1805,-1.1891,-1.2086,-1.1933,0.0,-1.2102,-1.1608,-1.1296,-1.1296,-1.1296,-1.1461,-1.177,-1.3312,-1.5153,-1.7274,-1.6595,-1.5871,-1.5167,-1.77,-1.8749,-1.8453,-2.2116,-2.3785,-2.3663,-2.4292,-2.3502,-2.1448,-1.7916,-1.7091,-1.808,-1.6597,-1.5832,-1.5382,-1.3677,-1.1877,0.0,0.0,0.0,0.0,0.0,0.0,0.0,-0.9544,-0.9662,-0.9552,-1.0649,-1.2312,-1.4028,-1.5146,-1.8297,-2.1649,-2.336,-2.488,-2.5993,-2.61,-2.602,-2.6368,-2.7907,-2.7714,-2.7585,-2.8576,-2.8741,-2.8792,-2.8957,-2.8994,-2.8994,-2.8994,-2.9044,-2.9089,-2.9089,-2.8699,-2.8054,-2.7118,-2.6607,-2.5972,-2.5141,-2.5057,-2.5133,-2.5303,-2.5379,-2.5398,-2.5398,-2.5249,-2.5149,-2.5139,-2.5094,-2.5057,-2.5077,-2.5224,-2.5126,-2.479,-2.4526,-2.431,-2.4173,-2.4173,-2.4492,-2.5003,-2.5081,-2.5227,-2.5398,-2.5468,-2.5449,-2.5376,-2.5387,-2.5348,-2.5303,0.0,0.0,0.0,0.0,0.0,0.0,0.0,0.0,-1.1805,-1.1805,-1.1805,-1.1854,-1.1982,-1.1747,0.0,0.0,-1.1047,-1.0647,-1.0855,-1.0685,-1.0926,-1.1664,-1.3472,-1.4546,-1.4782,-1.4511,-1.3899,-1.2925,-1.4727,-1.6192,-1.7428,-2.1195,-2.3126,-2.3444,-2.4195,-2.2829,-1.9866,-1.7831,-1.6802,-1.6567,-1.6485,-1.5847,-1.4836,-1.3528,-1.1829,-0.9996,-0.87,0.0,0.0,0.0,0.0,0.0,0.0,0.0,-0.9097,-1.0605,-1.1948,-1.3505,-1.6144,-1.9132,-2.2054,-2.4242,-2.5504,-2.6161,-2.6098,-2.6387,-2.7012,-2.8182,-2.8081,-2.8044,-2.8847,-2.8994,-2.8994,-2.8994,-2.8994,-2.8994,-2.8994,-2.8994,-2.8994,-2.8994,-2.8378,-2.7692,-2.6972,-2.626,-2.5608,-2.5043,-2.501,-2.5102,-2.5337,-2.5376,-2.5364,-2.5249,-2.5158,-2.5041,-2.4965,-2.4991,-2.501,-2.501,-2.5203,-2.5053,-2.4561,-2.419,-2.3871,-2.3645,-2.3787,-2.41,-2.4531,-2.4846,-2.5056,-2.523,-2.5393,-2.5422,-2.5406,-2.5368,-2.5348,-2.5348,0.0,0.0,0.0,0.0,0.0,0.0,0.0,0.0,0.0,-1.1805,-1.1805,-1.1783,-1.1725,-1.1468,-1.125,0.0,0.0,0.0,-1.0184,-0.9957,-1.0371,-1.1649,-1.3197,-1.3403,-1.2068,-1.2862,-1.261,-1.1203,-1.2486,-1.4335,-1.6804,-2.0526,-2.2605,-2.3248,-2.41,-2.233,-1.8593,-1.8048,-1.6522,-1.4594,-1.5991,-1.5455,-1.3733,-1.312,-1.1648,-0.9758,-0.8539,-0.8115,-0.8158,-0.8158,0.0,0.0,0.0,0.0,-0.8823,-1.0941,-1.2209,-1.3778,-1.7815,-2.0437,-2.2785,-2.5933,-2.6439,-2.6295,-2.6609,-2.702,-2.7393,-2.7724,-2.7787,-2.8044,-2.8847,-2.8906,-2.8851,-2.8975,-2.8994,-2.8994,-2.8994,-2.8994,-2.8994,-2.8994,-2.8282,-2.7543,-2.6914,-2.6117,-2.5471,-2.4994,-2.4962,-2.5083,-2.5376,-2.5383,-2.5297,-2.5091,-2.507,-2.4946,-2.4746,-2.4904,-2.4962,-2.4962,-2.5152,-2.4924,-2.429,-2.387,-2.3504,-2.3212,-2.3414,-2.3663,-2.3951,-2.4403,-2.469,-2.4919,-2.5182,-2.532,-2.5357,-2.5343,-2.5365,-2.5383,0.0,0.0,0.0,0.0,0.0,0.0,0.0,0.0,0.0,0.0,-1.1805,-1.1681,-1.14,-1.1318,-1.1075,-1.0478,-0.9729,-0.9317,-0.9444,0.0,0.0,-1.1635,-1.2526,-1.3151,-1.3413,-1.2794,-1.2436,-1.2377,-1.2306,-1.3964,-1.7275,-2.0369,-2.2013,-2.2345,-2.2239,-2.0718,-1.8049,-1.4498,-1.3063,-1.304,-1.1671,-1.1402,-1.1674,-1.0746,-0.9916,-0.9142,-0.8369,-0.8211,-0.8361,-0.8361,-0.8361,0.0,0.0,0.0,-0.844,-0.8609,-1.0319,-1.2253,-1.2738,-1.7007,-2.218,-2.5812,-2.6439,-2.6295,-2.6609,-2.702,-2.7393,-2.7724,-2.7787,-2.8044,-2.8847,-2.8429,-2.8191,-2.8906,-2.8994,-2.8994,-2.8994,-2.8994,-2.8994,-2.8994,-2.8282,-2.7497,-2.6709,-2.5921,-2.5263,-2.4861,-2.4832,-2.4975,-2.5303,-2.5313,-2.5215,-2.5027,-2.4898,-2.4737,-2.4526,-2.4727,-2.4832,-2.4828,-2.4981,-2.4769,-2.4271,-2.376,-2.3414,-2.3189,-2.2947,-2.3118,-2.3578,-2.3644,-2.4002,-2.4492,-2.4706,-2.4974,-2.5244,-2.541,-2.5437,-2.5398,0.0,0.0,0.0,0.0,0.0,0.0,0.0,0.0,0.0,0.0,0.0,-1.1681,-1.1341,-1.0968,-1.0551,-1.007,-0.8997,-0.8259,-0.8014,-0.8759,-0.9441,-0.9992,-1.0712,-1.116,-1.1228,-1.0619,-1.0343,-1.0461,-1.0544,-1.2298,-1.5682,-1.7741,-1.9931,-2.2016,-2.0525,-1.8428,-1.5934,-1.3913,-1.2335,-1.1218,-1.1093,-1.1902,-1.2968,-1.082,-1.0579,-1.1075,-0.9,-0.8399,-0.8554,-0.8441,-0.8479,-0.8567,-0.8567,0.0,0.0,0.0,-0.944,-1.1254,-1.4521,-1.8153,-2.2012,-2.6031,-2.6937,-2.6964,-2.7531,-2.7795,-2.8039,-2.8398,-2.8117,-2.8044,-2.8847,-2.8723,-2.8594,-2.8938,-2.8994,-2.8994,-2.8994,-2.8994,-2.8994,-2.8994,-2.8399,-2.7838,-2.7468,-2.6414,-2.5705,-2.5663,-2.5183,-2.5037,-2.5293,-2.5303,-2.5214,-2.501,-2.4883,-2.47,-2.4512,-2.47,-2.4883,-2.508,-2.503,-2.4847,-2.4561,-2.4026,-2.3462,-2.2923,-2.2772,-2.272,-2.2758,-2.328,-2.3611,-2.384,-2.4421,-2.4858,-2.5168,-2.5322,-2.5395,-2.5381,0.0,0.0,0.0,0.0,0.0,0.0,0.0,0.0,0.0,0.0,0.0,-1.1512,-1.1098,0.0,0.0,0.0,-0.8112,-0.7163,-0.6629,-0.7756,-0.836,-0.8214,-0.9071,-0.9351,-0.8896,-0.8581,-0.8555,-0.8789,-0.9264,-1.1358,-1.4955,-1.6112,-1.8575,-2.1808,-1.9508,-1.699,-1.4448,-1.3643,-1.2096,-1.0312,-1.1526,-1.2857,-1.4004,-1.2487,-1.2886,-1.3835,-1.0699,-0.9727,-0.9749,-0.8849,-0.8628,-0.8748,-0.8748,-0.8683,0.0,0.0,0.0,-0.9521,-1.5141,-1.7657,-1.9841,-2.4722,-2.6191,-2.6754,-2.786,-2.8272,-2.8489,0.0,-2.8434,-2.8282,-2.8906,-2.881,-2.8778,-2.8957,-2.8994,-2.8994,-2.8994,-2.8994,-2.8994,-2.8994,-2.8672,-2.8351,-2.8128,-2.7203,-2.6631,-2.6638,-2.5831,-2.5413,-2.563,-2.5418,-2.5214,-2.501,-2.4904,-2.4756,-2.4575,-2.4756,-2.5,-2.5303,-2.5099,-2.4943,-2.479,-2.4244,-2.3608,-2.2947,-2.2772,-2.2521,-2.23,-2.294,-2.3173,-2.3221,-2.3934,-2.4488,-2.4946,-2.5113,-2.5273,-2.5366,0.0,0.0,0.0,0.0,0.0,0.0,0.0,0.0,0.0,0.0,0.0,-1.1075,-1.043,-0.9704,-0.8855,-0.7897,-0.6984,-0.618,-0.5512,-0.6892,-0.7472,-0.6847,-0.8116,0.0,-0.7802,-0.7694,-0.8047,-0.8789,-0.9466,-1.2139,-1.6689,-1.7205,-1.8959,-2.1624,-1.9576,-1.7223,-1.4656,-1.2703,-1.1565,-1.1128,-1.2135,-1.2732,-1.3293,-1.5911,-1.7103,-1.6959,-1.3934,-1.2991,-1.272,-0.9844,-0.888,-0.888,-0.888,-0.8407,-0.7808,0.0,0.0,0.0,-1.0975,-1.239,-1.413,-2.0663,-2.3226,-2.4736,-2.6861,-2.789,-2.842,-2.842,-2.8713,-2.8938,-2.8975,-2.8374,-2.8117,-2.8865,-2.8994,-2.8994,-2.8994,-2.8994,-2.8994,-2.8994,-2.9188,-2.9003,-2.8184,-2.8272,-2.8127,-2.7567,-2.6727,-2.6312,-2.6514,-2.5755,-2.5214,-2.501,-2.4998,-2.4911,-2.479,-2.4911,-2.5088,-2.5303,-2.5099,-2.4943,-2.479,-2.4244,-2.3868,-2.361,-2.2972,-2.2695,-2.2643,-2.2436,-2.25,-2.2762,-2.3,-2.3655,-2.4458,-2.4725,-2.5068,-2.533,0.0,0.0,0.0,0.0,0.0,0.0,0.0,0.0,0.0,0.0,0.0,0.0,0.0,-0.9317,-0.8568,-0.7763,-0.6519,-0.5468,-0.4815,-0.5667,-0.6242,-0.6311,-0.7431,-0.8047,-0.808,-0.7627,-0.7706,-0.8294,-0.8311,-1.0289,-1.4065,-1.5096,-1.664,-1.8542,-1.8219,-1.7086,-1.5259,-1.2388,-1.0842,-1.0458,-1.1993,-1.3844,-1.5857,-1.7027,-1.8793,-2.0237,-1.7199,-1.4948,-1.3227,-1.2143,-1.0434,-0.8699,-0.8269,-0.8215,-0.811,-0.7062,-0.6426,-0.6298,-0.7375,-0.9996,-1.3458,-1.7778,-2.0798,-2.3083,-2.4471,-2.6508,-2.8075,-2.8075,-2.8558,-2.8929,-2.8658,-2.8602,-2.8668,-2.8938,-2.8576,-2.8411,-2.892,-2.8558,-2.8429,-2.892,-2.9355,-2.9457,-2.9156,-2.8977,-2.8798,-2.8591,-2.7275,-2.6529,-2.6601,-2.5764,-2.5264,-2.5184,-2.5077,-2.4974,-2.4943,-2.4974,-2.5099,-2.5303,-2.5012,-2.4842,-2.479,-2.4337,-2.4096,-2.3996,-2.3544,-2.3058,-2.2626,-2.2582,-2.2591,-2.2685,-2.3122,-2.3727,-2.4381,-2.4838,-2.5148,-2.5301,0.0,0.0,0.0,0.0,0.0,0.0,0.0,0.0,-1.0849,-1.0726,0.0,0.0,0.0,0.0,-0.7906,-0.6823,-0.5883,-0.5072,-0.4429,-0.5123,-0.5643,-0.5848,-0.6878,-0.7539,-0.7791,-0.7346,-0.7323,-0.7726,-0.7744,-0.926,-1.2188,-1.3913,-1.5445,-1.6756,-1.6734,-1.6503,-1.5904,-1.3032,-1.1721,-1.1818,-1.4013,-1.5807,-1.7363,-1.9541,-2.1111,-2.1849,0.0,0.0,0.0,-1.5037,-1.3376,-1.122,-0.9659,-0.8447,-0.7248,-0.5504,-0.5329,-0.5636,-0.5376,-0.7997,-1.1643,-1.5071,-1.7451,-1.9799,-2.2894,-2.4909,-2.6412,-2.7467,-2.8281,-2.8725,-2.8446,-2.853,-2.8705,-2.8957,-2.8319,-2.7989,-2.8521,-2.7897,-2.7603,-2.8136,-2.8779,-2.9192,-2.9298,-2.9365,-2.9313,-2.9121,-2.8063,0.0,-2.664,-2.6063,-2.5591,-2.5303,-2.5163,-2.5233,-2.552,-2.5252,-2.5316,-2.5726,-2.5145,-2.4842,-2.479,-2.4528,-2.4357,-2.4303,-2.4136,-2.3648,-2.2957,-2.2975,-2.294,-2.2935,-2.3347,-2.3878,-2.4441,-2.4774,-2.5068,-2.527,0.0,0.0,0.0,0.0,0.0,0.0,0.0,0.0,-1.0739,-1.0332,0.0,0.0,0.0,0.0,0.0,-0.5051,-0.5103,-0.5019,-0.447,-0.528,-0.5685,-0.5437,-0.6502,-0.6995,-0.6844,-0.6813,-0.6925,-0.7203,-0.7881,-0.9301,-1.149,-1.3852,-1.5519,-1.6517,-1.5261,-1.5411,-1.6443,-1.4471,-1.4167,-1.5198,-1.8159,-1.8334,-1.7503,-2.3487,0.0,0.0,-2.1513,-2.082,0.0,-1.8384,0.0,0.0,-1.2986,-0.8969,-0.5063,-0.2883,-0.3026,-0.4107,0.0,0.0,0.0,-1.2342,-1.3164,-1.4829,-2.2026,0.0,-2.3325,-2.6493,-2.7731,-2.825,-2.8322,-2.8033,-2.8044,-2.8792,-2.8246,-2.7732,-2.775,-2.7071,-2.6576,-2.6612,-2.7468,-2.8166,-2.8447,-2.9376,-2.9721,-2.9129,-2.9102,-2.839,-2.6755,-2.6631,-2.6227,-2.537,-2.5332,-2.5755,-2.664,-2.5783,-2.5783,-2.6601,-2.5539,-2.4949,-2.4804,-2.4804,-2.47,-2.4528,-2.4716,-2.4403,-2.3738,-2.3572,-2.3518,-2.3518,-2.3539,-2.3971,-2.4592,-2.4543,-2.4859,-2.5228,0.0,0.0,0.0,0.0,0.0,-0.9647,-0.9983,-1.0122,-1.0148,0.0,0.0,0.0,-0.9301,-0.8815,-0.8198,-0.7403,-0.6683,-0.5938,-0.5109,-0.5208,-0.5474,-0.5883,-0.6389,-0.6924,-0.744,-0.7078,-0.7038,-0.7342,-0.7772,-0.8609,-0.9859,-1.1146,-1.2267,-1.3151,-1.2792,-1.2837,-1.3032,-1.1092,-1.1592,-1.3791,-1.4993,-1.6591,0.0,0.0,0.0,0.0,0.0,-2.3967,-2.1808,0.0,-1.8371,-1.4614,0.0,-0.5515,-0.312,-0.3361,-0.3647,-0.4047,-0.4757,0.0,0.0,0.0,0.0,0.0,-1.4685,0.0,-1.9481,-2.2785,-2.3737,-2.464,-2.6774,-2.7291,-2.7331,-2.7284,-2.6594,-2.6264,-2.6851,-2.6227,-2.5952,-2.6539,-2.6968,-2.7324,-2.7528,-2.8517,-2.9117,0.0,-2.9102,-2.8925,-2.85,-2.738,-2.6604,-2.6326,-2.6298,-2.6708,-2.7525,-2.7113,-2.6787,-2.6601,-2.6015,-2.5451,-2.4937,-2.4842,-2.4775,-2.4716,-2.4775,-2.4676,-2.4482,-2.4251,-2.4107,-2.4097,-2.4185,-2.4406,-2.4693,-2.4923,-2.5156,-2.5347,0.0,0.0,-0.9518,-0.9996,-1.035,-1.0788,-1.1513,-1.1471,-1.1274,0.0,0.0,0.0,-1.0476,-1.0632,-1.0182,-0.8678,-0.7706,-0.6779,-0.5829,-0.5627,-0.5694,-0.6008,-0.6541,-0.7032,-0.7446,-0.7311,-0.7335,-0.756,-0.7507,-0.785,-0.8546,-0.9518,-1.0317,-1.0997,-1.0901,-1.1198,-1.1655,-0.9327,-1.0229,0.0,-1.6084,0.0,0.0,-2.3165,-2.4889,0.0,0.0,0.0,-2.2927,-2.3723,-2.0205,0.0,0.0,-0.639,-0.3494,-0.3814,-0.4943,-0.6026,-0.5661,-0.6087,-0.6677,-0.678,0.0,0.0,0.0,0.0,0.0,0.0,-2.4059,-2.483,-2.6216,-2.6482,-2.6357,-2.5976,-2.5491,-2.5406,-2.6004,-2.5401,-2.5071,-2.5548,-2.6079,-2.6465,-2.6679,-2.7985,-2.8734,-2.861,-2.9256,-2.9378,-2.8728,-2.7847,-2.7157,-2.6748,-2.7074,-2.7619,-2.8425,-2.7821,-2.7383,-2.714,-2.6447,-2.5739,-2.501,-2.5027,-2.5003,-2.4936,-2.5045,-2.5081,-2.5109,-2.536,-2.5357,-2.5203,-2.4905,-2.5109,-2.5515,-2.5274,-2.5273,-2.5344,0.0,0.0,-0.9227,-1.0758,-1.1682,-1.2653,-1.4,-1.3853,-1.3444,0.0,-1.2452,-1.2192,-1.2751,-1.3322,-1.2567,-0.9915,-0.8779,-0.7759,-0.6805,-0.646,-0.6218,-0.6014,-0.685,-0.7241,-0.7081,-0.7464,-0.7686,-0.7709,-0.717,-0.7139,-0.7619,-0.8589,-0.9216,-0.9561,-0.9321,-0.9975,-1.1096,-0.8899,-1.0013,-1.3752,-1.8806,-1.9841,0.0,0.0,-2.467,-2.3099,-2.5362,-2.5021,-2.3838,-2.6062,-2.2233,0.0,0.0,0.0,-0.5906,-0.4593,-0.6852,-0.9336,-0.7363,-0.6847,-0.7084,-0.7977,-0.6973,0.0,0.0,0.0,0.0,0.0,-2.5033,-2.5478,-2.5196,-2.4812,-2.4413,-2.4006,-2.4198,-2.4599,-2.5197,0.0,0.0,0.0,0.0,0.0,-2.58,-2.7447,-2.8319,-2.7896,-2.9451,-2.9757,-2.821,-2.8218,-2.7889,-2.7098,-2.7763,-2.8516,-2.9345,-2.8267,-2.7835,-2.8025,-2.7001,-2.6117,-2.5332,-2.558,-2.5584,-2.5428,-2.5686,-2.579,-2.5857,-2.6705,-2.6848,-2.6469,-2.5796,-2.6076,-2.6727,-2.5735,-2.5401,-2.5387,-0.8505,-0.8393,-0.9003,-1.0916,-1.183,-1.2999,-1.511,-1.5031,-1.4985,-1.5873,-1.5834,-1.6453,-1.8382,-1.6583,-1.5112,-1.4725,-1.2094,-0.9978,-0.8893,-0.7632,-0.6866,-0.6719,-0.7137,-0.7243,-0.6941,-0.7288,-0.7338,-0.7078,-0.696,-0.7139,-0.7605,-0.7819,-0.7767,-0.7481,-0.744,-0.7574,-0.796,-0.9508,-1.1629,-1.3998,-1.4956,0.0,-2.0258,-2.3288,-2.531,-2.6612,-2.7119,-2.7061,-2.6466,-2.4766,-2.19,-1.8042,0.0,0.0,0.0,-0.7165,-0.9546,-1.2626,-0.9145,-0.8408,-0.8549,-0.8271,-0.8135,0.0,0.0,-0.8617,-1.0235,0.0,-1.4554,-1.5523,-1.8085,-1.8573,-1.844,-1.8039,-1.9831,0.0,0.0,0.0,0.0,0.0,0.0,0.0,-2.4769,-2.5857,-2.6859,-2.7587,-2.9467,-3.0082,-2.9024,-2.9139,-2.91,-2.8826,-2.8918,-2.9391,-3.0236,-2.9603,-2.9121,-2.8852,-2.827,-2.7756,-2.7338,-2.7447,-2.7478,-2.745,-2.7548,-2.7612,-2.7683,-2.7867,-2.7435,-2.673,-2.7363,-2.7668,-2.7649,-2.6739,-2.6418,-2.6289,-0.816,-0.8323,-0.9337,-1.1733,-1.3181,-1.4871,-1.7448,-1.7696,-1.7902,-1.8769,-1.9493,-1.9933,-2.0044,-1.852,-1.6974,-1.5607,-1.3009,-1.083,-0.9407,-0.8477,-0.7625,-0.6791,-0.7387,-0.7761,-0.7785,-0.7761,-0.7835,-0.7996,-0.7357,-0.7237,-0.759,-0.7156,-0.8138,-1.0188,-0.7808,-0.8062,-1.025,-0.9505,-1.0334,-1.2495,-1.6227,0.0,-2.248,-2.4893,-2.6545,-2.7625,-2.7625,-2.7357,-2.6689,-2.4278,-2.132,0.0,-1.5627,-1.4199,-1.2914,0.0,-1.1378,-1.2972,-1.0129,-0.9326,-0.9301,-0.9343,-0.8869,0.0,0.0,0.0,-0.9878,-1.2878,-1.3573,-1.4198,-1.5967,-1.6223,-1.625,-1.6553,-1.9271,0.0,0.0,0.0,0.0,0.0,0.0,0.0,-2.5092,-2.5737,-2.677,-2.8236,-2.9741,-3.0208,-2.9303,-2.9785,-2.9882,-2.9407,-2.968,-3.0069,-3.0489,-3.0075,-2.9613,-2.9102,-2.876,-2.8357,-2.7942,-2.8012,-2.8061,-2.8106,-2.8164,-2.8229,-2.8276,-2.8725,-2.8535,-2.8012,-2.8159,-2.8392,-2.8588,-2.7678,-2.705,-2.6545,-0.792,-0.8239,-0.9531,-1.2344,-1.4249,-1.6313,-1.9179,-1.982,-2.0306,-2.1247,-2.2367,-2.2615,-2.132,-2.0597,-1.9225,-1.6797,-1.47,-1.2566,-1.0485,-0.9891,-0.9031,-0.768,-0.7851,-0.8357,-0.9209,-0.8436,-0.8301,-0.8818,-0.7645,-0.7225,-0.7446,-0.6744,-0.8483,-1.2071,-0.8983,-0.9458,-1.2415,-0.9871,0.0,-1.2404,0.0,-2.1765,-2.282,-2.5711,-2.6846,-2.692,-2.738,-2.7203,-2.6364,-2.423,-2.1254,-1.8508,-1.8756,-1.705,0.0,0.0,0.0,-1.3591,-1.1555,-1.0917,-1.0816,-1.0777,0.0,-0.9417,0.0,0.0,0.0,0.0,0.0,0.0,0.0,0.0,0.0,0.0,0.0,0.0,0.0,0.0,0.0,0.0,0.0,0.0,-2.5278,-2.5433,-2.6541,-2.8929,-2.9288,-2.9416,-2.9508,-3.0253,-3.0388,-2.9725,-3.0214,-3.0484,-3.0528,-3.0177,-2.9773,-2.9352,-2.9123,-2.884,-2.8481,-2.8547,-2.8621,-2.8689,-2.8768,-2.8809,-2.8848,-2.9531,-2.9726,-2.9513,-2.8911,-2.9041,-2.9479,-2.8554,-2.7615,-2.6718,-0.7812,-0.7764,-0.8757,-1.1696,-1.3265,-1.5107,-1.802,-1.892,-2.0048,-2.2381,-2.3201,-2.4104,-2.5655,-2.4326,-2.3137,-2.2804,-2.0724,-1.8051,-1.4735,-1.3109,-1.1979,-1.1322,-0.8848,-0.8611,-1.1042,-0.8962,-0.7815,-0.7775,-0.7028,-0.6779,-0.6978,-0.6876,-0.681,-0.6909,-0.9875,-1.0208,-0.8758,0.0,-1.4892,0.0,-1.9346,-1.8762,0.0,-2.2233,-2.4044,-2.4358,-2.6722,-2.7575,-2.706,0.0,-2.264,-2.0957,0.0,-1.7576,-1.8433,-1.3688,0.0,0.0,0.0,0.0,0.0,0.0,-1.2332,-1.1818,0.0,0.0,-0.8548,-0.7927,0.0,0.0,0.0,0.0,0.0,0.0,0.0,0.0,0.0,0.0,0.0,0.0,0.0,0.0,0.0,-2.3183,-2.4637,-2.8794,-2.6566,-2.6549,-3.0096,-3.0489,-3.0578,-3.0481,-3.0439,-3.0474,-3.0598,-3.0198,-3.0079,-3.0244,-2.9983,-2.9992,-3.0217,-3.0296,-3.0351,-3.0423,-3.0544,-3.0605,-3.0605,-3.0575,-3.056,-3.0528,-3.0385,-3.0316,-3.0186,-2.9308,-2.8334,-2.7351,-0.7734,-0.793,-0.8848,-1.1206,-1.2646,-1.4419,-1.7407,-2.042,-2.2608,-2.3231,-2.4476,-2.551,-2.5974,-2.4393,-2.3342,-2.3342,0.0,-1.9442,0.0,0.0,-1.3361,-1.1243,-0.9586,-0.9241,-1.0326,-0.8799,-0.802,-0.8123,-0.7099,-0.6241,-0.5579,-0.6081,-0.7316,-0.9179,-1.137,-1.3187,-1.4701,0.0,-1.5266,0.0,0.0,0.0,0.0,-2.3223,-2.5899,-2.6048,-2.722,-2.7306,-2.6813,0.0,-2.3249,0.0,0.0,0.0,0.0,-1.6608,0.0,0.0,0.0,0.0,0.0,0.0,0.0,0.0,-0.8889,0.0,-0.7682,0.0,0.0,0.0,0.0,0.0,0.0,0.0,-1.1023,0.0,0.0,0.0,0.0,0.0,0.0,0.0,0.0,0.0,0.0,0.0,-2.6137,-2.6136,-3.0341,-3.063,-3.0665,-3.0665,-3.0527,-3.0487,-3.0548,-3.0337,-3.0299,-3.0398,-3.0337,-3.0376,-3.0554,-3.0638,-3.071,-3.0816,-3.0879,-3.0858,-3.0771,-3.0721,-3.0642,-3.0562,-3.0419,-3.0395,-3.0414,-3.0001,-2.92,-2.8226,-0.7695,-0.7978,-0.8827,-1.0742,-1.1912,-1.3682,-1.6969,-2.047,-2.2905,-2.3284,-2.4612,-2.5674,-2.6093,-2.4828,-2.4112,-2.4526,-2.3661,-2.1585,0.0,0.0,-1.575,-1.3813,-1.1315,0.0,-1.1414,-0.9396,-0.8303,-0.8251,-0.72,-0.627,-0.5524,-0.5964,-0.7719,-1.0592,-1.2751,-1.5416,-1.826,0.0,-1.7302,-1.7036,-1.77,-1.8089,-1.8897,-2.4388,-2.698,-2.7625,-2.7625,-2.7255,-2.6739,-2.6163,-2.3765,0.0,-2.3721,-2.1815,-1.8885,0.0,0.0,0.0,-1.647,0.0,0.0,0.0,0.0,0.0,0.0,0.0,0.0,0.0,0.0,0.0,0.0,0.0,-0.8303,-0.9281,0.0,-1.1244,0.0,0.0,0.0,0.0,0.0,0.0,0.0,0.0,0.0,0.0,0.0,-2.5186,-3.0396,-3.0675,-3.0684,-3.0693,-3.0566,-3.0517,-3.056,-3.0498,-3.0442,-3.0472,-3.0507,-3.0561,-3.0638,-3.068,-3.0771,-3.0898,-3.0858,-3.0792,-3.0693,-3.0669,-3.0594,-3.049,-3.0229,-3.0217,-3.0353,-3.026,-2.9518,-2.8597,-0.7695,-0.7705,-0.8308,-1.0192,-1.0976,-1.2693,-1.6701,-1.7445,-1.8792,-2.2286,0.0,0.0,0.0,0.0,0.0,0.0,0.0,-2.6128,-2.3172,0.0,-2.002,-2.1678,-1.4575,-1.2292,0.0,-1.1349,-0.8471,-0.7633,-0.7133,-0.7213,-0.7781,-0.7154,-0.7346,-0.8442,-1.3874,-1.5819,-1.5363,-2.0019,-2.3181,-2.4933,-2.38,-2.4894,-2.6965,0.0,-2.533,-2.7625,-2.7625,0.0,0.0,-2.5314,-2.4294,0.0,0.0,0.0,0.0,0.0,0.0,0.0,0.0,0.0,0.0,-1.4618,0.0,0.0,0.0,0.0,-1.1351,0.0,0.0,0.0,0.0,-1.1087,-1.0106,-0.9842,-0.921,0.0,0.0,0.0,0.0,0.0,0.0,0.0,0.0,0.0,0.0,0.0,0.0,0.0,-3.0195,-3.0599,-3.0624,-3.0693,-3.056,-3.0564,-3.0696,-3.0638,-3.0594,-3.0594,-3.06,-3.0619,-3.0693,-3.0693,-3.0771,-3.0898,-3.0769,-3.0696,-3.069,-3.0554,-3.0507,-3.0481,-3.0145,-3.0013,-2.9999,-2.9815,-2.9044,-2.811,-0.8164,-0.8379,-0.8731,-0.9289,-0.9815,-1.1676,-1.6158,-1.8839,0.0,0.0,0.0,0.0,0.0,-2.743,-2.7604,0.0,0.0,-2.7061,-2.4328,-2.223,0.0,0.0,0.0,-1.4554,0.0,0.0,0.0,-0.9507,-0.7851,-0.703,-0.7026,-0.6939,-0.7301,-0.8273,-1.3785,-1.7249,0.0,0.0,0.0,0.0,0.0,-2.5473,-2.7283,0.0,-2.7155,-2.766,-2.8042,-2.7959,0.0,-2.7265,-2.6214,-2.519,-2.642,-2.5183,-2.3579,-2.4894,-2.4675,-2.3835,0.0,0.0,-2.3546,-1.7988,0.0,0.0,0.0,0.0,0.0,0.0,0.0,0.0,0.0,-1.1763,-1.0979,-1.0021,-0.963,-0.8811,0.0,0.0,0.0,0.0,0.0,0.0,0.0,0.0,0.0,0.0,0.0,0.0,0.0,-3.0701,-3.068,-3.0693,-3.0579,-3.0538,-3.0622,-3.0576,-3.0555,-3.0606,-3.0633,-3.068,-3.0696,-3.0793,-3.0858,-3.0898,-3.0767,-3.0677,-3.0633,-3.0545,-3.0472,-3.0409,-3.0098,-2.9924,-2.9796,-2.9731,-2.9383,-2.8945,-0.885,-0.9074,-0.9322,-0.9558,-1.0822,-1.2958,-1.6403,0.0,0.0,0.0,-2.4567,0.0,-2.7445,0.0,-2.759,0.0,-2.8368,-2.7305,-2.5121,-2.3659,0.0,-2.2642,-1.9349,0.0,0.0,0.0,0.0,0.0,-0.9681,-0.8542,-0.8099,-0.7999,-0.8426,-0.9446,-1.3807,-1.7715,-2.1231,-2.3551,-2.5462,0.0,0.0,-2.713,0.0,0.0,-2.842,-2.7563,0.0,-2.8591,-2.8304,-2.8685,-2.7978,-2.717,-2.8885,-2.766,-2.5885,-2.7364,-2.6912,-2.5799,-2.5205,-2.5894,0.0,-2.0961,-1.9958,0.0,-1.3836,0.0,-1.4712,0.0,0.0,0.0,0.0,-1.4329,-1.2545,-1.1673,-1.0672,-0.8857,0.0,-0.559,0.0,0.0,0.0,0.0,0.0,0.0,0.0,0.0,0.0,0.0,0.0,0.0,-3.065,-3.065,-3.0555,-3.054,-3.0621,-3.0586,-3.0614,-3.0712,-3.074,-3.0771,-3.0771,-3.0801,-3.0836,-3.0816,-3.0693,-3.0592,-3.0554,-3.0481,-3.0441,-3.0367,-3.0103,-2.9877,-2.9696,-2.9626,-2.9455,-2.9225,-0.9737,-0.9861,-1.0243,-1.1058,-1.372,-1.6172,0.0,0.0,-2.1659,0.0,-2.4268,-2.542,-2.7365,-2.7006,-2.7156,-2.8442,-2.7949,-2.7036,-2.5794,-2.5061,0.0,0.0,-2.2745,-2.1518,-2.2374,0.0,0.0,0.0,0.0,-1.1455,-1.0842,-1.0204,-1.0461,-1.1546,-1.3824,-1.7209,-2.1407,-2.4306,-2.774,-3.1151,-3.0576,-2.9946,-2.9444,-3.0091,-2.9056,-2.746,-2.8954,-2.9406,-2.9406,-2.9451,-2.9451,-2.9451,-2.9496,-2.9496,-2.9585,-3.0166,-3.0335,-3.0013,-2.8407,-2.7958,-2.708,-2.3494,-2.253,0.0,0.0,0.0,-1.9748,0.0,0.0,0.0,0.0,0.0,-1.4767,-1.4387,-1.1913,-0.8558,-0.4331,0.0,0.0,0.0,0.0,0.0,0.0,0.0,0.0,0.0,0.0,0.0,0.0,0.0,-3.0386,-3.06,-3.0537,-3.0561,-3.069,-3.0693,-3.0769,-3.0898,-3.0898,-3.0898,-3.0879,-3.0745,-3.0693,-3.0687,-3.0554,-3.0498,-3.049,-3.0428,-3.0398,-3.0355,-3.0089,-2.9877,-2.9661,-2.9454,-2.9203,-2.8994,-1.0288,-1.2106,-1.3521,-1.2839,-1.399,-1.5854,0.0,0.0,0.0,0.0,-2.5255,-2.5929,-2.741,-2.7475,-2.7455,-2.7814,-2.773,0.0,0.0,0.0,0.0,-2.7021,-2.4417,-2.3271,-2.4,-2.0024,0.0,-1.662,0.0,-1.1468,-1.1521,-1.0413,-1.0217,-1.0847,-1.3096,-1.6723,-2.1373,-2.3748,-2.7266,-3.119,-3.1015,-3.0224,-2.9237,0.0,-2.9973,-2.8677,-2.9699,-2.9761,-2.9451,-2.9935,-3.0081,-3.0166,-3.0617,-3.074,-3.0781,-3.0918,-3.0975,-3.0881,-3.0441,-3.0328,-2.9702,-2.7063,-2.5575,-2.4036,0.0,0.0,0.0,0.0,0.0,0.0,0.0,0.0,0.0,-1.2456,-0.9395,0.0,0.0,0.0,0.0,-0.7731,0.0,0.0,0.0,0.0,0.0,0.0,0.0,0.0,0.0,0.0,0.0,-3.0424,-3.0516,-3.0545,-3.0614,-3.0677,-3.0718,-3.0747,-3.0747,-3.0732,-3.0676,-3.0643,-3.0633,-3.0628,-3.0537,-3.0498,-3.049,-3.0428,-3.0279,-3.0089,-3.0028,-2.978,-2.9454,-2.9203,-2.9044,-2.8994,-1.1656,-1.4099,0.0,-1.5892,0.0,0.0,-1.9446,-2.0764,0.0,-2.4866,-2.5435,0.0,-2.6632,-2.723,-2.7625,-2.7625,-2.7625,0.0,-2.6752,0.0,0.0,-2.6707,-2.5824,-2.5525,-2.5899,-2.2975,0.0,-1.8996,0.0,-1.3188,-1.2209,-1.0907,-1.0467,-1.0904,-1.3195,-1.6242,-1.9917,-2.414,-2.7604,-3.0277,-3.0937,-3.07,0.0,-3.0869,-3.0869,-3.0492,-3.1005,-3.0742,-3.03,-3.0967,-3.0966,-3.074,-3.1095,-3.119,-3.119,-3.119,-3.119,-3.119,-3.119,-3.119,-3.0886,-2.9617,-2.867,-2.7385,-2.4814,-2.4797,-2.5118,0.0,-2.4553,-2.4696,0.0,0.0,0.0,0.0,0.0,0.0,0.0,0.0,0.0,0.0,0.0,0.0,0.0,0.0,0.0,0.0,0.0,0.0,0.0,0.0,0.0,-3.0337,-3.0114,-3.0161,-3.0606,-3.0318,-3.0342,-3.0696,-3.0696,-3.065,-3.06,-3.0568,-3.0567,-3.054,-3.0491,-3.0452,-3.0442,-3.0425,-3.0241,-2.9984,-2.9796,-2.9607,-2.9372,-2.9089,-2.8994,-2.8994,-1.3603,-1.6127,0.0,0.0,0.0,0.0,0.0,-2.19,0.0,-2.4717,0.0,-2.5869,-2.5869,-2.6886,-2.7625,-2.7625,0.0,-2.7081,-2.5944,-2.6931,-2.7066,-2.5914,-2.6961,-2.7625,-2.7625,-2.6198,-2.3969,0.0,0.0,-1.5291,-1.2651,-1.1311,-1.0773,-1.1041,-1.3551,-1.6157,0.0,-2.5206,-2.8433,-2.9533,-3.0818,-3.1326,-3.1343,-3.1444,-3.1884,-3.2442,-3.2527,-3.2104,-3.1562,-3.2104,-3.185,-3.1326,-3.1224,-3.119,-3.119,-3.119,-3.119,-3.119,-3.119,-3.119,-3.123,-3.1269,-3.123,-3.0552,-2.7963,-2.7809,-2.8078,-2.7418,-2.6251,-2.6286,-2.9268,0.0,0.0,0.0,0.0,0.0,0.0,0.0,0.0,0.0,0.0,0.0,0.0,0.0,0.0,0.0,0.0,0.0,0.0,0.0,0.0,-3.0275,-2.9738,-2.9722,-3.0425,-2.9928,-2.9949,-3.0512,-3.0622,-3.0648,-3.0568,-3.0505,-3.05,-3.0491,-3.0386,-3.0355,-3.0355,-3.033,-3.0155,-2.9893,-2.9513,-2.9351,-2.933,-2.9089,-2.8994,-2.8994,-1.5928,-1.8793,0.0,0.0,0.0,-2.2978,-2.2497,-2.3467,-2.4762,-2.6078,-2.6811,-2.723,-2.723,-2.749,-2.7625,-2.7625,-2.7625,0.0,0.0,0.0,0.0,-2.7245,-2.744,-2.7625,-2.7625,-2.5749,-2.3729,0.0,0.0,-1.4614,-1.1939,-1.0653,-0.9846,-0.9606,-1.2642,-1.7781,-2.4377,-2.6776,0.0,-3.1715,-3.1985,-3.2127,-3.2154,-3.278,-3.3102,-3.3288,-3.3897,-3.3643,-3.2933,-3.2442,-3.2188,-3.1985,-3.1376,-3.119,-3.119,-3.119,-3.119,-3.119,-3.119,-3.119,-3.1291,-3.1603,-3.1449,-3.1155,-3.0952,-3.0748,-3.0565,-3.0429,-3.0192,-2.9445,-2.7668,0.0,0.0,0.0,0.0,0.0,0.0,0.0,0.0,0.0,0.0,0.0,0.0,0.0,0.0,0.0,0.0,0.0,0.0,0.0,0.0,0.0,-3.0369,0.0,0.0,0.0,-3.0166,-2.9547,-3.0224,-3.0498,-3.0419,-3.0417,-3.0425,-3.0394,-3.0177,-3.0075,-3.0061,-2.9896,-2.9715,-2.9474,-2.9181,-2.9067,-2.9067,-2.9017,-2.8994,-2.8994,-1.9729,0.0,0.0,0.0,0.0,0.0,0.0,-2.6649,-2.729,-2.6213,-2.6946,-2.749,-2.7096,-2.7679,-2.8113,-2.8113,-2.7784,-2.7625,-2.7625,-2.7625,-2.7625,-2.7625,-2.7625,-2.7625,-2.7625,-2.6991,-2.5046,-2.1695,0.0,-1.6263,-1.2284,-1.0982,-1.0061,-0.9701,-1.3787,-1.8817,0.0,0.0,0.0,-3.1224,-3.1968,-3.2313,-3.2357,-3.3119,-3.3643,-3.4015,-3.437,-3.4523,-3.4438,-3.3677,-3.3186,-3.273,-3.1985,-3.1749,-3.1681,-3.1309,-3.119,-3.119,-3.119,-3.119,-3.1269,-3.1449,-3.1351,-3.1252,-3.1449,-3.1351,-3.119,-3.119,-3.119,-3.0121,-2.6674,-2.3172,0.0,0.0,0.0,0.0,0.0,0.0,0.0,0.0,0.0,0.0,0.0,0.0,0.0,0.0,0.0,0.0,0.0,0.0,0.0,0.0,0.0,0.0,0.0,0.0,-3.0045,-2.9977,-3.0367,-3.049,-3.0398,-3.0398,-3.0323,-3.0196,-3.0061,-2.9939,-2.9829,-2.9748,-2.9589,-2.9392,-2.9246,-2.9134,-2.8994,-2.8994,-2.8994,-2.8994,-2.32,-2.3772,0.0,0.0,-2.7141,-2.8143,-2.8023,-2.9669,-2.9864,-2.6841,-2.735,-2.7799,-2.729,-2.8173,-2.8801,-2.8801,-2.8188,-2.7844,-2.8045,-2.7775,-2.7634,-2.7784,-2.7784,-2.7784,-2.7784,-2.8457,-2.6811,0.0,0.0,0.0,-1.3585,-1.17,-1.1052,-1.1667,-1.5837,0.0,0.0,0.0,-2.896,-3.0707,-3.1884,-3.2336,-3.2462,-3.3302,-3.4028,-3.4532,-3.4682,-3.5115,-3.552,-3.4928,-3.4235,-3.3508,-3.2763,-3.251,-3.2374,-3.1647,-3.1427,-3.1393,-3.1241,-3.119,-3.123,-3.1329,-3.1252,-3.123,-3.1329,-3.1252,-3.119,-3.119,-3.119,-3.0019,-2.6152,-2.4478,0.0,0.0,0.0,0.0,0.0,0.0,0.0,0.0,0.0,0.0,0.0,0.0,0.0,0.0,0.0,0.0,0.0,0.0,0.0,0.0,0.0,-2.9023,-2.9788,0.0,-2.9936,-3.0327,-3.051,-3.0524,-3.0398,-3.0398,-3.0279,-3.0075,-2.9984,-2.9796,-2.9551,-2.9661,-2.9551,-2.933,-2.9372,-2.9225,-2.8994,-2.8994,-2.8994,-2.8994,-2.4552,0.0,0.0,0.0,0.0,-3.0043,-2.949,-3.1061,-3.1569,-2.949,-2.931,-2.937,-2.931,-2.9415,-2.949,-2.949,-2.8891,-2.8757,-2.9355,-2.8248,-2.7844,-2.8472,-2.8502,-2.8502,-2.8502,-2.9146,-2.8382,0.0,0.0,-1.9191,-1.6264,-1.2545,-1.2887,-1.6663,0.0,0.0,0.0,-2.8132,-2.9667,-3.2288,-3.2416,-3.2465,-3.2643,-3.3971,-3.4523,-3.4684,-3.5261,-3.5554,-3.5605,-3.5537,-3.5013,-3.4269,-3.3525,-3.3305,-3.3152,-3.2391,-3.2212,-3.2036,-3.1376,-3.119,-3.1291,-3.166,-3.147,-3.1291,-3.166,-3.147,-3.119,-3.119,-3.119,-3.0057,-2.6269,-2.7727,-2.7668,0.0,0.0,0.0,0.0,0.0,-1.9861,-2.1014,0.0,0.0,0.0,0.0,0.0,0.0,-1.412,0.0,0.0,0.0,0.0,-2.7624,0.0,-2.7597,-2.7152,-2.9391,-3.0139,-2.9427,-3.0168,-3.0463,-3.0398,-3.0398,-3.0398,-3.0343,-2.9912,-2.9476,-2.9093,-2.9514,-2.9436,-2.9044,-2.931,-2.9225,-2.8994,-2.8994,-2.8994,-2.8994,0.0,0.0,0.0,0.0,0.0,0.0,0.0,-3.2602,-3.2826,-3.2033,-3.1928,-3.1629,-3.0836,-3.0746,-3.0582,-3.0178,-2.9549,-2.9295,-2.9564,-2.9071,-2.8906,-2.9175,-2.919,-2.9011,-2.8607,-2.925,-2.8203,0.0,0.0,0.0,-1.6726,-1.5502,-1.6713,-2.0061,0.0,-2.5553,-2.8842,-2.9668,-3.0964,-3.2524,-3.2524,-3.2524,-3.2588,-3.3629,-3.3987,-3.4087,-3.4736,-3.4988,-3.5052,-3.547,-3.5419,-3.503,-3.4286,-3.4066,-3.3914,-3.3169,-3.2645,-3.2263,-3.1918,-3.1529,-3.123,-3.1411,-3.1312,-3.1252,-3.1411,-3.1329,-3.119,-3.119,-3.119,-3.0734,-2.9245,-2.8505,-2.7811,-2.6879,0.0,0.0,0.0,0.0,0.0,0.0,0.0,0.0,0.0,0.0,0.0,0.0,0.0,0.0,0.0,0.0,0.0,-2.4503,0.0,-2.8521,-2.7586,-2.9599,-3.0425,-3.0075,-3.0374,-3.0453,-3.0398,-3.0398,-3.0311,-3.0136,-2.9829,-2.9588,-2.9437,-2.9763,-2.9695,-2.9436,-2.9533,-2.9435,-2.9225,-2.9044,-2.8994,-2.8994,-3.1061,0.0,-3.0941,0.0,-3.2018,-3.1854,-3.3275,-3.3499,-3.3546,-3.3759,-3.3819,-3.3276,-3.1943,-3.1644,-3.1345,-3.0851,-3.0223,-2.9939,-3.0148,-2.9804,-2.9669,-2.9849,-2.9849,0.0,-2.9175,-2.9819,-2.9011,-2.6613,-2.5166,0.0,-1.9675,-1.9331,-2.0602,0.0,-2.5764,-2.7845,-2.9546,-3.0853,-3.172,-3.2212,-3.2212,-3.2212,-3.2275,-3.3008,-3.3287,-3.3391,-3.4087,-3.4333,-3.4431,-3.5098,-3.5161,-3.4968,-3.4633,-3.4527,-3.4376,-3.3654,-3.3067,-3.2656,-3.2621,-3.207,-3.1512,-3.1512,-3.1512,-3.1512,-3.1512,-3.1681,-3.1782,-3.1562,-3.1343,-3.119,-3.119,-2.9448,-2.8376,-2.9403,0.0,0.0,0.0,-2.8755,0.0,0.0,-2.4553,-2.2631,-2.1378,0.0,0.0,0.0,0.0,0.0,0.0,0.0,0.0,0.0,0.0,0.0,-2.8143,-3.0272,-3.1112,-3.06,-3.0781,-3.0704,-3.0398,-3.0398,-3.0254,-2.9999,-2.9943,-2.9832,-2.9731,-3.0003,-2.9958,-2.9713,-2.9782,-2.9644,-2.9372,-2.92,-2.9112,-2.9112,-3.2362,-3.2482,-3.2691,-3.3365,-3.3469,-3.3469,-3.3499,-3.3499,-3.3759,-3.4395,-3.4512,-3.3974,-3.2616,-3.1928,-3.1482,-3.1467,-3.0896,-3.0776,-3.1407,-3.0298,-2.9864,0.0,0.0,-3.0492,-3.0477,-3.115,-3.1437,-3.1392,0.0,0.0,-2.6422,-2.3834,-2.4014,-2.6557,-2.7245,-2.9026,-3.148,-3.1509,-3.1524,-3.1524,-3.1524,-3.1524,-3.1567,-3.2327,-3.2586,-3.2695,-3.3391,-3.3582,-3.3735,-3.4382,-3.4186,-3.3735,-3.4366,-3.4607,-3.4427,-3.3719,-3.3505,-3.3495,-3.3405,-3.2848,-3.2313,-3.2313,-3.2313,-3.2313,-3.2313,-3.2848,-3.3169,-3.2425,-3.1698,-3.119,-3.119,-3.1157,-3.0429,-2.8178,0.0,0.0,0.0,-2.7523,0.0,-2.4769,-1.9396,-1.7503,-2.1762,0.0,0.0,0.0,0.0,0.0,0.0,0.0,0.0,-2.7448,-2.8502,0.0,-2.8207,-3.1505,-3.2298,-3.06,-3.1402,-3.1303,-3.0398,-3.0398,-3.0254,-3.0013,-3.0286,-3.0128,-2.9731,-3.0202,-3.0114,-2.9731,-2.9924,-2.9746,-2.9412,-2.9392,-2.9392,-2.9351,-3.3814,-3.3844,-3.3918,-3.4128,-3.3425,-3.2976,-3.3425,-3.3499,-3.3772,-3.4439,-3.4485,-3.4363,-3.3935,-3.3287,-3.2479,0.0,-3.133,-3.1243,0.0,-3.115,-3.1001,-3.1195,-3.121,-3.0986,-3.0507,-3.0717,-3.0836,-3.0836,0.0,0.0,0.0,-2.7769,-2.8786,-3.13,-3.1509,-3.1824,-3.2198,-3.2198,-3.2198,-3.2153,-3.1661,-3.1735,-3.2153,-3.1905,-3.1853,-3.1951,-3.268,-3.2949,-3.3039,-3.3684,-3.4087,-3.4235,-3.3987,-3.3937,-3.3939,-3.4168,-3.39,-3.3466,-3.3422,-3.2848,-3.2195,-3.1664,-3.1546,-3.1546,-3.1546,-3.1732,-3.1833,-3.1596,-3.136,-3.119,-3.119,-3.119,-3.1053,-3.0604,-3.0912,0.0,-3.1028,0.0,-2.9563,-2.8996,-2.6754,-2.568,0.0,-2.279,0.0,0.0,0.0,0.0,0.0,0.0,0.0,0.0,-2.9458,0.0,-2.9986,-3.2129,-3.261,-3.1481,-3.2213,-3.2382,-3.2102,-3.2102,-3.177,-3.1162,-3.1251,-3.0868,-3.0188,-3.0343,-3.0299,-3.0174,-3.0047,-2.9924,-2.9796,-2.9643,-2.9607,-2.9589,-3.4861,-3.4651,-3.4472,-3.4472,-3.3589,-3.3021,-3.344,-3.3499,-3.3742,-3.444,-3.4485,-3.4485,-3.4485,-3.4112,0.0,-3.2362,-3.2273,-3.2273,-3.2273,-3.2273,-3.2273,-3.2273,-3.2273,-3.2063,-3.1644,-3.1629,0.0,-3.1629,-3.0402,-3.0357,-3.142,-3.1165,-3.1928,-3.3499,-3.3499,-3.326,-3.2886,-3.2886,-3.2886,-3.2841,-3.2437,-3.2512,-3.2841,-3.2422,-3.2273,-3.2317,-3.2752,-3.2756,-3.264,-3.3347,-3.353,-3.3463,-3.3582,-3.3443,-3.3344,-3.4023,-3.3867,-3.3466,-3.3422,-3.2848,-3.2171,-3.1715,-3.1596,-3.1681,-3.1952,-3.1799,-3.1596,-3.1596,-3.1376,-3.119,-3.119,-3.119,-3.1291,-3.1528,-3.1507,-3.162,-3.2179,0.0,-3.1072,0.0,0.0,0.0,0.0,-2.6194,-2.5262,0.0,0.0,0.0,0.0,0.0,0.0,-2.7512,-3.1486,-3.3009,-3.1792,-3.3346,-3.3544,-3.2396,-3.2733,-3.2891,-3.2891,-3.2891,-3.2622,-3.216,-3.216,-3.1833,-3.1352,-3.1352,-3.1352,-3.1321,-3.1161,-3.104,-3.0952,-3.0845,-3.0587,-3.0324,-3.5564,-3.5026,-3.4562,-3.4607,-3.4068,-3.3634,-3.3634,-3.3634,-3.3849,-3.4491,-3.4593,-3.4593,-3.4593,-3.4593,-3.4329,-3.3681,0.0,0.0,-3.3499,-3.3499,-3.3499,-3.3499,-3.3499,-3.3499,-3.3499,-3.3499,-3.3514,-3.3559,-3.3619,-3.3948,-3.4532,-3.3918,-3.3634,-3.3634,-3.3634,-3.3666,-3.3621,-3.3621,-3.3621,-3.3728,-3.3561,-3.3576,-3.3621,-3.3514,-3.3499,-3.3499,-3.3499,-3.3156,-3.2735,-3.3356,-3.2756,-3.1955,-3.3298,-3.323,-3.277,-3.3356,-3.351,-3.3485,-3.3446,-3.2891,-3.23,-3.229,-3.2239,-3.2391,-3.3085,-3.2713,-3.2205,-3.2205,-3.1664,-3.119,-3.119,-3.119,-3.123,-3.1291,-3.1565,-3.1808,-3.1915,-3.2298,-3.1452,-2.8417,0.0,0.0,-2.7398,-2.7181,-2.8371,0.0,0.0,0.0,0.0,0.0,-2.7471,-3.3216,-3.4234,-3.4345,-3.3594,-3.5002,-3.4932,-3.3369,-3.314,-3.3044,-3.3082,-3.3089,-3.3051,-3.3005,-3.3,-3.2961,-3.2904,-3.2891,-3.2891,-3.2891,-3.2891,-3.2799,-3.2615,-3.2615,-3.2119,-3.1482,-3.6148,0.0,-3.5415,-3.5923,-3.5459,-3.504,-3.504,-3.504,-3.509,-3.525,-3.525,-3.525,-3.525,-3.525,-3.5202,-3.5026,-3.4083,-3.3499,-3.3499,-3.3499,-3.3499,-3.3499,-3.3499,-3.3499,-3.3499,-3.3499,-3.3739,-3.4247,-3.4771,-3.5115,-3.525,-3.51,-3.504,-3.504,-3.504,-3.5074,-3.5077,-3.4529,-3.4912,-3.5865,-3.4197,-3.4122,-3.4971,-3.3909,-3.3499,-3.3499,-3.3499,-3.3788,-3.4226,-3.4384,-3.4185,-3.408,-3.4966,-3.4374,-3.3411,-3.3542,-3.3595,-3.3533,-3.3472,-3.2945,-3.2353,-3.2326,-3.1867,-3.1495,-3.1681,-3.1579,-3.1444,-3.1444,-3.1309,-3.119,-3.119,-3.119,-3.1428,-3.2092,-3.1968,-3.2144,-3.3178,-3.3166,-3.2757,-3.2002,-3.2037,-3.201,-3.1761,-3.2102,-3.1768,0.0,0.0,0.0,0.0,-3.0679,-3.1556,-3.4215,-3.5188,-3.5585,-3.5391,-3.5698,-3.5607,-3.51,-3.4443,-3.4439,-3.5033,-3.4972,-3.4652,-3.412,-3.3975,-3.3562,-3.3035,-3.2952,-3.2891,-3.2891,-3.2891,-3.2865,-3.2839,-3.2839,-3.2705,-3.2538,-3.6417,-3.6432,-3.6492,-3.6851,-3.6611,-3.6372,-3.6372,-3.6372,-3.6372,-3.6372,-3.6133,-3.5953,-3.5953,-3.5684,-3.5619,-3.5943,-3.5055,-3.4412,-3.4412,-3.4412,-3.4412,-3.4412,-3.4412,-3.4412,-3.4412,-3.4412,-3.4592,-3.4951,-3.5325,-3.5504,-3.5504,-3.5504,-3.5504,-3.5504,-3.5504,-3.5522,-3.5568,-3.5506,-3.5723,-3.6102,-3.5263,-3.5171,-3.5476,-3.4721,-3.4412,-3.4475,-3.4788,-3.4986,-3.5198,-3.5514,-3.5435,-3.5278,-3.5594,-3.5159,-3.4422,-3.3731,-3.3355,-3.3024,-3.2643,-3.2471,-3.2392,-3.2336,-3.1732,-3.119,-3.119,-3.119,-3.119,-3.119,-3.119,-3.119,-3.119,-3.119,-3.1428,-3.2074,-3.2144,-3.2466,-3.339,-3.3494,-3.3465,-3.3465,-3.368,-3.3823,-3.388,-3.4223,-3.384,-3.2412,-3.2987,0.0,-3.2998,-3.358,-3.4335,-3.5208,-3.5722,-3.5996,-3.5996,-3.5921,-3.5836,-3.5684,-3.5263,-3.5282,-3.5703,-3.5671,-3.5418,-3.5042,-3.4903,-3.4618,-3.4236,-3.414,-3.4083,-3.4083,-3.4083,-3.4083,-3.4083,-3.4083,-3.3833,-3.3545,-3.6731,-3.7195,-3.7584,-3.7689,-3.7719,-3.7719,-3.7719,-3.7629,-3.7554,-3.7554,-3.7015,-3.6626,-3.6626,-3.6043,-3.5933,-3.6708,-3.6115,-3.5668,-3.5668,-3.5554,-3.5504,-3.5504,-3.5504,-3.5504,-3.5504,-3.5504,-3.5504,-3.5504,-3.5504,-3.5504,-3.5504,-3.5619,-3.5668,-3.5668,-3.5782,-3.591,-3.6085,-3.6569,-3.6569,-3.6243,-3.6631,-3.6461,-3.6022,-3.591,-3.5861,-3.591,-3.6569,-3.6469,-3.6189,-3.6878,-3.669,-3.6109,-3.6179,-3.5958,-3.5442,-3.4209,-3.3372,-3.2668,-3.1916,-3.2138,-3.2525,-3.2336,-3.1732,-3.119,-3.119,-3.119,-3.119,-3.119,-3.119,-3.119,-3.119,-3.119,-3.121,-3.1303,-3.1985,-3.2556,-3.2649,-3.3313,-3.3807,-3.3807,-3.3807,-3.403,-3.4572,-3.4674,-3.4908,-3.5398,-3.5592,-3.5689,-3.5703,-3.5876,-3.5996,-3.5996,-3.5996,-3.5996,-3.5996,-3.5945,-3.5853,-3.5741,-3.5741,-3.5741,-3.5741,-3.5729,-3.5729,-3.5735,-3.5646,-3.5631,-3.564,-3.5546,-3.5528,-3.5515,-3.5488,-3.5493,-3.5493,-3.5493,-3.5026,-3.4507,-3.7883,-3.8167,-3.8422,-3.9005,-3.911,-3.911,-3.911,-3.8616,-3.8242,-3.8242,-3.7674,-3.727,-3.727,-3.6701,-3.6612,-3.7357,-3.6832,-3.6446,-3.6446,-3.5846,-3.5504,-3.5504,-3.5504,-3.5504,-3.5504,-3.5504,-3.5504,-3.5504,-3.5504,-3.5504,-3.5504,-3.6165,-3.6446,-3.6446,-3.7115,-3.7806,-3.8342,-3.7847,-3.8318,-3.9279,-3.8076,-3.7905,-3.8286,-3.769,-3.7472,-3.7472,-3.7573,-3.7955,-3.84,-3.851,-3.8175,-3.7774,-3.8321,-3.7246,-3.5711,-3.544,-3.4894,-3.4174,-3.3454,-3.3233,-3.3077,-3.2476,-3.1732,-3.119,-3.119,-3.119,-3.119,-3.119,-3.119,-3.119,-3.119,-3.119,-3.07,-2.9262,-3.0966,-3.1987,-3.0523,-3.231,-3.3807,-3.3807,-3.3807,-3.3928,-3.4242,-3.4529,-3.4832,-3.5138,-3.5437,-3.5648,-3.5703,-3.5845,-3.5945,-3.5996,-3.5996,-3.5996,-3.5996,-3.5996,-3.5975,-3.5954,-3.5954,-3.5954,-3.5953,-3.589,-3.5893,-3.5932,-3.5752,-3.5743,-3.5851,-3.5659,-3.5579,-3.5588,-3.5522,-3.5493,-3.5493,-3.5493,-3.5411,-3.5334,-3.8197,-3.8691,-3.905,-3.9364,-3.9424,-3.9424,-3.9424,-3.9155,-3.8945,-3.8945,-3.8362,-3.7943,-3.7943,-3.736,-3.7292,-3.8067,-3.756,-3.7343,-3.777,-3.6724,-3.5894,-3.5504,-3.5504,-3.5504,-3.5504,-3.5504,-3.5504,-3.5504,-3.5504,-3.5733,-3.6117,-3.6446,-3.6843,-3.7279,-3.7632,-3.7978,-3.8302,-3.8358,-3.8596,-3.8832,-3.8541,-3.8358,-3.8246,-3.7921,-3.7515,-3.7219,-3.7632,-3.8035,-3.8318,-3.8318,-3.8656,-3.9022,-3.8517,-3.7953,-3.7263,-3.6059,-3.4933,-3.4101,-3.4118,-3.3508,-3.2861,-3.2883,-3.2036,-3.119,-3.119,-3.119,-3.119,-3.119,-3.119,-3.119,-3.119,-3.119,-3.1086,-3.0711,-3.1679,-3.2353,-3.201,-3.302,-3.3807,-3.3807,-3.3807,-3.3979,-3.4442,-3.4612,-3.487,-3.5289,-3.5488,-3.5621,-3.5638,-3.5736,-3.5845,-3.5947,-3.5975,-3.5996,-3.5996,-3.5996,-3.5996,-3.5996,-3.5996,-3.5996,-3.5996,-3.5972,-3.5973,-3.5996,-3.5861,-3.5841,-3.5896,-3.5716,-3.563,-3.56,-3.5574,-3.5528,-3.5493,-3.5493,-3.5493,-3.5493,-3.8497,-3.905,-3.9424,-3.9424,-3.9424,-3.9481,-3.9666,-3.9666,-3.9666,-3.9666,-3.9269,-3.8883,-3.8631,-3.8033,-3.7956,-3.8727,-3.8209,-3.8122,-3.8679,-3.7544,-3.6615,-3.6037,-3.6022,-3.6022,-3.6022,-3.6022,-3.6022,-3.6022,-3.6022,-3.6305,-3.6904,-3.7068,-3.7483,-3.8092,-3.8262,-3.8318,-3.8374,-3.8924,-3.8745,-3.8149,-3.887,-3.8652,-3.7822,-3.7978,-3.7557,-3.6964,-3.779,-3.8035,-3.8092,-3.8262,-3.9119,-3.9901,-3.8723,-3.8739,-3.8874,-3.7036,-3.5484,-3.4414,-3.4738,-3.3872,-3.3001,-3.3515,-3.2544,-3.1444,-3.1444,-3.1309,-3.119,-3.119,-3.1252,-3.1351,-3.1351,-3.1351,-3.1411,-3.1694,-3.2163,-3.2581,-3.2858,-3.3413,-3.3807,-3.3807,-3.3807,-3.4005,-3.4529,-3.4653,-3.4908,-3.5369,-3.5502,-3.5568,-3.5611,-3.5646,-3.5743,-3.59,-3.5972,-3.5996,-3.5996,-3.5996,-3.5996,-3.5996,-3.5996,-3.5996,-3.5996,-3.5996,-3.5996,-3.5996,-3.5947,-3.5916,-3.5913,-3.5802,-3.5702,-3.5611,-3.5601,-3.555,-3.5493,-3.5493,-3.5493,-3.5493,-3.9215,-3.9394,-3.9424,-3.9424,-3.9424,-3.9666,-4.05,-4.0622,-4.0622,-4.0622,-4.0576,-4.0232,-3.9391,-3.8736,-3.865,-3.9437,-3.8936,-3.8549,-3.8614,-3.7948,-3.7576,-3.7605,-3.7648,-3.7648,-3.7648,-3.7648,-3.7648,-3.7648,-3.7648,-3.7648,-3.7748,-3.8414,-3.8745,-3.8854,-3.961,-3.9901,-3.9901,-4.002,-3.9542,-3.8908,-3.9662,-3.9102,-3.7863,-3.858,-3.8358,-3.7806,-3.858,-3.8799,-3.8908,-3.9679,-4.002,-4.007,-3.9969,-3.9969,-3.9851,-3.9007,-3.7694,-3.6426,-3.5717,-3.4925,-3.4361,-3.4404,-3.3305,-3.2205,-3.2205,-3.1681,-3.119,-3.119,-3.1507,-3.1752,-3.1752,-3.1752,-3.1237,-2.971,-3.1164,-3.1947,-3.0305,-3.2227,-3.3807,-3.3807,-3.3807,-3.3928,-3.4218,-3.4529,-3.4813,-3.5105,-3.5364,-3.5528,-3.56,-3.5601,-3.569,-3.59,-3.5972,-3.5996,-3.5996,-3.5996,-3.5996,-3.5996,-3.5996,-3.5996,-3.5996,-3.5996,-3.5996,-3.5996,-3.5996,-3.5996,-3.5995,-3.5916,-3.5807,-3.5689,-3.5621,-3.555,-3.5493,-3.5493,-3.5493,-3.5493,-3.929,-3.9531,-3.9696,-4.0093,-4.0638,-4.1095,-4.1478,-4.1543,-4.1543,-4.1543,-4.1543,-4.1412,-4.1028,-4.0337,-3.9979,-4.0251,-3.9632,-3.9195,-3.9195,-3.903,-3.8385,-3.7131,-3.7515,-3.7822,-3.7822,-3.7822,-3.7822,-3.7822,-3.7822,-3.8035,-3.8469,-3.8745,-3.9139,-3.9662,-3.9952,-4.007,-4.007,-3.9558,-3.9193,-3.8908,-3.9262,-3.8978,-3.8525,-3.8799,-3.8745,-3.8469,-3.8246,-3.8525,-3.8854,-3.8707,-3.9279,-4.002,-3.9489,-3.9731,-3.9851,-3.8667,-3.7584,-3.6603,-3.5825,-3.5064,-3.4387,-3.3931,-3.3034,-3.2195,-3.1698,-3.1393,-3.119,-3.119,-3.1507,-3.1789,-3.1789,-3.2022,-3.2017,-3.1331,-3.2206,-3.2691,-3.2014,-3.2995,-3.3807,-3.3807,-3.3807,-3.3902,-3.4152,-3.4508,-3.4793,-3.5088,-3.5354,-3.5515,-3.554,-3.5577,-3.5631,-3.5706,-3.5869,-3.595,-3.5996,-3.5996,-3.5996,-3.5996,-3.5996,-3.5996,-3.5996,-3.5996,-3.5996,-3.5996,-3.5996,-3.5996,-3.5996,-3.5973,-3.5916,-3.5812,-3.5805,-3.5693,-3.5562,-3.5562,-3.554,-3.5493,-3.9634,-3.9637,-3.9825,-4.0545,-4.0961,-4.1478,-4.2252,-4.2189,-4.2125,-4.2379,-4.2395,-4.2316,-4.2062,-4.1478,-4.108,-4.108,-4.0657,-4.0275,-3.9941,-3.9814,-3.9202,-3.8002,-3.8504,-3.8829,-3.89,-3.8884,-3.8602,-3.8149,-3.8374,-3.8652,-3.8908,-3.9139,-3.9558,-4.007,-4.007,-4.007,-4.007,-3.9489,-3.9139,-3.8908,-3.9193,-3.8978,-3.858,-3.8799,-3.8745,-3.8525,-3.8246,-3.8469,-3.8854,-3.8596,-3.9226,-4.002,-3.9437,-3.9662,-3.9834,-3.8616,-3.7889,-3.7313,-3.6552,-3.5605,-3.4675,-3.3931,-3.3186,-3.2442,-3.1698,-3.136,-3.1258,-3.1495,-3.1661,-3.2,-3.2649,-3.2826,-3.2971,-3.3248,-3.3453,-3.3533,-3.3415,-3.3625,-3.3807,-3.3807,-3.3807,-3.3876,-3.4068,-3.4357,-3.4655,-3.4963,-3.5223,-3.5417,-3.5493,-3.5534,-3.5577,-3.5611,-3.5728,-3.5869,-3.5972,-3.5996,-3.5996,-3.5996,-3.5996,-3.5996,-3.5996,-3.5996,-3.5996,-3.5996,-3.5996,-3.5996,-3.5996,-3.5996,-3.5951,-3.5903,-3.5903,-3.5781,-3.5611,-3.5611,-3.555,-3.5493,-4.0412,-3.9873,-3.9666,-4.0569,-3.999,-4.0339,-4.2909,-4.2583,-4.2316,-4.3185,-4.3306,-4.297,-4.2125,-4.1997,-4.1997,-4.1997,-4.1997,-4.1609,-4.0758,-4.0003,-4.0007,-4.0959,-4.0968,-4.105,-4.1169,-4.1204,-4.0433,-3.8924,-3.9679,-3.9679,-3.8924,-3.9731,-4.007,-4.007,-4.007,-4.007,-4.007,-4.007,-3.961,-3.8962,-3.9782,-3.9172,-3.7863,-3.8635,-3.8469,-3.7921,-3.8635,-3.8908,-3.9016,-3.9833,-4.007,-4.007,-4.007,-4.007,-3.9935,-3.9208,-3.8988,-3.8836,-3.8108,-3.6789,-3.5453,-3.4692,-3.3947,-3.322,-3.2459,-3.1732,-3.141,-3.2178,-3.2038,-3.2438,-3.4447,-3.4198,-3.4002,-3.4859,-3.4684,-3.4274,-3.3844,-3.3807,-3.3807,-3.3807,-3.3807,-3.3807,-3.3807,-3.4043,-3.4334,-3.4674,-3.4944,-3.5223,-3.5493,-3.5493,-3.5528,-3.56,-3.5611,-3.571,-3.59,-3.5953,-3.5996,-3.5996,-3.5996,-3.5996,-3.5996,-3.5996,-3.5996,-3.5996,-3.5996,-3.5996,-3.5996,-3.5996,-3.5951,-3.5903,-3.5903,-3.5788,-3.5591,-3.5591,-3.555,-3.5507,-4.1085,-4.0709,-4.0516,-4.1272,-4.1289,-4.1478,-4.2252,-4.2189,-4.2316,-4.3185,-4.3306,-4.3426,-4.3798,-4.329,-4.2909,-4.2909,-4.2316,-4.1609,-4.0758,-4.0504,-4.0489,-4.0781,-4.0414,-4.0167,-4.0193,-4.0193,-3.9962,-3.95,-3.9307,-3.9064,-3.8818,-3.9101,-3.9262,-3.9262,-3.985,-4.007,-4.007,-3.9489,-3.8816,-3.8189,-3.8978,-3.8652,-3.7863,-3.8635,-3.9086,-3.9385,-3.9032,-3.9262,-3.9782,-4.002,-4.007,-4.007,-4.007,-4.007,-3.9935,-3.9208,-3.8988,-3.8836,-3.8108,-3.7195,-3.6248,-3.5487,-3.4336,-3.3339,-3.3119,-3.2899,-3.2814,-3.3034,-3.3254,-3.3592,-3.4196,-3.4677,-3.4763,-3.4124,-3.4969,-3.5184,-3.359,-3.4118,-3.4431,-3.3862,-3.3807,-3.3807,-3.3807,-3.4043,-3.4334,-3.4674,-3.5122,-3.5417,-3.5493,-3.5493,-3.5501,-3.5515,-3.5577,-3.5631,-3.5702,-3.5755,-3.5834,-3.594,-3.5834,-3.5792,-3.5792,-3.5792,-3.5834,-3.594,-3.594,-3.595,-3.5996,-3.5996,-3.5996,-3.5973,-3.5973,-3.5893,-3.5811,-3.5811,-3.571,-3.5566,-4.1773,-4.1379,-4.1152,-4.1588,-4.1526,-4.1543,-4.1917,-4.1739,-4.1804,-4.2645,-4.2785,-4.297,-4.3545,-4.3092,-4.2785,-4.2785,-4.2316,-4.1609,-4.0758,-4.069,-4.0554,-4.017,-3.9864,-3.9799,-4.021,-4.021,-3.9942,-3.9361,-3.9243,-3.9036,-3.8714,-3.9105,-3.9429,-3.9748,-3.9982,-4.0392,-4.0933,-4.011,-3.9369,-3.874,-3.9188,-3.873,-3.7863,-3.8635,-3.9193,-3.961,-3.942,-3.9662,-4.007,-4.007,-4.007,-4.007,-4.007,-4.007,-3.9986,-3.9546,-3.9428,-3.9326,-3.8886,-3.7804,-3.6738,-3.6569,-3.5165,-3.3761,-3.3474,-3.3406,-3.3491,-3.3778,-3.3843,-3.4077,-3.4864,-3.5232,-3.5279,-3.4902,-3.5742,-3.5982,-3.4611,-3.5042,-3.533,-3.4853,-3.4486,-3.4284,-3.4284,-3.412,-3.4218,-3.4674,-3.5105,-3.5383,-3.5493,-3.5493,-3.5493,-3.5493,-3.554,-3.5566,-3.5611,-3.5621,-3.569,-3.5812,-3.5749,-3.5703,-3.5703,-3.5703,-3.5766,-3.5903,-3.5903,-3.5942,-3.5996,-3.5996,-3.5996,-3.5996,-3.5996,-3.5951,-3.5903,-3.5903,-3.578,-3.5648,-4.2447,-4.1923,-4.1565,-4.1699,-4.1013,-4.0739,-4.1878,-4.1292,-4.1028,-4.2077,-4.2173,-4.2125,-4.2125,-4.2125,-4.2062,-4.1997,-4.1997,-4.1609,-4.0758,-4.069,-4.0309,-3.9409,-3.9424,-3.9856,-4.0769,-4.0753,-4.0053,-3.8681,-3.9361,-3.933,-3.8573,-3.9425,-4.014,-4.0787,-4.0291,-4.0845,-4.2129,-4.1386,-4.0679,-4.0084,-4.0073,-3.9201,-3.7863,-3.8635,-3.8854,-3.8924,-3.961,-3.9952,-4.002,-4.007,-4.007,-4.007,-4.007,-4.007,-4.007,-4.007,-4.007,-4.007,-4.007,-3.8565,-3.7144,-3.7838,-3.6332,-3.4506,-3.3778,-3.3609,-3.3795,-3.4455,-3.4066,-3.4168,-3.6008,-3.5803,-3.564,-3.6449,-3.6658,-3.6624,-3.6278,-3.6282,-3.6347,-3.6303,-3.5605,-3.5119,-3.5119,-3.4421,-3.4173,-3.4766,-3.4982,-3.5223,-3.5493,-3.5493,-3.5493,-3.5493,-3.5493,-3.5515,-3.559,-3.5528,-3.5574,-3.5689,-3.5682,-3.5682,-3.5682,-3.5682,-3.5749,-3.5877,-3.5877,-3.5921,-3.5996,-3.5996,-3.5996,-3.5996,-3.5996,-3.5951,-3.5907,-3.5907,-3.5836,-3.5717,-4.312,-4.2596,-4.2179,-4.2243,-4.122,-4.0928,-4.2365,-4.151,-4.1468,-4.3597,-4.3391,-4.3047,-4.3047,-4.3047,-4.2707,-4.2062,-4.1997,-4.1609,-4.0758,-4.069,-4.0309,-3.9409,-3.9424,-3.9478,-3.9722,-3.9722,-3.9592,-3.9244,-3.8895,-3.8622,-3.8415,-3.8753,-3.8952,-3.9141,-3.9642,-4.0384,-4.122,-4.0475,-4.0122,-4.0089,-4.0096,-3.9197,-3.7863,-3.8635,-3.8525,-3.8035,-3.8262,-3.8652,-3.9262,-3.9901,-4.007,-4.007,-4.007,-4.007,-4.007,-4.007,-4.007,-4.007,-4.007,-3.9309,-3.8548,-3.8717,-3.7516,-3.6079,-3.5318,-3.5131,-3.5182,-3.5351,-3.525,-3.5277,-3.5671,-3.6002,-3.6006,-3.558,-3.6406,-3.6774,-3.5828,-3.6204,-3.6531,-3.6329,-3.6138,-3.6028,-3.6028,-3.5465,-3.5272,-3.5614,-3.5305,-3.5223,-3.5493,-3.5493,-3.5493,-3.5493,-3.5493,-3.552,-3.5522,-3.5501,-3.5534,-3.5611,-3.5574,-3.5534,-3.5534,-3.5534,-3.5621,-3.5729,-3.5729,-3.5838,-3.5996,-3.5996,-3.5996,-3.5996,-3.5996,-3.5996,-3.5975,-3.5975,-3.5923,-3.5841,-4.3329,-4.306,-4.2731,-4.2417,-4.1788,-4.155,-4.2056,-4.1586,-4.1653,-4.294,-4.2831,-4.2645,-4.2645,-4.2316,-4.1739,-4.0842,-4.1543,-4.1478,-4.0185,-4.05,-4.0309,-3.9409,-3.9424,-3.9424,-3.9424,-3.9424,-3.9424,-3.9424,-3.905,-3.8886,-3.8856,-3.9045,-3.9276,-3.9606,-3.9708,-4.0651,-4.2029,-4.088,-4.0453,-4.0479,-4.0089,-3.8996,-3.7768,-3.8576,-3.865,-3.8374,-3.8761,-3.9156,-3.9558,-3.9952,-4.007,-4.007,-4.007,-4.007,-4.007,-4.007,-4.007,-4.007,-4.007,-3.9546,-3.8988,-3.8988,-3.8142,-3.711,-3.6349,-3.5893,-3.5622,-3.5622,-3.5622,-3.5622,-3.5622,-3.6054,-3.6359,-3.6182,-3.6945,-3.7416,-3.7057,-3.7394,-3.7598,-3.7466,-3.711,-3.656,-3.5771,-3.5581,-3.5437,-3.5331,-3.5191,-3.5223,-3.5493,-3.5493,-3.5493,-3.5493,-3.5493,-3.5493,-3.5493,-3.5493,-3.5528,-3.5558,-3.5528,-3.5493,-3.5493,-3.5493,-3.557,-3.5655,-3.5682,-3.5792,-3.595,-3.5995,-3.5996,-3.5996,-3.5996,-3.5996,-3.5996,-3.5996,-3.5974,-3.5923,-4.3329,-4.3329,-4.3165,-4.2626,-4.2432,-4.2299,-4.1987,-4.1882,-4.2031,-4.2473,-4.2439,-4.2366,-4.243,-4.1541,-4.0638,-3.9935,-4.1028,-4.1147,-3.9737,-4.0185,-4.0185,-3.9409,-3.9424,-3.9424,-3.9424,-3.9424,-3.9424,-3.9424,-3.9424,-3.9424,-3.9409,-3.9688,-4.0096,-4.0696,-4.0341,-4.1358,-4.3196,-4.1905,-4.1257,-4.1128,-4.0547,-3.9408,-3.8107,-3.8902,-3.9194,-3.9144,-3.9671,-3.9883,-3.9901,-4.007,-4.007,-4.007,-4.007,-4.007,-4.007,-4.007,-4.007,-4.007,-4.007,-3.9631,-3.9174,-3.9174,-3.8633,-3.7922,-3.7297,-3.6468,-3.5774,-3.5639,-3.5622,-3.5622,-3.5622,-3.5985,-3.6416,-3.6865,-3.7342,-3.7843,-3.8368,-3.8515,-3.8596,-3.8707,-3.8102,-3.711,-3.5587,-3.5565,-3.5421,-3.4873,-3.4908,-3.5069,-3.5354,-3.5417,-3.5432,-3.5432,-3.5479,-3.5493,-3.5493,-3.5493,-3.5493,-3.5493,-3.5493,-3.5493,-3.5493,-3.5493,-3.554,-3.5591,-3.5663,-3.5749,-3.5873,-3.5927,-3.5953,-3.5953,-3.5975,-3.5974,-3.5954,-3.5975,-3.5996,-3.5996,-4.3329,-4.3329,-4.3299,-4.321,-4.2746,-4.2816,-4.4172,-4.3303,-4.338,-4.5553,-4.4736,-4.4027,-4.4072,-4.275,-4.1804,-4.1674,-4.1147,-4.0758,-4.0569,-3.9935,-3.9538,-3.9424,-3.9424,-3.9424,-3.9424,-3.9424,-3.9424,-3.9424,-3.9424,-3.9424,-3.9409,-4.0217,-4.0597,-4.0743,-4.1403,-4.228,-4.3306,-4.307,-4.26,-4.2085,-4.2682,-4.1559,-3.9681,-4.0547,-4.0482,-3.9785,-3.9263,-3.9047,-3.9139,-3.985,-4.007,-4.007,-4.007,-4.007,-4.007,-4.007,-4.007,-4.007,-4.007,-4.0003,-3.9935,-3.9935,-3.9394,-3.8819,-3.8717,-3.7618,-3.6434,-3.5757,-3.5622,-3.5622,-3.5622,-3.565,-3.5739,-3.581,-3.6249,-3.6803,-3.734,-3.7773,-3.8183,-3.8627,-3.8597,-3.8175,-3.7239,-3.6581,-3.5974,-3.544,-3.4722,-3.4449,-3.4793,-3.5035,-3.5138,-3.5138,-3.5383,-3.5493,-3.5493,-3.5493,-3.5493,-3.5493,-3.5493,-3.5493,-3.5493,-3.5493,-3.554,-3.5591,-3.5611,-3.5666,-3.5723,-3.5735,-3.5741,-3.5747,-3.5877,-3.5849,-3.5747,-3.5877,-3.5948,-3.5996,-4.3329,-4.3329,-4.3329,-4.3329,-4.309,-4.3142,-4.3881,-4.353,-4.3635,-4.477,-4.4951,-4.4759,-4.441,-4.3795,-4.3092,-4.2062,-4.2062,-4.1933,-4.1478,-4.1095,-4.0842,-4.0842,-4.0378,-4.0115,-4.0115,-3.9681,-3.9424,-3.9424,-3.9424,-3.9424,-3.9424,-3.9793,-3.999,-3.999,-4.0378,-4.1028,-4.1804,-4.1362,-4.15,-4.2113,-4.1957,-4.1598,-4.1222,-4.1608,-4.1576,-4.1259,-4.0905,-4.0546,-4.023,-4.0577,-4.0426,-4.007,-4.007,-4.007,-4.007,-4.007,-4.007,-4.007,-4.007,-4.007,-4.007,-4.007,-3.9834,-3.9495,-3.9089,-3.8481,-3.7686,-3.6502,-3.5926,-3.5622,-3.5622,-3.5854,-3.6071,-3.6071,-3.6706,-3.7305,-3.7542,-3.8032,-3.8415,-3.8658,-3.8707,-3.8377,-3.7599,-3.6897,-3.6237,-3.5535,-3.4866,-3.4551,-3.4694,-3.4813,-3.4889,-3.4889,-3.5138,-3.5273,-3.5273,-3.5432,-3.5493,-3.5493,-3.5493,-3.5493,-3.5493,-3.5493,-3.5528,-3.5546,-3.5579,-3.5621,-3.5638,-3.5682,-3.5703,-3.571,-3.5766,-3.5755,-3.5717,-3.5845,-3.5913,-3.5948]},{"header":{"parameterUnit":"m.s-1","parameterCategory":1,"la1":30.6,"la2":28.766,"lo1":-90.7593,"lo2":-88.6598,"dx":0.0162,"dy":0.0183,"nx":116,"ny":114,"refTime":"2022-12-31T06:00:00:Z","depth":0,"parameterNumber":3,"parameterNumberName":"V-component_of_WINDS"},"data":[0.0,0.0,0.0,0.0,0.0,0.0,0.0,0.0,0.0,0.0,0.0,0.0,0.0,0.0,0.0,0.0,0.0,0.0,0.0,0.0,0.0,0.0,0.0,0.0,0.0,0.0,0.0,0.0,0.0,0.0,0.0,0.0,0.0,0.0,0.0,0.0,0.0,0.0,0.0,0.0,0.0,0.0,0.0,0.0,0.0,0.0,0.0,0.0,0.0,0.0,0.0,0.0,0.0,0.0,0.0,0.0,0.0,0.0,0.0,0.0,0.0,0.0,0.0,0.0,0.0,0.0,0.0,0.0,0.0,0.0,0.0,0.0,0.0,0.0,0.0,0.0,0.0,0.0,0.0,0.0,0.0,0.0,0.0,0.0,0.0,0.0,0.0,0.0,0.0,0.0,0.0,0.0,0.0,0.0,0.0,0.0,0.0,0.0,0.0,0.0,0.0,0.0,0.0,0.0,0.0,0.0,0.0,0.0,0.0,0.0,0.0,0.0,0.0,0.0,0.0,0.0,0.0,0.0,0.0,0.0,0.0,0.0,0.0,0.0,0.0,0.0,0.0,0.0,0.0,0.0,0.0,0.0,0.0,0.0,0.0,0.0,0.0,0.0,0.0,0.0,0.0,0.0,0.0,0.0,0.0,0.0,0.0,0.0,0.0,0.0,0.0,0.0,0.0,0.0,0.0,0.0,0.0,0.0,0.0,0.0,0.0,0.0,0.0,0.0,0.0,0.0,0.0,0.0,0.0,0.0,0.0,0.0,0.0,0.0,0.0,0.0,0.0,0.0,0.0,0.0,0.0,0.0,0.0,0.0,0.0,0.0,0.0,0.0,0.0,0.0,0.0,0.0,0.0,0.0,0.0,0.0,0.0,0.0,0.0,0.0,0.0,0.0,0.0,0.0,0.0,0.0,0.0,0.0,0.0,0.0,0.0,0.0,0.0,0.0,0.0,0.0,0.0,0.0,0.0,0.0,0.0,0.0,0.0,0.0,0.0,0.0,0.0,0.0,0.0,0.0,0.0,0.0,0.0,0.0,0.0,0.0,0.0,0.0,0.0,0.0,0.0,0.0,0.0,0.0,0.0,0.0,0.0,0.0,0.0,0.0,0.0,0.0,0.0,0.0,0.0,0.0,0.0,0.0,0.0,0.0,0.0,0.0,0.0,0.0,0.0,0.0,0.0,0.0,0.0,0.0,0.0,0.0,0.0,0.0,0.0,0.0,0.0,0.0,0.0,0.0,0.0,0.0,0.0,0.0,0.0,0.0,0.0,0.0,0.0,0.0,0.0,0.0,0.0,0.0,0.0,0.0,0.0,0.0,0.0,0.0,0.0,0.0,0.0,0.0,0.0,0.0,0.0,0.0,0.0,0.0,0.0,0.0,0.0,0.0,0.0,0.0,0.0,0.0,0.0,0.0,0.0,0.0,0.0,0.0,0.0,0.0,0.0,0.0,0.0,0.0,0.0,0.0,0.0,0.0,0.0,0.0,0.0,0.0,0.0,0.0,0.0,0.0,0.0,0.0,0.0,0.0,0.0,0.0,0.0,0.0,0.0,0.0,0.0,0.0,0.0,0.0,0.0,0.0,0.0,0.0,0.0,0.0,0.0,0.0,0.0,0.0,0.0,0.0,0.0,0.0,0.0,0.0,0.0,0.0,0.0,0.0,0.0,0.0,0.0,0.0,0.0,0.0,0.0,0.0,0.0,0.0,0.0,0.0,0.0,0.0,0.0,0.0,0.0,0.0,0.0,0.0,0.0,0.0,0.0,0.0,0.0,0.0,0.0,0.0,0.0,0.0,0.0,0.0,0.0,0.0,0.0,0.0,0.0,0.0,0.0,0.0,0.0,0.0,0.0,0.0,0.0,0.0,0.0,0.0,0.0,0.0,0.0,0.0,0.0,0.0,0.0,0.0,0.0,0.0,0.0,0.0,0.0,0.0,0.0,0.0,0.0,0.0,0.0,0.0,0.0,0.0,0.0,0.0,0.0,0.0,0.0,0.0,0.0,0.0,0.0,0.0,0.0,0.0,0.0,0.0,0.0,0.0,0.0,0.0,0.0,0.0,0.0,0.0,0.0,0.0,0.0,0.0,0.0,0.0,0.0,0.0,0.0,0.0,0.0,0.0,0.0,0.0,0.0,0.0,0.0,0.0,0.0,0.0,0.0,0.0,0.0,0.0,0.0,0.0,0.0,0.0,0.0,0.0,0.0,0.0,0.0,0.0,0.0,0.0,0.0,0.0,0.0,0.0,0.0,0.0,0.0,0.0,0.0,0.0,0.0,0.0,0.0,0.0,0.0,0.0,0.0,0.0,0.0,0.0,0.0,0.0,0.0,0.0,0.0,0.0,0.0,0.0,0.0,0.0,0.0,0.0,0.0,0.0,0.0,0.0,0.0,0.0,0.0,0.0,0.0,0.0,0.0,0.0,0.0,0.0,0.0,0.0,0.0,0.0,0.0,0.0,0.0,0.0,0.0,0.0,0.0,0.0,0.0,0.0,0.0,0.0,0.0,0.0,0.0,0.0,0.0,0.0,0.0,0.0,0.0,0.0,0.0,0.0,0.0,0.0,0.0,0.0,0.0,0.0,0.0,0.0,0.0,0.0,0.0,0.0,0.0,0.0,0.0,0.0,0.0,0.0,0.0,0.0,0.0,0.0,0.0,0.0,0.0,0.0,0.0,0.0,0.0,0.0,0.0,0.0,0.0,0.0,0.0,0.0,0.0,0.0,0.0,0.0,0.0,0.0,0.0,0.0,0.0,0.0,0.0,0.0,0.0,0.0,0.0,0.0,0.0,0.0,0.0,0.0,0.0,0.0,0.0,0.0,0.0,0.0,0.0,0.0,0.0,0.0,0.0,0.0,0.0,0.0,0.0,0.0,0.0,0.0,0.0,0.0,0.0,0.0,0.0,0.0,0.0,0.0,0.0,0.0,0.0,0.0,0.0,0.0,0.0,0.0,0.0,0.0,0.0,0.0,0.0,0.0,0.0,0.0,0.0,0.0,0.0,0.0,0.0,0.0,0.0,0.0,0.0,0.0,0.0,0.0,0.0,0.0,0.0,0.0,0.0,0.0,0.0,0.0,0.0,0.0,0.0,0.0,0.0,0.0,0.0,0.0,0.0,0.0,0.0,0.0,0.0,0.0,0.0,0.0,0.0,0.0,0.0,0.0,0.0,0.0,0.0,0.0,0.0,0.0,0.0,0.0,0.0,0.0,0.0,0.0,0.0,0.0,0.0,0.0,0.0,0.0,0.0,0.0,0.0,0.0,0.0,0.0,0.0,0.0,0.0,0.0,0.0,0.0,0.0,0.0,0.0,0.0,0.0,0.0,0.0,0.0,0.0,0.0,0.0,0.0,0.0,0.0,0.0,0.0,0.0,0.0,0.0,0.0,0.0,0.0,0.0,0.0,0.0,0.0,0.0,0.0,0.0,0.0,0.0,0.0,0.0,0.0,0.0,0.0,0.0,0.0,0.0,0.0,0.0,0.0,0.0,0.0,0.0,0.0,0.0,0.0,0.0,0.0,0.0,0.0,0.0,0.0,0.0,0.0,0.0,0.0,0.0,0.0,0.0,0.0,0.0,0.0,0.0,0.0,0.0,0.0,0.0,0.0,0.0,0.0,0.0,0.0,0.0,0.0,0.0,0.0,0.0,0.0,0.0,0.0,0.0,0.0,0.0,0.0,0.0,0.0,0.0,0.0,0.0,0.0,0.0,0.0,0.0,0.0,0.0,0.0,0.0,0.0,0.0,0.0,0.0,0.0,0.0,0.0,0.0,0.0,0.0,0.0,0.0,0.0,0.0,0.0,0.0,0.0,0.0,0.0,0.0,0.0,0.0,0.0,0.0,0.0,0.0,0.0,0.0,0.0,0.0,0.0,0.0,0.0,0.0,0.0,0.0,0.0,0.0,0.0,0.0,0.0,0.0,0.0,0.0,0.0,0.0,0.0,0.0,0.0,0.0,0.0,0.0,0.0,0.0,0.0,0.0,0.0,0.0,0.0,0.0,0.0,0.0,0.0,0.0,0.0,0.0,0.0,0.0,0.0,0.0,0.0,0.0,0.0,0.0,0.0,0.0,0.0,0.0,0.0,0.0,0.0,0.0,0.0,0.0,0.0,0.0,0.0,0.0,0.0,0.0,0.0,0.0,0.0,0.0,0.0,0.0,0.0,0.0,0.0,0.0,0.0,0.0,0.0,0.0,0.0,0.0,0.0,0.0,0.0,0.0,0.0,0.0,0.0,0.0,0.0,0.0,0.0,0.0,0.0,0.0,0.0,0.0,0.0,0.0,0.0,0.0,0.0,0.0,0.0,0.0,0.0,0.0,0.0,0.0,0.0,0.0,0.0,0.0,0.0,0.0,0.0,0.0,0.0,0.0,0.0,0.0,0.0,0.0,0.0,0.0,0.0,0.0,0.0,0.0,0.0,0.0,0.0,0.0,0.0,0.0,0.0,0.0,0.0,0.0,0.0,0.0,0.0,0.0,0.0,0.0,0.0,0.0,0.0,0.0,0.0,0.0,0.0,0.0,0.0,0.0,0.0,0.0,0.0,0.0,0.0,0.0,0.0,0.0,0.0,0.0,0.0,0.0,0.0,0.0,0.0,0.0,0.0,0.0,0.0,0.0,0.0,0.0,0.0,0.0,0.0,0.0,0.0,0.0,0.0,0.0,0.0,0.0,0.0,0.0,0.0,0.0,0.0,0.0,0.0,0.0,0.0,0.0,0.0,0.0,0.0,0.0,0.0,0.0,0.0,0.0,0.0,0.0,0.0,0.0,0.0,0.0,0.0,0.0,0.0,0.0,0.0,0.0,0.0,0.0,0.0,0.0,0.0,0.0,0.0,0.0,0.0,0.0,0.0,0.0,0.0,0.0,0.0,0.0,0.0,0.0,0.0,0.0,0.0,0.0,0.0,0.0,0.0,0.0,0.0,0.0,0.0,0.0,0.0,0.0,0.0,0.0,0.0,0.0,0.0,0.0,0.0,0.0,0.0,0.0,0.0,0.0,0.0,0.0,0.0,0.0,0.0,0.0,0.0,0.0,0.0,0.0,0.0,0.0,0.0,0.0,0.0,0.0,0.0,0.0,0.0,0.0,0.0,0.0,0.0,0.0,0.0,0.0,0.0,0.0,0.0,0.0,0.0,0.0,0.0,0.0,0.0,0.0,0.0,0.0,0.0,0.0,0.0,0.0,0.0,0.0,0.0,0.0,0.0,0.0,0.0,0.0,0.0,0.0,0.0,0.0,0.0,0.0,0.0,0.0,0.0,0.0,0.0,0.0,0.0,0.0,0.0,0.0,0.0,0.0,0.0,0.0,0.0,0.0,0.0,0.0,0.0,0.0,0.0,0.0,0.0,0.0,0.0,0.0,0.0,0.0,0.0,0.0,0.0,0.0,0.0,0.0,0.0,0.0,0.0,0.0,0.0,0.0,0.0,0.0,0.0,0.0,0.0,0.0,0.0,0.0,0.0,0.0,0.0,0.0,0.0,0.0,0.0,0.0,0.0,0.0,0.0,0.0,0.0,0.0,0.0,0.0,0.0,0.0,0.0,0.0,0.0,0.0,0.0,0.0,0.0,0.0,0.0,0.0,0.0,0.0,0.0,0.0,0.0,0.0,0.0,0.0,0.0,0.0,0.0,0.0,0.0,0.0,0.0,0.0,0.0,0.0,0.0,0.0,0.0,0.0,0.0,0.0,0.0,0.0,0.0,0.0,0.0,0.0,0.0,0.0,0.0,0.0,0.0,0.0,0.0,0.0,0.0,0.0,0.0,0.0,0.0,0.0,0.0,0.0,0.0,0.0,0.0,0.0,0.0,0.0,0.0,0.0,0.0,0.0,0.0,0.0,0.0,0.0,0.0,0.0,0.0,0.0,0.0,0.0,0.0,0.0,0.0,0.0,0.0,0.0,0.0,0.0,0.0,0.0,0.0,0.0,0.0,0.0,0.0,0.0,0.0,0.0,0.0,0.0,0.0,0.0,0.0,0.0,0.0,0.0,0.0,0.0,0.0,0.0,0.0,0.0,0.0,0.0,0.0,0.0,0.0,0.0,0.0,0.0,0.0,0.0,0.0,0.0,0.0,0.0,0.0,0.0,0.0,0.0,0.0,-0.4945,-0.4417,0.0,0.0,0.0,0.0,0.0,0.0,0.0,0.0,0.0,0.0,0.0,0.0,0.0,0.0,0.0,0.0,0.0,0.0,0.0,0.0,0.0,0.0,0.0,0.2261,0.2703,0.1868,0.0698,0.0,0.0,0.0,0.0,0.0,0.0,0.0,0.0,0.0,0.3371,0.3353,0.5725,0.7523,0.8724,0.5077,0.261,0.124,0.0,0.0,0.0,0.0,0.0,0.0,0.0,0.0,0.0,0.0,0.0,0.0,0.0,0.0,0.0,0.0,0.0,0.0,0.0,0.0,0.0,0.0,0.0,0.0,0.0,0.0,0.0,0.0,0.0,0.0,0.0,0.0,0.0,0.0,0.0,0.0,0.0,0.0,0.0,0.0,0.0,0.0,0.0,0.0,0.0,0.0,0.0,0.0,0.0,0.0,0.0,0.0,0.0,0.0,0.0,0.0,0.0,0.0,0.0,0.0,0.0,0.0,0.0,0.0,0.0,0.0,0.0,0.0,0.0,0.0,-0.8254,-0.7377,0.0,0.0,0.0,0.0,0.0,0.0,0.0,0.0,0.0,0.0,0.0,0.0,0.0,0.0,0.0,0.0,0.0,0.0,0.0,0.0,0.0,0.2266,0.1719,0.2633,0.2995,0.2319,0.1155,0.0358,0.0088,0.0025,0.0,0.0,0.0,0.0,0.0911,0.4715,0.6898,0.7326,0.8185,0.8553,0.8462,0.7406,0.5676,0.3419,0.2829,0.0,0.0,0.0,0.0,0.0,0.0,0.0,0.0,0.0,0.0,0.0,0.0,0.0,0.0,0.0,0.0,0.0,0.0,0.0,0.0,0.0,0.0,0.0,0.0,0.0,0.0,0.0,0.0,0.0,0.0,0.0,0.0,0.0,0.0,0.0,0.0,0.0,0.0,0.0,0.0,0.0,0.0,0.0,0.0,0.0,0.0,0.0,0.0,0.0,0.0,0.0,0.0,0.0,0.0,0.0,0.0,0.0,0.0,0.0,0.0,0.0,0.0,0.0,-0.3779,-0.5359,-0.6667,-0.9116,-1.0924,-1.215,-1.2041,-1.1069,-0.9496,-0.833,0.0,0.0,0.0,0.0,0.0,0.0,0.0,0.0,0.0,0.0,0.0,0.0,0.0,0.0,0.0,0.0,0.0,0.0,0.0,0.2625,0.4509,0.3325,0.2827,0.3949,0.2998,0.178,0.0434,0.013,0.0,0.0,0.0,0.0,0.4539,0.5214,0.653,0.8548,0.8084,0.7614,0.7212,0.6847,0.6717,0.6834,0.5988,0.5874,0.6251,0.0,0.0,0.0,0.0,0.0,0.0,0.0,0.0,0.0,0.0,0.0,0.0,0.0,0.0,0.0,0.0,0.0,0.0,0.0,0.0,0.0,0.0,0.0,0.0,0.0,0.0,0.0,0.0,0.0,0.0,0.0,0.0,0.0,0.0,0.0,0.0,0.0,0.0,0.0,0.0,0.0,0.5925,0.5338,0.0,0.0,0.0,0.0,0.0,0.0,0.0,0.0,0.0,0.0,0.0,0.0,0.0,-0.0244,0.01,-0.0438,-0.1642,-0.35,-0.5342,-0.7548,-1.0091,-1.2135,-1.3956,-1.5619,-1.6655,0.0,-1.2782,-1.3655,0.0,0.0,0.0,0.0,0.0,0.0,0.0,0.0,0.0,0.0,0.0,0.0,0.0,0.0,0.0,0.0,0.0,0.0,0.0,0.0,0.0,0.3672,0.3367,0.3646,0.3554,0.3003,0.1875,0.0993,0.0,0.0,0.0,0.2699,0.4251,0.558,0.7096,0.8789,0.8316,0.824,0.8498,0.7879,0.7756,0.799,0.7559,0.7018,0.6466,0.665,0.0,0.0,0.0,0.0,0.0,0.0,0.0,0.0,0.0,0.0,0.0,0.0,0.0,0.0,0.0,0.0,0.0,0.0,0.0,0.0,0.0,0.0,0.0,0.0,0.0,0.0,0.0,0.0,0.0,0.0,0.0,0.0,0.0,0.0,0.0,0.0,0.0,0.0,0.0,0.6503,0.6763,0.616,0.6177,0.5837,0.0,0.0,0.0,0.0,0.0,0.0,0.0,0.0,0.0,-0.0753,-0.1409,-0.1561,-0.1114,-0.1646,-0.2859,-0.471,-0.7031,-0.9418,-1.1877,-1.444,-1.637,-1.7754,-1.9341,-1.9107,-1.7584,-1.6926,-1.6087,-1.4652,0.0,0.0,0.0,0.0,-0.8112,-0.9036,0.0,0.0,0.0,0.0,0.0,0.0,0.0,0.0,0.0,0.0,0.0,0.0,0.3752,0.3981,0.3953,0.3474,0.3644,0.3713,0.348,0.217,0.1023,0.0141,0.1853,0.3052,0.3511,0.5827,0.7387,0.8141,0.8304,0.8838,0.959,0.8806,0.8449,0.8622,0.8391,0.7756,0.682,0.7526,0.7059,0.5558,0.0,0.0,0.0,0.0,0.0,0.0,0.0,0.0,0.0,0.0,0.0,0.0,0.0,0.0,0.0,0.0,0.0,0.0,0.0,0.0,0.0,0.0,0.0,0.0,0.0,0.0,0.0,0.0,0.0,0.0,0.0,0.0,0.0,0.0,0.0,0.0,0.0,0.6658,0.6967,0.6578,0.6327,0.5672,0.0,0.0,0.0,0.0,0.0,0.0,-0.0034,-0.135,-0.1988,-0.1922,-0.2634,-0.2807,-0.2309,-0.2934,-0.4139,-0.5969,-0.8532,-1.0928,-1.3154,-1.596,-1.7917,-1.9243,-2.0831,-2.1364,-2.1035,-1.9722,-1.9243,-1.8722,-1.2962,-0.9902,-0.8781,-0.8814,-0.8718,-0.882,0.0,0.0,0.0,0.0,0.0,0.0,0.0,0.0,0.0,0.0,0.0,0.4538,0.4625,0.4382,0.423,0.4318,0.348,0.3553,0.4897,0.3607,0.2073,0.0449,0.0803,0.1845,0.3547,0.5881,0.6855,0.6314,0.7745,0.8698,0.9285,0.8675,0.87,0.9117,0.8642,0.8468,0.8511,0.7756,0.8422,0.9639,0.5685,0.0,0.0,0.0,0.0,0.0,0.0,0.0,0.0,0.0,0.0,0.0,0.0,0.0,0.0,0.0,0.0,0.0,0.0,0.0,0.0,0.0,0.0,0.0,0.0,0.0,0.0,0.0,0.0,0.0,0.0,0.0,0.0,0.0,0.0,0.0,0.0,0.0,0.0,0.5765,0.5246,0.0,0.0,0.0,0.0,0.2597,0.1136,0.0247,0.0172,-0.2523,-0.346,-0.2236,-0.3337,-0.3627,-0.3055,-0.3791,-0.5192,-0.7315,-0.955,-1.1946,-1.4496,-1.6351,-1.8264,-2.0156,-2.1115,-2.1516,-2.1655,-2.2555,-2.001,-1.5484,-1.4588,-1.1643,-0.7812,-0.7439,-0.7365,-0.7953,0.0,0.0,0.0,0.6582,0.6599,0.6387,0.5751,0.5863,0.577,0.498,0.5348,0.5424,0.4702,0.4719,0.4592,0.4057,0.3677,0.3829,0.459,0.4536,0.3941,0.2839,0.21,0.2713,0.4829,0.5674,0.6309,0.6771,0.7295,0.8143,0.9262,0.8661,0.8691,0.9218,0.918,0.898,0.8683,0.855,0.8515,0.8461,0.8252,0.5999,0.0,0.0,0.0,0.0,0.0,0.0,0.0,0.0,0.0,0.0,0.0,0.0,0.0,0.0,0.0,0.0,0.0,0.0,0.0,0.0,0.0,0.0,0.0,0.0,0.0,0.0,0.0,0.0,0.0,0.0,0.0,0.0,0.0,0.0,0.0,0.0,0.0,0.6034,0.5751,0.0,0.431,0.3719,0.2995,0.2029,0.1131,0.0095,-0.115,-0.2569,-0.3311,-0.3246,-0.4044,-0.4185,-0.3534,-0.4197,-0.5932,-0.872,-1.025,-1.2454,-1.5283,-1.7014,-1.8335,-1.9352,-2.0557,-2.0926,-2.0718,-2.0931,-1.9531,-1.6925,-1.3727,-1.1819,-1.052,-0.7935,-0.8399,-1.0616,0.0,0.0,0.0,0.6582,0.6478,0.6254,0.5948,0.6189,0.6145,0.5451,0.599,0.6015,0.488,0.5032,0.4884,0.3948,0.387,0.4249,0.5159,0.5109,0.4885,0.4505,0.3463,0.3552,0.4984,0.5375,0.5982,0.6823,0.7075,0.7788,0.8871,0.8724,0.88,0.8971,0.9439,0.9372,0.8889,0.9138,0.8889,0.8388,0.9263,0.829,0.6019,0.0,0.0,0.0,0.0,0.0,0.0,0.0,0.0,0.0,0.0,0.0,0.0,0.0,0.0,0.0,0.0,0.0,0.0,0.0,0.0,0.0,0.0,0.0,0.0,0.0,0.0,0.0,0.0,0.0,0.0,0.0,0.0,0.0,0.0,0.5818,0.5908,0.6192,0.6032,0.5637,0.4903,0.4093,0.3126,0.1882,0.1064,-0.0052,-0.1589,-0.2524,-0.3105,-0.3251,-0.3829,-0.3976,-0.355,-0.4455,-0.6298,-0.9093,-1.081,-1.3016,-1.5596,-1.7136,-1.8182,-1.8852,-1.9732,-1.984,-1.934,-1.8767,-1.7384,-1.5265,-1.2086,-1.0392,-0.9457,-0.7082,-0.8135,-1.1172,0.0,0.0,0.6289,0.6535,0.6218,0.59,0.5893,0.6071,0.6104,0.5751,0.6277,0.6306,0.5194,0.534,0.5085,0.4105,0.4022,0.4801,0.6625,0.5389,0.4776,0.5211,0.4593,0.4124,0.3832,0.5097,0.5935,0.6181,0.704,0.7623,0.7962,0.8877,0.8924,0.8416,0.9318,0.9522,0.918,0.94,0.9684,0.9807,0.8691,0.9077,0.9941,0.0,0.0,0.0,0.0,0.0,0.0,0.0,0.0,0.0,0.0,0.0,0.0,0.0,0.0,0.0,0.0,0.0,0.0,0.0,0.0,0.0,0.0,0.0,0.0,0.0,0.0,0.0,0.0,0.0,0.0,0.0,0.0,0.0,0.6134,0.547,0.5287,0.6167,0.6013,0.5728,0.5464,0.4729,0.3738,0.2373,0.0943,-0.0219,-0.1009,-0.2396,-0.2891,-0.2221,-0.2748,-0.3049,-0.3069,-0.455,-0.6347,-0.8448,-1.13,-1.3683,-1.5504,-1.6718,-1.7786,-1.8702,-1.8702,-1.8351,-1.7646,-1.6478,-1.3705,-1.014,-0.9686,-0.7392,-0.4334,-0.4657,-0.6404,-0.9538,0.6599,0.6535,0.6453,0.6336,0.6201,0.6016,0.567,0.6202,0.6401,0.5783,0.6184,0.6202,0.5214,0.506,0.48,0.4065,0.4571,0.5178,0.5833,0.4971,0.4328,0.4092,0.4464,0.468,0.4609,0.5051,0.5395,0.5621,0.5856,0.6355,0.7046,0.7962,0.8351,0.8416,0.9318,0.9424,0.8968,0.9719,0.9837,0.9606,0.9713,0.9587,0.9336,0.0,0.0,0.0,0.0,0.0,0.0,0.0,0.0,0.0,0.0,0.0,0.0,0.0,0.0,0.0,0.0,0.0,0.0,0.0,0.0,0.0,0.0,0.0,0.0,0.0,0.0,0.0,0.0,0.0,0.0,0.0,0.7872,0.7685,0.6877,0.6824,0.7187,0.8119,0.8684,0.8721,0.8187,0.7186,0.5795,0.3917,0.2929,0.1582,-0.0212,-0.0708,-0.1244,-0.2044,-0.222,-0.2488,-0.2791,-0.4764,-0.6804,-0.8913,-1.1306,-1.3278,-1.4949,-1.566,-1.6145,-1.6448,-1.684,-1.6661,-1.6028,-1.4776,-1.1836,-0.7986,-0.6321,-0.5162,-0.4243,-0.3077,-0.7171,-1.3807,0.6599,0.6517,0.6371,0.6236,0.604,0.5815,0.5549,0.5992,0.6268,0.5915,0.6323,0.6386,0.5733,0.5584,0.5294,0.4792,0.5314,0.57,0.5709,0.5083,0.455,0.4222,0.4588,0.4853,0.4918,0.5121,0.527,0.5428,0.5428,0.5686,0.6203,0.7288,0.7819,0.7881,0.9023,0.9239,0.8837,0.981,0.9929,0.9554,1.0266,1.0137,0.9606,1.0354,0.9866,0.8856,0.9212,0.9087,0.891,1.0043,0.0,0.0,0.0,0.0,0.0,0.0,0.0,0.0,0.0,0.0,0.0,0.0,0.0,0.0,0.0,0.0,0.0,0.0,0.0,0.0,0.0,0.0,0.0,0.0,0.9437,0.9507,0.9239,0.8476,0.8326,0.9188,1.0133,1.0481,0.9946,0.8962,0.7633,0.5855,0.4877,0.3503,0.1391,0.1433,0.0943,-0.0344,-0.0598,-0.1084,-0.1938,-0.4431,-0.6694,-0.8761,-1.1297,-1.315,-1.4329,-1.4926,-1.5139,-1.5184,-1.5504,-1.5316,-1.4722,-1.37,-1.0934,-0.7224,0.0,0.0,0.0,0.0,-0.873,-1.4989,0.6564,0.6354,0.6189,0.6183,0.5808,0.5492,0.5454,0.565,0.5873,0.6066,0.645,0.6607,0.6419,0.635,0.6176,0.5813,0.6122,0.6304,0.6115,0.5529,0.5157,0.5032,0.4885,0.4845,0.4942,0.522,0.5428,0.5428,0.5428,0.5428,0.5425,0.6872,0.7414,0.7176,0.863,0.9138,0.8844,0.9888,1.001,0.9571,1.0648,1.0784,1.0427,1.0927,1.0869,1.0527,1.0159,1.0177,1.0344,1.0084,0.0,0.0,0.0,0.0,0.0,0.0,0.0,0.0,0.0,0.0,0.0,0.0,0.0,0.0,0.0,0.0,0.0,0.0,0.0,0.0,0.0,0.0,0.0,0.0,1.0963,1.1365,1.2204,1.0493,0.9413,1.016,1.1217,1.1689,1.1239,1.0589,0.9511,0.7964,0.6928,0.5553,0.3648,0.3755,0.0,0.0,0.0,0.0491,-0.0896,-0.3894,-0.6329,-0.8236,-1.1172,-1.2928,-1.3569,-1.4029,-1.4261,-1.4261,-1.4261,-1.3935,-1.3426,-1.2725,-1.0348,-0.7007,-0.5481,-0.3016,-0.0885,-0.6013,-1.0356,-1.415,0.6318,0.6236,0.6147,0.5991,0.5708,0.5435,0.5214,0.5537,0.5873,0.6066,0.6068,0.6105,0.6227,0.5895,0.5657,0.5563,0.6694,0.7195,0.6665,0.6226,0.5557,0.4682,0.5343,0.5544,0.5087,0.5267,0.5428,0.5428,0.5428,0.5428,0.5428,0.7145,0.7621,0.7186,0.9081,0.9526,0.8923,1.0444,1.0458,0.9641,1.133,1.1562,1.0857,1.0989,1.1216,1.1534,1.1451,1.1454,1.1578,1.2163,1.127,0.9946,1.0261,0.8909,0.0,0.0,0.0,0.0,0.0,0.0,0.0,0.0,0.0,0.0,0.0,0.0,0.0,0.0,0.0,0.0,0.0,0.0,0.0,1.0855,1.1617,1.2396,1.3012,1.3038,1.3178,1.3598,1.4338,1.4373,1.3258,1.3429,1.2451,0.9568,0.9249,0.8348,0.6365,0.5505,0.4482,0.3222,0.218,0.0857,-0.0896,-0.3894,-0.6329,-0.8236,-1.023,0.0,-1.215,-1.1747,-1.1539,-1.1539,-1.1539,-1.1499,-1.1308,-1.0661,-0.8235,-0.4811,-0.276,-0.1869,-0.2164,-0.5488,-0.9524,-1.3606,0.6698,0.6415,0.613,0.5936,0.567,0.5406,0.5146,0.5218,0.549,0.6043,0.5941,0.6013,0.6529,0.6139,0.5855,0.5855,0.6051,0.6239,0.6482,0.6048,0.551,0.4995,0.5619,0.5856,0.5574,0.5438,0.5428,0.5428,0.5428,0.5428,0.5425,0.7016,0.7494,0.7181,0.8903,0.9432,0.9086,1.0707,1.0894,1.018,1.1901,1.2115,1.1334,1.1368,1.159,1.1811,1.2066,1.2282,1.2627,1.3312,1.2652,1.159,1.2013,1.095,0.9444,0.0,0.0,0.0,0.0,0.0,0.0,0.0,0.0,0.0,0.0,0.0,0.0,0.0,0.0,1.0217,1.0919,0.0,1.166,1.2021,1.2504,1.3154,1.3987,1.4284,1.4585,1.5094,1.5666,1.5672,1.4734,1.4404,1.3405,1.1491,1.0705,0.9672,0.8068,0.7186,0.5986,0.4434,0.2781,0.0937,-0.1075,-0.4266,-0.6693,-0.8345,-0.9665,-1.0418,-1.0721,-1.0046,-0.9739,-0.9739,-0.9739,-0.9739,-0.968,-0.8606,-0.6679,-0.4245,-0.2779,-0.2432,-0.3049,-0.5483,-0.8521,-1.1805,0.717,0.667,0.621,0.5941,0.5633,0.5349,0.5127,0.4919,0.507,0.581,0.5702,0.5832,0.66,0.6266,0.6079,0.6192,0.526,0.5065,0.6047,0.5745,0.5571,0.5534,0.5985,0.6186,0.6042,0.5607,0.5428,0.5428,0.5428,0.5428,0.5425,0.6854,0.7328,0.7176,0.8618,0.921,0.9207,1.0647,1.0902,1.0463,1.1905,1.1969,1.1206,1.1301,1.1542,1.1847,1.2318,1.272,1.3169,1.386,1.3668,1.315,1.3257,1.2411,1.1343,1.109,1.0398,0.0,0.0,0.0,0.0,0.0,0.0,0.0,0.0,1.1615,1.1875,1.2715,1.2224,1.1922,1.2881,1.2685,1.2593,1.311,1.3254,1.3715,1.4752,1.4798,1.499,1.5745,1.6124,1.6036,1.5346,1.4411,1.3593,1.2979,1.1662,1.0504,0.9606,0.864,0.7373,0.5658,0.335,0.1016,-0.1296,-0.4364,-0.6639,-0.8071,-0.8646,-0.8871,-0.8858,-0.8176,-0.7862,-0.7862,-0.7862,-0.7862,-0.7757,-0.6625,-0.5396,-0.4149,-0.3666,-0.3498,-0.375,-0.5522,-0.7489,-0.9702,0.7243,0.686,0.6476,0.5978,0.5491,0.5127,0.5108,0.4919,0.4917,0.5267,0.5082,0.504,0.5438,0.545,0.5624,0.6139,0.5386,0.5139,0.5797,0.6225,0.6265,0.5787,0.6524,0.6727,0.622,0.5661,0.5428,0.5428,0.5428,0.5428,0.5425,0.6854,0.7328,0.7181,0.8878,0.9345,0.8924,0.998,1.0008,0.9456,1.047,1.0277,0.9419,0.9654,1.0591,1.1847,1.2318,1.2544,1.2734,1.3752,1.3422,1.2675,1.3138,1.2582,1.192,1.2753,1.2247,1.1646,1.2592,1.2027,1.1429,1.2621,1.2697,1.313,0.0,1.5406,1.5077,1.7065,1.5905,1.4649,1.5021,1.4589,1.3977,1.3243,1.3529,1.4072,1.479,1.4853,1.5156,1.6204,1.5905,1.5223,1.4269,1.4113,1.378,1.3151,1.2221,1.163,1.1507,0.9655,0.8054,0.6754,0.4011,0.1294,-0.1296,-0.3396,-0.5134,-0.6561,-0.613,-0.5954,-0.5859,-0.5185,-0.4873,-0.4873,-0.4873,-0.4873,-0.4873,-0.4685,-0.4146,-0.3484,-0.4039,-0.4262,-0.4365,-0.5201,-0.6493,-0.8168,0.8314,0.7422,0.6635,0.6411,0.5668,0.5108,0.5108,0.489,0.4852,0.5157,0.4977,0.4927,0.5262,0.4977,0.4882,0.5137,0.4613,0.4521,0.5117,0.5582,0.5748,0.5504,0.6072,0.6213,0.5998,0.5479,0.5226,0.5226,0.5318,0.5274,0.5164,0.6568,0.7003,0.6658,0.8255,0.8878,0.8864,0.976,1.0023,0.9874,1.0565,1.0263,0.9432,0.9419,0.9659,1.0137,1.1175,1.2357,0.0,1.4256,1.4254,1.4001,1.4543,1.3972,1.3337,1.4391,1.3951,1.3256,1.3903,1.3848,1.372,1.4213,1.5012,1.5908,1.6878,1.7175,1.733,1.7806,1.6813,1.5857,1.5874,1.5268,1.4651,1.4265,1.403,1.408,1.4651,1.4109,1.3647,1.3718,1.3421,1.3674,1.4754,1.4087,1.3703,1.4063,1.2675,1.1959,1.2238,1.0264,0.8254,0.6419,0.3494,0.0689,-0.1925,-0.3424,-0.475,-0.5839,-0.4298,-0.3558,-0.3493,-0.2356,-0.209,-0.2481,-0.2929,-0.3377,-0.3767,-0.3828,-0.3889,-0.4003,-0.4336,-0.4714,-0.5198,-0.6284,-0.7606,-0.9009,0.9031,0.8046,0.7106,0.6654,0.5949,0.5353,0.5127,0.4814,0.4683,0.4925,0.4666,0.4547,0.4778,0.4416,0.4151,0.4146,0.3937,0.3991,0.4438,0.4964,0.5276,0.5276,0.558,0.5718,0.5825,0.5257,0.503,0.5074,0.5142,0.5067,0.4853,0.6043,0.6433,0.6237,0.7516,0.8213,0.8615,0.9155,0.9482,0.9672,1.0079,0.9873,0.9289,0.9195,0.9006,0.9047,1.0252,1.165,1.3049,1.3661,1.3946,1.4097,1.4381,1.4024,1.3717,1.5116,1.5229,1.4952,1.4994,1.5336,1.5705,1.6006,1.7263,1.8435,1.8358,1.8918,1.9369,1.9121,1.7907,1.6955,1.7193,1.62,1.5316,1.5183,1.454,1.4204,1.4563,1.345,1.2365,1.1859,1.135,1.174,1.3474,1.2785,1.2663,1.3661,1.2124,1.147,1.2125,1.0302,0.8238,0.6062,0.3287,0.0653,-0.1778,-0.2806,-0.3542,-0.3941,-0.2139,-0.121,-0.0936,-0.0111,0.0,-0.0556,-0.1504,-0.2174,-0.273,-0.2954,-0.3511,-0.4181,-0.4398,-0.4886,-0.5701,-0.7116,-0.8168,-0.8964,0.8863,0.8682,0.8134,0.6586,0.6286,0.6003,0.5225,0.4646,0.4321,0.4317,0.3857,0.3539,0.3559,0.3546,0.3531,0.3531,0.3703,0.3804,0.3835,0.4774,0.5276,0.5276,0.5453,0.5584,0.5768,0.51,0.4775,0.4925,0.4782,0.4707,0.4691,0.5151,0.5652,0.6232,0.687,0.7452,0.7908,0.7956,0.7963,0.799,0.8265,0.8342,0.8378,0.8625,0.894,0.9359,0.9986,1.0244,1.0426,1.1166,1.1628,1.1839,1.1526,1.1628,1.2264,1.4416,1.6019,1.6917,1.6011,1.626,1.7083,1.8426,1.9561,2.0512,2.128,2.1243,2.1309,2.2336,2.0053,1.8276,1.9617,1.7886,1.6117,1.5649,1.4972,1.4493,1.4601,1.3096,1.1939,1.1707,1.0531,0.9541,0.8968,0.952,1.0218,1.0964,1.0128,0.9981,1.1002,0.9579,0.7903,0.6062,0.3773,0.1637,-0.0246,-0.0747,-0.0723,-0.0164,0.0607,0.1387,0.2062,0.1396,0.1061,0.0949,-0.0503,-0.1174,-0.1229,-0.1952,-0.2676,-0.3398,-0.41,-0.4871,-0.5706,-0.7171,-0.7283,-0.6902,0.9554,0.9071,0.8406,0.7514,0.6769,0.6085,0.5459,0.4912,0.4507,0.4333,0.3828,0.0,0.0,0.0,0.0,0.0,0.3575,0.3616,0.3645,0.407,0.4327,0.4327,0.4437,0.4547,0.4606,0.4449,0.4368,0.4418,0.4518,0.444,0.4243,0.5195,0.5635,0.5636,0.6248,0.6943,0.7622,0.7209,0.7363,0.7903,0.8177,0.8312,0.843,0.9518,0.95,0.8989,0.0,1.0402,1.0865,1.1786,1.2003,1.1963,1.2526,1.2268,1.2116,1.385,1.5257,1.6271,1.626,1.7,1.7959,1.8708,2.0218,2.1387,2.0788,2.1134,2.1461,2.1098,2.0003,1.9272,1.9828,1.8329,1.6818,1.6338,1.5057,1.4088,1.4012,1.2302,1.0835,1.0172,0.8926,0.7765,0.6873,0.8177,0.9534,1.0676,1.0535,1.0609,1.1044,0.9768,0.7865,0.5272,0.3404,0.1643,-0.005,0.0662,0.0949,0.0718,0.1498,0.2227,0.2954,0.1675,0.0837,0.0334,-0.067,-0.1675,-0.2565,-0.2286,-0.2676,-0.3345,-0.3058,-0.3715,-0.4812,-0.5303,-0.5968,-0.675,0.9905,0.9378,0.8753,0.811,0.7203,0.0,0.0,0.0,0.0,0.0,0.0,0.0,0.0,0.0,0.0,0.0,0.0,0.3418,0.3557,0.359,0.368,0.3785,0.3836,0.3914,0.4019,0.4012,0.4036,0.4197,0.4287,0.431,0.4313,0.507,0.5472,0.5653,0.6007,0.6619,0.7308,0.6912,0.7243,0.8043,0.7919,0.8165,0.8715,0.9592,0.9206,0.0,0.9343,0.9526,0.9459,1.0287,1.0693,1.0959,1.1452,1.1724,1.205,1.3176,1.441,1.5595,1.6384,1.7471,1.8601,1.9587,2.1038,2.1995,2.1061,2.138,2.1601,2.0662,1.9676,1.9083,1.9429,1.8,1.6804,1.6902,1.5903,1.5041,1.4945,1.3085,1.1293,1.0033,0.8435,0.6965,0.5868,0.6895,0.8215,0.9516,0.9636,0.9796,1.0128,0.9125,0.7412,0.487,0.3572,0.2455,0.1579,0.2182,0.23,0.1943,0.2112,0.2336,0.2502,0.1001,0.0056,-0.0444,-0.1448,-0.2397,-0.3234,-0.2508,-0.2506,-0.2892,-0.2119,-0.2556,-0.3704,-0.4204,-0.5039,-0.5987,0.9905,0.9646,0.9162,0.0,0.0,0.0,0.0,0.0,0.0,0.0,0.0,0.0,0.0,0.0,0.0,0.0,0.0,0.0,0.3474,0.3369,0.3446,0.3744,0.3629,0.3693,0.3992,0.3724,0.3788,0.4164,0.4066,0.4291,0.4873,0.479,0.529,0.6184,0.6184,0.652,0.6979,0.6979,0.7477,0.823,0.7379,0.7832,0.9063,0.8818,0.8166,0.7577,0.8608,0.7872,0.6492,0.7014,0.8047,0.9033,0.8695,1.0118,1.2045,1.2508,1.3688,1.5145,1.6459,1.7633,1.8993,2.0926,2.1935,2.2359,2.2016,2.193,2.1725,2.0963,1.9155,1.79,1.8535,1.7121,1.6189,1.7198,1.7247,1.7063,1.6883,1.5143,1.3124,1.1232,0.9018,0.7187,0.593,0.5804,0.6304,0.7481,0.7498,0.7725,0.8386,0.7759,0.6602,0.4849,0.4131,0.3966,0.432,0.3761,0.3452,0.3453,0.2607,0.1828,0.1054,-0.0443,-0.1109,-0.122,-0.267,-0.3345,-0.3287,-0.2508,-0.2225,-0.2104,-0.1338,-0.1503,-0.238,-0.3762,-0.4388,-0.468,0.0,0.0,0.0,0.0,0.0,0.0,0.0,0.0,0.0,0.0,0.0,0.0,0.0,0.0,0.0,0.0,0.0,0.0,0.3218,0.318,0.3202,0.3276,0.3256,0.3381,0.3687,0.3619,0.3636,0.3751,0.4111,0.4398,0.4533,0.5419,0.594,0.6184,0.6184,0.652,0.6979,0.6562,0.6767,0.7352,0.7101,0.7227,0.7647,0.8455,0.8406,0.7909,0.8505,0.8356,0.7933,0.8376,0.9365,1.0459,1.0724,1.1491,1.2507,1.334,1.452,1.5711,1.6501,1.7693,1.894,1.9847,2.0838,2.1511,2.1115,2.0986,2.069,1.9753,1.8611,1.7804,1.7866,1.7261,1.6492,1.5643,1.5827,1.5616,1.4259,1.3313,1.232,1.0993,0.942,0.8077,0.7187,0.6278,0.6037,0.6801,0.7604,0.7759,0.7119,0.728,0.6509,0.4562,0.4059,0.3733,0.3591,0.4019,0.4194,0.41,0.2832,0.1838,0.1059,-0.0446,-0.1394,-0.1949,-0.2896,-0.3622,-0.407,-0.2732,-0.2173,-0.206,-0.0783,-0.1061,-0.2227,-0.2615,-0.3508,-0.4574,0.0,0.0,0.0,0.0,0.0,0.0,0.0,0.0,0.0,0.0,0.0,0.0,0.0,0.0,0.0,0.0,0.0,0.0,0.0,0.3001,0.2938,0.2913,0.2862,0.294,0.3221,0.3159,0.3221,0.3378,0.3748,0.4069,0.4395,0.5153,0.5609,0.5807,0.5807,0.5958,0.6222,0.592,0.6207,0.0,0.0,0.6556,0.7048,0.7573,0.7379,0.6881,0.7598,0.7888,0.8103,0.8958,1.001,1.0947,1.1201,1.1654,1.2307,1.3244,1.425,1.5212,1.5984,1.7304,1.8469,1.8619,1.9476,2.0114,1.9427,1.9058,1.8647,1.7735,1.6652,1.5748,1.5415,1.5372,1.5121,1.427,1.5188,1.5582,1.4371,1.3525,1.2664,1.1679,0.9843,0.8361,0.7524,0.6497,0.5798,0.5579,0.6463,0.6742,0.6136,0.6309,0.5769,0.4334,0.3993,0.359,0.3229,0.4047,0.3944,0.2941,0.1779,0.0836,0.0112,-0.106,-0.2009,-0.2732,-0.3121,-0.3735,-0.4405,-0.3231,-0.2506,-0.2114,-0.1283,-0.1449,-0.2225,-0.2563,-0.3456,-0.4519,0.0,0.0,0.0,0.0,0.0,0.0,0.0,0.0,0.0,0.4313,0.3863,0.3706,0.3937,0.3771,0.0,0.0,0.0,0.0,0.0,0.0,0.2737,0.2705,0.2585,0.2596,0.2709,0.2582,0.2706,0.3097,0.3288,0.3756,0.4401,0.4605,0.4912,0.5309,0.5309,0.5309,0.5309,0.5309,0.5718,0.6339,0.5504,0.5786,0.6599,0.0,0.5771,0.541,0.6626,0.7246,0.766,0.9032,1.0089,1.0845,1.1003,1.1423,1.1983,1.29,1.3618,1.4237,1.5145,1.6405,1.7357,1.7088,1.7759,1.8203,1.7156,1.6659,1.6152,1.5283,1.4095,1.3006,1.243,1.28,1.3236,1.3212,1.4821,1.5845,1.5269,1.4223,1.3182,1.232,1.0154,0.8389,0.7432,0.6629,0.569,0.4481,0.4793,0.5112,0.5206,0.5083,0.4778,0.419,0.391,0.3547,0.3079,0.3767,0.3106,0.1118,0.0557,-0.0111,-0.0838,-0.1449,-0.2171,-0.2952,-0.3005,-0.3508,-0.4294,-0.3569,-0.289,-0.2327,-0.2227,-0.228,-0.2437,-0.306,-0.379,-0.4463,0.0,0.0,0.0,0.0,0.0,0.0,0.0,0.0,0.0,0.0,0.4865,0.4274,0.0,0.0,0.0,0.0,0.0,0.0,0.0,0.0,0.0,0.2697,0.2673,0.2686,0.2706,0.2688,0.2808,0.3094,0.3632,0.4059,0.4416,0.4944,0.5228,0.5309,0.5309,0.5309,0.5309,0.5309,0.5403,0.5484,0.481,0.467,0.4821,0.455,0.0,0.0,0.7376,0.787,0.7845,0.8596,0.9474,1.0428,1.1589,1.2383,1.2955,1.3516,1.3715,1.3946,1.4653,1.4631,1.4541,1.4919,1.5398,1.555,1.4618,1.4668,1.4437,1.2887,1.2626,1.244,1.1514,1.2461,1.3195,1.2648,1.3564,1.3909,1.2719,1.2282,1.1719,1.0712,0.9667,0.8727,0.8003,0.6728,0.5783,0.5325,0.43,0.3762,0.3785,0.4222,0.4428,0.4197,0.3717,0.3342,0.3079,0.2741,0.2062,0.1118,0.1562,0.1451,0.0726,0.0611,0.0111,-0.0612,-0.1221,-0.2277,-0.3456,-0.2732,-0.273,-0.3118,-0.2452,-0.2619,-0.3229,-0.3345,-0.3846,-0.4405,0.0,0.0,0.0,0.0,0.0,0.0,0.0,0.7626,0.7658,0.9129,0.8037,0.6709,0.5724,0.5079,0.4703,0.0,0.0,0.0,0.0,0.0,0.0,0.2909,0.2611,0.244,0.2453,0.2293,0.2391,0.2728,0.0,0.3493,0.3828,0.4189,0.4369,0.4369,0.4369,0.4369,0.4369,0.4369,0.4369,0.4355,0.4228,0.4275,0.4399,0.4406,0.0,0.0,0.691,0.7253,0.7289,0.8154,0.8758,0.9346,1.0524,1.1481,1.2283,1.2666,1.2966,1.3233,1.3205,1.2887,1.2579,1.257,1.2711,1.2695,1.2213,1.206,1.1746,1.0862,1.0843,1.075,0.999,1.0849,1.1419,1.0572,1.1229,1.1591,1.0867,1.03,0.9878,0.964,0.8568,0.759,0.6997,0.6171,0.5329,0.4436,0.3395,0.2954,0.34,0.3613,0.3682,0.3513,0.3364,0.2806,0.1967,0.1758,0.1229,0.056,0.1284,0.1452,0.1118,0.1504,0.1056,0.0,-0.0389,-0.1556,-0.3287,-0.2954,-0.3289,-0.3956,-0.3566,-0.3624,-0.3959,-0.3959,-0.3956,-0.3846,0.0,0.0,0.0,0.0,0.0,0.0,0.0,0.933,0.9609,1.2114,1.1089,0.9492,0.7813,0.6498,0.5624,0.0,0.0,0.0,0.0,0.0,0.0,0.0,0.0,0.0,0.2193,0.0,0.0,0.2463,0.2628,0.0,0.0,0.0,0.0,0.0,0.3687,0.3659,0.3599,0.3599,0.3599,0.0,0.0,0.4288,0.4567,0.0,0.0,0.0,0.0,0.6307,0.6252,0.7464,0.7787,0.7903,0.8904,1.0107,1.1214,1.15,1.1846,1.2083,1.1706,1.1312,1.0888,1.0468,1.0292,1.017,0.9785,0.9571,0.9426,0.9129,0.9232,0.9177,0.8646,0.9264,0.9591,0.8885,0.9273,0.9595,0.9366,0.8657,0.827,0.8482,0.7261,0.6293,0.5849,0.5541,0.4812,0.3624,0.2695,0.2417,0.2899,0.2776,0.2702,0.2727,0.2698,0.2095,0.0969,0.0883,0.056,0.0,0.0895,0.134,0.1341,0.2286,0.1893,0.0445,0.0445,-0.089,-0.3065,-0.3121,-0.368,-0.4519,-0.4519,-0.4519,-0.4519,-0.4519,-0.4012,-0.3287,0.0,0.0,0.0,0.0,0.0,0.0,0.0,0.9844,1.0667,1.2655,1.2292,1.1573,1.0687,0.9082,0.7618,0.0,0.0,0.0,0.0,0.0,0.0,0.0,0.0,0.0,0.0,0.0,0.0,0.2662,0.2686,0.0,0.0,0.0,0.0,0.0,0.0,0.4175,0.3951,0.3951,0.0,0.0,0.0,0.0,0.0,0.0,0.0,0.0,0.0,0.5512,0.4644,0.6207,0.6381,0.6155,0.7321,0.8905,1.0408,1.0764,1.0509,1.021,1.0762,0.9967,0.8971,0.8881,0.8881,0.8571,0.7418,0.8017,0.8506,0.7628,0.8177,0.8714,0.8161,0.8546,0.8997,0.9215,0.8999,0.8687,0.8285,0.7961,0.7483,0.6729,0.6182,0.5784,0.5534,0.508,0.4666,0.4415,0.3037,0.1958,0.1343,0.1281,0.161,0.2266,0.1609,0.1224,0.1057,0.0447,0.0056,0.0,0.1452,0.212,0.2174,0.3624,0.3453,0.2007,0.2007,0.039,-0.2286,-0.2286,-0.3178,-0.4519,-0.4519,-0.4519,-0.4519,-0.4519,-0.4012,-0.3231,0.0,0.0,0.0,0.0,0.0,0.0,1.12,1.0766,1.1576,1.5489,1.4641,1.3564,1.3302,1.1743,0.9649,0.7094,0.0,0.0,0.0,0.0,0.0,0.0,0.0,0.0,0.0,0.0,0.2754,0.3053,0.3053,0.0,0.0,0.0,0.0,0.0,0.0,0.4556,0.4283,0.4748,0.0,0.0,0.0,0.0,0.0,0.0,0.0,0.0,0.0,0.0,0.455,0.5303,0.5866,0.631,0.6619,0.7458,0.8553,0.9657,0.986,0.9755,0.957,0.8521,0.7427,0.7427,0.7308,0.7098,0.6861,0.7423,0.7835,0.7313,0.7756,0.8198,0.8018,0.797,0.8046,0.8393,0.7871,0.7401,0.7204,0.6818,0.6303,0.5713,0.5129,0.4826,0.4706,0.4548,0.4249,0.3957,0.2443,0.1459,0.121,0.1152,0.1209,0.1553,0.1243,0.0895,0.0448,0.0168,0.0,0.0,0.1507,0.2174,0.2232,0.379,0.3677,0.2174,0.2174,0.078,-0.1563,-0.1563,-0.2174,-0.3121,-0.3121,-0.3121,-0.3121,-0.3121,-0.2619,-0.1952,0.0,0.0,0.0,0.0,0.0,0.8809,1.2002,1.1556,1.2406,1.687,1.5836,1.4734,1.4788,1.291,1.0668,0.8272,0.7111,0.0,0.0,0.0,0.0,0.0,0.0,0.0,0.0,0.0,0.3104,0.3294,0.3294,0.3927,0.0,0.0,0.4973,0.5449,0.0,0.0,0.0,0.0,0.0,0.0,0.0,0.0,0.0,0.0,0.0,0.0,0.0,0.0,0.0,0.0,0.0,0.6236,0.6404,0.6791,0.7437,0.8523,0.8792,0.8716,0.8287,0.7263,0.6258,0.6258,0.625,0.6233,0.645,0.7009,0.7453,0.7173,0.7456,0.7716,0.7693,0.7493,0.742,0.7604,0.7052,0.6525,0.6327,0.5932,0.5453,0.4853,0.4539,0.4291,0.4204,0.4234,0.4213,0.4021,0.2378,0.1494,0.1688,0.1137,0.0768,0.0753,0.0793,0.0504,0.0,0.0,0.0,0.0,0.1284,0.2009,0.2232,0.3566,0.3456,0.2174,0.2174,0.0948,-0.1118,-0.1118,-0.1507,-0.2174,-0.1949,-0.2006,-0.2174,-0.1724,-0.1337,-0.1062,0.0,0.0,0.0,0.0,0.0,0.0,1.1224,1.1943,1.3154,1.5742,1.5332,1.4795,1.4785,1.21,1.0332,1.0254,0.7966,0.0,0.0,0.0,0.0,0.0,0.0,0.0,0.0,0.0,0.3294,0.3294,0.3294,0.4027,0.5389,0.5389,0.5776,0.6484,0.0,0.0,0.0,0.0,0.0,0.0,0.0,0.0,0.0,0.0,0.0,0.0,0.0,0.0,0.0,0.0,0.0,0.0,0.0,0.7228,0.7504,0.7528,0.7001,0.6504,0.6839,0.6239,0.5487,0.5487,0.5875,0.6131,0.5868,0.6684,0.7426,0.7081,0.7104,0.7176,0.7044,0.7131,0.7144,0.7009,0.6787,0.6327,0.5595,0.5385,0.5003,0.4136,0.4412,0.4572,0.4224,0.4375,0.4585,0.4894,0.3193,0.0,0.2686,0.1001,0.0,0.0,0.0,0.0,0.0,0.0,0.0,0.0,0.0783,0.1507,0.2232,0.3065,0.2954,0.2174,0.2174,0.0948,-0.1118,-0.1118,-0.1507,-0.2119,-0.1388,-0.1556,-0.2006,-0.0553,-0.0499,-0.1005,0.0,0.0,0.0,0.0,0.0,0.0,0.0,1.0117,1.085,1.3145,1.2939,1.2695,1.3008,1.1387,1.0166,0.9863,0.8052,0.0,0.0,0.0,0.0,0.0,0.0,0.0,0.0,0.0,0.4247,0.4403,0.4677,0.561,0.7162,0.662,0.6738,0.7363,0.704,0.6719,0.0,0.0,0.0,0.0,0.0,0.0,0.0,0.0,0.0,0.0,0.0,0.0,0.0,0.0,0.0,0.0,0.0,0.0,0.0,0.6812,0.6952,0.6923,0.6396,0.6132,0.5845,0.5255,0.5716,0.6296,0.622,0.6696,0.7134,0.7041,0.703,0.7031,0.7001,0.6902,0.7045,0.7842,0.7022,0.6509,0.7069,0.6072,0.5144,0.4662,0.4379,0.4236,0.4194,0.3884,0.3783,0.3975,0.2397,0.1544,0.1744,0.062,0.0,0.0,0.0,0.0,0.0,0.0,0.0,0.0,0.0727,0.1507,0.2232,0.301,0.2954,0.2174,0.2174,0.1228,-0.0336,-0.0336,-0.0504,-0.0671,-0.0447,-0.0503,-0.0615,-0.0167,-0.0168,-0.0336,0.0,0.0,0.0,0.0,0.0,0.0,0.0,0.9307,0.9844,1.1514,1.1211,1.1191,1.2083,1.0488,0.9473,0.9844,0.8308,0.0,0.0,0.0,0.0,0.0,0.0,0.0,0.4462,0.4564,0.4877,0.546,0.573,0.6848,0.8814,0.8125,0.8056,0.8449,0.8019,0.7493,0.0,0.0,0.0,0.0,0.0,0.0,0.6213,0.0,0.0,0.0,0.0,0.0,0.0,0.0,0.0,0.0,0.0,0.0,0.0,0.0,0.6836,0.6804,0.619,0.6032,0.5937,0.5367,0.5845,0.6407,0.6407,0.6625,0.686,0.686,0.668,0.656,0.6673,0.646,0.6573,0.7542,0.6568,0.6032,0.7002,0.5742,0.4703,0.4661,0.4293,0.4007,0.0,0.3511,0.3254,0.3182,0.1906,0.117,0.1293,0.0488,0.0,0.0,0.0,0.0,0.0,0.0,0.0,0.0,0.0448,0.1062,0.1786,0.2565,0.2676,0.2174,0.2174,0.1507,0.0,0.0112,0.0,0.0,0.028,0.0224,0.0056,0.0615,0.0504,0.0,0.0,0.0,0.0,0.0,0.0,0.0,0.0,0.9248,0.9748,1.0576,0.9952,1.0069,1.1684,0.9369,0.8369,0.9961,0.0,0.0,0.0,0.0,0.0,0.0,0.0,0.0,0.5174,0.4814,0.5222,0.6416,0.6477,0.7799,1.0295,0.9841,0.9649,0.9661,0.9248,0.8555,0.7695,0.0,0.0,0.0,0.6933,0.6481,0.0,0.0,0.0,0.0,0.0,0.0,0.0,0.0,0.0,0.0,0.0,0.0,0.0,0.0,0.0,0.0,0.0,0.5928,0.5838,0.5823,0.6132,0.6429,0.6429,0.6537,0.0,0.6593,0.6152,0.5858,0.6102,0.593,0.5907,0.6494,0.5634,0.5148,0.5794,0.4734,0.3983,0.419,0.4207,0.4044,0.3524,0.3392,0.3075,0.2566,0.1716,0.1227,0.1349,0.0598,0.0174,0.0168,0.0112,0.0056,0.0,0.0,0.0,0.0,0.0,0.0392,0.1118,0.1786,0.2174,0.2174,0.2174,0.1786,0.1118,0.0448,0.0112,0.0168,0.0838,0.0671,0.0168,0.1563,0.1174,0.0,0.0,0.0,0.0,0.0,0.0,0.0,0.0,0.0,0.0,0.0,0.8269,0.8299,0.8707,0.8123,0.7861,0.0,0.0,0.0,0.0,0.0,0.0,0.0,0.0,0.0,0.475,0.4985,0.5636,0.6684,0.7276,0.8897,1.1506,1.0995,1.0681,1.0576,0.9787,0.8795,0.7695,0.7636,0.0,0.0,0.7511,0.6902,0.0,0.0,0.0,0.0,0.4936,0.5216,0.0,0.0,0.0,0.0,0.0,0.0,0.0,0.0,0.694,0.6802,0.655,0.0,0.6224,0.6135,0.6482,0.6864,0.0,0.6888,0.6854,0.6633,0.648,0.6291,0.5888,0.5767,0.5903,0.6524,0.5658,0.5389,0.6745,0.5768,0.4871,0.4604,0.4331,0.4287,0.4536,0.382,0.3258,0.3132,0.237,0.1957,0.2016,0.1767,0.1676,0.1676,0.1118,0.056,0.0,0.0,0.0,0.0,0.0,0.0392,0.1118,0.1284,0.1675,0.2174,0.2174,0.212,0.1952,0.173,0.1341,0.0838,0.1006,0.0671,0.0056,0.0392,0.028,-0.0056,0.0,0.0,0.0,0.0,0.0,0.0,0.0,0.0,0.0,0.0,0.0,0.0,0.0,0.0,0.0,0.0,0.0,0.0,0.0,0.0,0.0,0.0,0.0,0.6052,0.5767,0.5813,0.6477,0.7815,0.8228,0.9715,1.2234,1.2017,1.1513,1.0788,0.9352,0.8337,0.7686,0.7585,0.7624,0.7676,0.7613,0.0,0.0,0.0,0.0,0.0,0.4952,0.523,0.0,0.6008,0.6392,0.6683,0.0,0.0,0.0,0.0,0.7405,0.7453,0.7518,0.7133,0.6649,0.6593,0.6768,0.7061,0.7194,0.7014,0.674,0.6492,0.6286,0.6,0.5433,0.5373,0.5542,0.5872,0.5218,0.4969,0.5894,0.5523,0.5056,0.4745,0.4609,0.4422,0.0,0.3637,0.3159,0.2807,0.2402,0.2227,0.2227,0.2195,0.2216,0.2176,0.1786,0.1229,0.0504,0.0168,0.0,0.0,0.0,0.0224,0.0615,0.1284,0.1619,0.173,0.2063,0.2174,0.2174,0.1842,0.1675,0.1563,0.1229,0.0838,0.0448,0.0112,0.0,-0.0168,0.0,0.0,0.0,0.0,0.0,0.0,0.0,0.0,0.0,0.0,0.0,0.0,0.0,0.0,0.0,0.0,0.0,0.0,0.0,0.0,0.0,0.0,0.0,0.6781,0.7208,0.669,0.7214,0.8902,0.8948,1.0217,1.2542,1.2877,1.2305,1.0942,0.9104,0.8089,0.7705,0.7507,0.754,0.7695,0.7524,0.0,0.0,0.0,0.0,0.0,0.0,0.0,0.0,0.6073,0.6247,0.6337,0.6839,0.0,0.0,0.0,0.0,0.0,0.8544,0.7964,0.7208,0.716,0.7063,0.7088,0.7341,0.7014,0.6573,0.6324,0.6019,0.5682,0.518,0.513,0.5145,0.513,0.473,0.4409,0.4402,0.4762,0.4945,0.4718,0.4782,0.0,0.3806,0.3675,0.3367,0.2729,0.2729,0.2673,0.2559,0.2548,0.2565,0.2565,0.2341,0.1898,0.1284,0.056,0.0112,0.0,0.0112,0.0112,0.0056,0.1396,0.1675,0.1118,0.1786,0.212,0.2174,0.1507,0.1563,0.2009,0.1452,0.1118,0.0838,0.0224,-0.0056,-0.0392,0.0,0.0,0.0,0.0,0.0,0.0,0.0,0.0,0.0,0.0,0.0,0.0,0.0,0.0,0.0,0.0,0.0,0.0,0.0,0.0,0.0,0.8595,0.7579,0.7217,0.7689,0.6586,0.6848,0.8595,0.8763,0.9811,1.17,1.3453,1.3459,1.1964,1.1305,0.9772,0.7695,0.7656,0.7666,0.7695,0.7675,0.0,0.0,0.0,0.0,0.0,0.0,0.0,0.0,0.6343,0.6534,0.6579,0.6899,0.0,0.0,0.0,0.0,0.0,0.8543,0.8405,0.8041,0.7812,0.7363,0.7034,0.7081,0.7021,0.6874,0.658,0.6486,0.6376,0.6044,0.5593,0.5259,0.529,0.4838,0.4403,0.4114,0.4362,0.4596,0.468,0.4599,0.4841,0.5525,0.53,0.514,0.5026,0.4971,0.4754,0.4157,0.4138,0.4125,0.4125,0.2899,0.2119,0.2009,0.1284,0.0615,0.0,0.0615,0.0616,0.0056,0.0895,0.1229,0.1118,0.1229,0.1619,0.2174,0.2063,0.173,0.134,0.184,0.1284,0.0168,0.0056,-0.039,-0.1118,0.0,0.0,0.0,0.0,0.0,0.0,0.0,0.0,0.0,0.0,0.0,0.0,0.0,0.0,0.0,0.0,0.0,0.0,0.0,0.0,0.0,0.919,0.8721,0.8541,0.8761,0.7955,0.8286,0.9797,1.0136,1.0773,1.1753,1.246,1.258,1.2097,1.083,0.9435,0.8004,0.7783,0.7695,0.7676,0.0,0.0,0.0,0.0,0.0,0.0,0.0,0.0,0.0,0.0,0.564,0.5996,0.6435,0.0,0.0,0.0,0.0,0.0,0.9327,0.9048,0.8595,0.8998,0.8547,0.8074,0.8246,0.8153,0.7801,0.6997,0.6947,0.68,0.5793,0.5641,0.554,0.5031,0.4837,0.4663,0.4524,0.4687,0.485,0.0,0.0,0.4848,0.5255,0.5095,0.4948,0.4948,0.5269,0.5218,0.4519,0.4842,0.4897,0.4519,0.34,0.2621,0.223,0.1842,0.134,0.0616,0.095,0.1118,0.1229,0.1952,0.1842,0.1118,0.1507,0.1675,0.1619,0.1619,0.1619,0.1675,0.1619,0.1174,0.0503,-0.0279,-0.1059,-0.1842,0.0,0.0,0.0,0.0,0.0,0.0,0.0,0.0,0.0,0.0,0.0,0.0,0.0,0.0,0.0,0.0,0.0,0.0,0.0,0.0,0.8265,0.9522,0.9692,1.0012,1.0491,0.9668,0.9897,1.1303,1.1396,1.185,1.2629,1.2511,1.2351,1.2197,1.0626,0.9321,0.829,0.7976,0.7783,0.7666,0.0,0.0,0.0,0.0,0.0,0.0,0.0,0.0,0.0,0.0,0.0,0.0,0.0,0.0,0.0,0.8308,0.8675,0.9114,1.0158,0.9605,0.9056,1.0058,0.9498,0.8783,0.9272,0.9061,0.8511,0.7623,0.7569,0.7301,0.5968,0.5833,0.5658,0.4822,0.4819,0.4908,0.487,0.4958,0.504,0.5077,0.4921,0.4838,0.4926,0.4829,0.4732,0.4732,0.5218,0.5218,0.4519,0.5003,0.5058,0.4519,0.379,0.3121,0.2454,0.2286,0.184,0.1118,0.1452,0.184,0.2232,0.2954,0.2563,0.1396,0.1952,0.1786,0.1118,0.1118,0.134,0.1619,0.1229,0.1005,0.067,-0.0837,-0.1842,-0.2565,0.0,0.0,0.0,0.0,0.0,0.0,0.0,0.0,0.0,0.0,0.0,0.0,0.0,0.0,0.0,0.0,0.0,0.0,0.0,0.0,0.8227,0.9464,0.9975,1.1162,1.3194,1.1173,1.0904,1.2456,1.1495,1.2294,1.4806,1.5237,1.4485,1.2734,1.2518,1.0891,0.829,0.8262,0.8033,0.7666,0.7275,0.0,0.0,0.0,0.0,0.0,0.0,0.0,0.0,0.0,0.0,0.0,0.0,0.0,0.8513,0.8077,0.8675,0.9641,1.0501,0.9952,0.9391,1.0604,0.9444,0.8227,0.9167,0.8842,0.8412,0.8612,0.8484,0.8176,0.7623,0.6584,0.5571,0.4803,0.4819,0.487,0.4728,0.0,0.4775,0.4918,0.4674,0.4826,0.5645,0.5545,0.5433,0.5433,0.5487,0.5218,0.4519,0.4574,0.4574,0.4519,0.379,0.3345,0.3231,0.2565,0.184,0.1118,0.2508,0.2785,0.2232,0.2954,0.2843,0.212,0.2174,0.1786,0.1118,0.1118,0.0727,0.0224,0.0838,0.0669,-0.0111,-0.1561,-0.2619,-0.34,0.0,0.0,0.0,0.0,0.0,0.0,0.0,0.0,0.0,0.0,0.0,0.0,0.0,0.0,0.0,0.0,0.0,0.0,0.0,0.8148,0.8501,0.9535,1.028,1.1436,1.3076,1.2376,1.2854,1.4635,1.3969,1.4421,1.5913,1.458,1.3461,1.2516,1.1645,1.0288,0.867,0.845,0.8278,0.8076,0.7383,0.6557,0.0,0.0,0.0,0.0,0.0,0.0,0.0,0.0,0.5804,0.6656,0.6665,0.7585,0.8674,0.8521,0.8561,0.8848,0.9498,0.898,0.8488,0.9395,0.9004,0.8528,0.8986,0.9314,0.942,0.9085,0.8557,0.7783,0.6805,0.5893,0.5303,0.5589,0.5738,0.5793,0.5672,0.5648,0.5475,0.5095,0.4785,0.4779,0.5229,0.5,0.4897,0.4897,0.5273,0.5218,0.4519,0.4893,0.4948,0.4519,0.379,0.34,0.3345,0.3065,0.2732,0.2454,0.3065,0.3456,0.3622,0.3901,0.3622,0.2899,0.2899,0.2454,0.173,0.1284,0.095,0.0615,0.0,-0.0725,-0.1503,-0.2506,-0.3065,-0.3456,0.0,0.0,0.0,0.0,0.0,0.0,0.0,0.0,0.0,0.0,0.0,0.0,0.0,0.0,0.0,0.0,0.0,0.0,0.8467,0.8449,0.8733,0.9353,1.0329,1.1377,1.2488,1.2966,1.4098,1.5829,1.58,1.5739,1.5597,1.3995,1.3012,1.2676,1.1319,1.0355,0.9688,0.9177,0.8724,0.828,0.7517,0.6611,0.0,0.0,0.0,0.0,0.0,0.0,0.0,0.0,0.5621,0.6633,0.6804,0.7914,0.9159,0.9189,0.9262,0.9362,0.9708,0.9159,0.8726,0.9479,0.9321,0.898,0.9192,0.9578,0.9788,0.9453,0.8612,0.7758,0.6951,0.6146,0.5807,0.651,0.6748,0.6768,0.6689,0.6432,0.6076,0.5687,0.5121,0.4802,0.4908,0.4684,0.457,0.4522,0.4948,0.5003,0.4515,0.4948,0.4948,0.4519,0.4015,0.3735,0.3735,0.368,0.368,0.368,0.3735,0.4015,0.4519,0.4732,0.4398,0.3677,0.3895,0.345,0.2508,0.2009,0.1395,0.0614,-0.0614,-0.1563,-0.2286,-0.301,-0.3287,-0.3456,0.0,0.0,0.0,0.0,0.0,0.0,0.0,0.0,0.0,0.0,0.0,0.0,0.0,0.0,0.0,0.0,0.0,0.0,0.8816,0.8816,0.8831,0.89,1.0122,1.1034,1.1557,1.3023,1.4453,1.5686,1.6545,1.5931,1.3802,1.4009,1.3838,1.3318,1.1999,1.1435,1.1439,1.0541,0.9436,0.8166,0.7699,0.6858,0.5863,0.0,0.0,0.0,0.0,0.0,0.0,0.0,0.6348,0.7036,0.8452,0.946,1.0103,1.0082,1.0849,1.164,1.1509,1.0777,1.0322,1.1343,1.0516,0.9619,0.9918,0.9575,0.9329,0.9613,0.8928,0.8306,0.8556,0.7764,0.7167,0.7447,0.7603,0.7742,0.7742,0.6943,0.6519,0.6698,0.5657,0.4921,0.4918,0.4779,0.4626,0.4529,0.4519,0.4519,0.4519,0.4519,0.4463,0.4463,0.4463,0.4463,0.4463,0.4519,0.4519,0.4519,0.4519,0.4519,0.4515,0.5218,0.5164,0.457,0.5218,0.4663,0.3345,0.3345,0.2058,-0.0111,-0.0837,-0.1563,-0.2286,-0.3065,-0.3345,-0.3511,0.0,0.0,0.0,0.0,0.0,0.0,0.0,0.0,0.0,0.0,0.0,0.0,0.0,0.0,0.0,0.0,0.0,0.0,0.9235,0.9235,0.9005,0.8508,0.9432,0.9766,0.9361,1.1906,1.3911,1.5359,1.6986,1.6746,1.4769,1.4089,1.3217,1.2267,1.1756,1.1015,1.0151,0.9883,0.9333,0.8603,0.8565,0.7671,0.6319,0.0,0.0,0.0,0.0,0.0,0.0,0.0,0.0,0.0,0.8074,0.9381,1.0404,0.9827,0.9895,0.9985,0.924,0.9179,0.9456,0.9932,1.0718,1.1162,1.0485,1.0216,1.0014,0.9741,0.9172,0.8681,0.839,0.7859,0.7754,0.8442,0.8725,0.8828,0.8828,0.8573,0.8212,0.7692,0.6641,0.5948,0.582,0.5126,0.4626,0.4529,0.4519,0.4519,0.4519,0.4015,0.3735,0.3735,0.368,0.3677,0.3677,0.4236,0.4519,0.4519,0.4519,0.4732,0.5218,0.5433,0.5655,0.5932,0.5651,0.5265,0.4718,0.3171,0.1223,-0.0833,-0.156,-0.2676,-0.3846,-0.407,-0.4181,-0.4184,0.0,0.0,0.0,0.0,0.0,0.0,0.0,0.0,0.9905,0.9905,0.9905,0.9738,0.0,0.0,0.0,0.9277,0.9777,1.0008,0.9803,0.9803,0.9478,0.8723,0.9063,0.9235,0.9134,1.195,1.3611,1.3971,1.6095,1.6025,1.3979,1.4205,1.3782,1.2746,1.3006,1.2373,1.1152,1.077,1.0037,0.9109,0.9338,0.8625,0.744,0.0,0.0,0.0,0.0,0.0,0.0,0.0,0.0,0.0,0.7772,0.8855,0.9881,1.0456,1.0789,1.0935,1.0867,1.1054,1.1315,1.1679,1.2113,1.2167,1.121,1.0464,0.989,0.9563,0.9292,0.9076,0.8964,0.8783,0.8898,0.9513,0.9737,0.9786,0.9786,0.953,0.9075,0.8549,0.7654,0.6827,0.6246,0.5652,0.5089,0.4532,0.4519,0.4349,0.407,0.3624,0.3345,0.34,0.3345,0.3456,0.379,0.4239,0.4519,0.4519,0.4519,0.5007,0.5928,0.5928,0.6204,0.6588,0.6145,0.576,0.5374,0.344,0.133,-0.0775,-0.1781,-0.3121,-0.4519,-0.4519,-0.4519,-0.4519,0.0,0.0,0.0,0.0,0.0,0.0,0.0,0.9905,0.9905,0.9905,0.9905,0.9905,0.0,0.0,0.0,0.9841,1.0185,1.0396,1.0396,1.0396,1.0071,0.9365,0.9104,0.9434,1.0431,1.2718,1.3283,1.2094,1.4428,1.4365,1.2148,1.446,1.5016,1.4058,1.4988,1.4635,1.333,1.239,1.1032,0.9545,0.9908,0.9581,0.8819,0.8226,0.0,0.0,0.0,0.0,0.0,0.0,0.0,0.0,0.7573,0.8144,0.8834,1.1299,1.2414,1.3108,1.4362,1.4568,1.456,1.5147,1.4138,1.2755,1.1972,1.0537,0.9348,0.9345,0.9283,0.9435,1.0053,1.016,1.0247,1.0577,1.0624,1.0624,1.0624,0.9913,0.9402,0.9402,0.8597,0.7633,0.6556,0.6327,0.5814,0.4646,0.457,0.4291,0.3514,0.34,0.3345,0.34,0.3398,0.3732,0.446,0.457,0.457,0.457,0.4515,0.5226,0.6588,0.6637,0.6745,0.6799,0.6799,0.6308,0.5374,0.3981,0.2098,-0.0055,-0.1445,-0.2952,-0.4405,-0.4405,-0.4463,-0.4519,0.0,0.0,0.0,0.0,0.0,0.0,0.9905,0.9905,0.9905,0.9905,0.9905,0.9802,0.9528,0.975,0.0,0.954,1.0046,1.0396,1.0396,1.0396,1.0184,0.9703,0.9986,1.0809,1.2208,1.228,1.2234,1.2119,1.4079,1.4064,1.2214,1.45,1.4863,1.3662,1.4596,1.4052,1.2383,1.0872,0.9967,0.9512,0.9728,0.9372,0.8747,0.863,0.8201,0.0,0.0,0.0,0.0,0.0,0.0,0.0,0.7798,0.8474,0.883,0.9095,1.0059,1.1009,1.0853,1.1882,1.3267,1.4175,1.3933,1.3173,1.224,1.1179,1.0387,1.0296,1.0087,1.004,1.0401,1.0461,1.0551,1.0611,1.0624,1.0624,1.0624,1.0428,1.0301,1.0301,0.9325,0.851,0.8097,0.7254,0.6355,0.5344,0.5269,0.4999,0.4291,0.368,0.34,0.34,0.3886,0.4265,0.4433,0.4992,0.5269,0.5273,0.4732,0.5226,0.6642,0.7149,0.7723,0.8265,0.8265,0.7197,0.5429,0.4535,0.2874,0.0776,-0.0111,-0.1724,-0.3566,-0.3624,-0.4015,-0.4519,0.0,0.0,0.0,0.0,0.0,0.0,0.0,0.0,0.9905,0.9905,0.9905,0.9816,0.9659,0.9944,0.0,0.0,1.0575,1.0978,1.0855,1.0968,1.0644,0.983,1.0291,1.0813,1.1343,1.1594,1.1663,1.1536,1.2859,1.2995,1.209,1.4297,1.4662,1.3535,1.4682,1.3921,1.176,1.1415,1.0704,0.9856,1.0655,1.0489,0.9681,0.9385,0.8673,0.7635,0.6467,0.0,0.0,0.0,0.0,0.0,0.0,0.0,0.7633,0.8473,0.9546,1.0599,1.12,1.2603,1.3983,1.4566,1.4137,1.3402,1.2518,1.161,1.0777,1.0397,1.0221,1.0207,1.0571,1.0624,1.0624,1.0624,1.0624,1.0624,1.0624,1.0624,1.0624,1.0624,0.991,0.9198,0.8634,0.7966,0.6982,0.5609,0.5487,0.505,0.3956,0.3566,0.3508,0.3886,0.421,0.4754,0.542,0.5483,0.5487,0.5487,0.4842,0.5382,0.7101,0.8153,0.9044,0.9673,0.937,0.8416,0.6919,0.5508,0.3857,0.2041,0.0942,-0.061,-0.2279,-0.2666,-0.3337,-0.4015,0.0,0.0,0.0,0.0,0.0,0.0,0.0,0.0,0.0,0.9905,0.9905,0.9931,0.997,1.0235,1.0445,0.0,0.0,0.0,1.1461,1.1607,1.1318,1.0443,1.0735,1.0853,1.0677,1.143,1.1708,1.15,1.1953,1.2297,1.2491,1.4306,1.468,1.3831,1.5059,1.4021,1.145,1.2117,1.1408,0.9937,1.1145,1.1126,1.0302,0.9753,0.8818,0.7624,0.6582,0.6171,0.6147,0.6147,0.0,0.0,0.0,0.0,0.6264,0.8133,0.9242,1.0242,1.1903,1.3463,1.4797,1.5276,1.4505,1.3398,1.2763,1.1819,1.0929,1.0228,1.0114,1.0207,1.0571,1.0521,1.0501,1.0618,1.0624,1.0624,1.0624,1.0624,1.0624,1.0624,1.0294,0.9753,0.8875,0.8549,0.7605,0.5828,0.5706,0.5046,0.3566,0.3511,0.3837,0.4594,0.4703,0.5416,0.6804,0.6036,0.5706,0.5706,0.5003,0.5697,0.7659,0.9103,1.0159,1.0762,1.0364,0.9681,0.8717,0.694,0.5304,0.3724,0.2369,0.0774,-0.083,-0.155,-0.2498,-0.3511,0.0,0.0,0.0,0.0,0.0,0.0,0.0,0.0,0.0,0.0,0.9905,1.0021,1.031,1.0371,1.0602,1.1139,1.1647,1.1979,1.1979,0.0,0.0,1.2809,1.2471,1.2867,1.4197,1.3249,1.3105,1.3928,1.3254,1.3544,1.4689,1.5419,1.5485,1.5001,1.5572,1.4372,1.1833,1.0582,0.9534,0.8713,0.8558,0.8592,0.8718,0.8547,0.7959,0.7111,0.6451,0.6076,0.5936,0.5936,0.5936,0.0,0.0,0.0,0.5993,0.6458,0.7158,0.7919,0.8391,1.0524,1.3065,1.4902,1.4505,1.3398,1.2763,1.1819,1.0929,1.0228,1.0114,1.0207,1.0571,1.0347,1.0261,1.0521,1.0624,1.0624,1.0624,1.0624,1.0624,1.0624,1.0294,0.994,0.959,0.9243,0.8331,0.6603,0.648,0.5823,0.4405,0.4349,0.4673,0.532,0.5977,0.6686,0.7557,0.6799,0.648,0.6421,0.571,0.6176,0.7653,0.9061,1.012,1.0813,1.1316,1.078,0.9526,0.9254,0.7915,0.5993,0.5139,0.3177,0.0716,0.0,-0.1612,-0.34,0.0,0.0,0.0,0.0,0.0,0.0,0.0,0.0,0.0,0.0,0.0,1.0021,1.0347,1.0685,1.107,1.1483,1.227,1.2778,1.2887,1.2393,1.2303,1.279,1.2323,1.2449,1.3321,1.2378,1.2381,1.339,1.2236,1.3074,1.5751,1.5286,1.5156,1.5344,1.498,1.3512,1.1261,1.087,0.9812,0.8415,0.8863,0.9257,0.9465,0.8453,0.79,0.7506,0.6419,0.5881,0.5689,0.5856,0.58,0.567,0.567,0.0,0.0,0.0,0.6367,0.7449,0.952,1.1233,1.2773,1.4355,1.4323,1.3591,1.2402,1.1798,1.1258,1.0547,1.0234,1.0207,1.0571,1.0454,1.0408,1.0604,1.0624,1.0624,1.0624,1.0624,1.0624,1.0624,0.9848,0.9315,0.9191,0.8392,0.7432,0.622,0.6046,0.555,0.4574,0.4519,0.4787,0.5487,0.6204,0.6966,0.767,0.6966,0.6204,0.5445,0.5492,0.6023,0.7101,0.8508,0.9959,1.1366,1.1665,1.1639,1.1347,1.0183,0.9123,0.8092,0.6658,0.4776,0.2701,0.0718,-0.0887,-0.2332,0.0,0.0,0.0,0.0,0.0,0.0,0.0,0.0,0.0,0.0,0.0,1.0185,1.0578,0.0,0.0,0.0,1.2918,1.3401,1.3369,1.2908,1.2571,1.2411,1.2093,1.2077,1.2415,1.1703,1.1722,1.261,1.1698,1.2952,1.6178,1.5424,1.5449,1.6137,1.4969,1.3214,1.1137,1.1146,1.0105,0.8463,0.9292,0.9777,0.9897,0.9031,0.8733,0.8561,0.7014,0.6287,0.6033,0.5774,0.5576,0.5387,0.5387,0.5192,0.0,0.0,0.0,0.6698,0.9927,1.1033,1.1687,1.3493,1.3853,1.3485,1.2623,1.2074,1.1655,0.0,1.056,1.0294,1.0521,1.0557,1.0474,1.0611,1.0624,1.0624,1.0624,1.0624,1.0624,1.0624,0.9593,0.8871,0.8801,0.7736,0.6702,0.5906,0.5667,0.5286,0.4577,0.4539,0.4787,0.5487,0.6036,0.6691,0.7396,0.6691,0.5714,0.4519,0.5164,0.5873,0.6642,0.8053,0.9658,1.1316,1.1665,1.2101,1.2425,1.1065,1.0378,0.9977,0.83,0.6561,0.4624,0.2032,0.0165,-0.1496,0.0,0.0,0.0,0.0,0.0,0.0,0.0,0.0,0.0,0.0,0.0,1.0602,1.1185,1.1668,1.23,1.3142,1.3561,1.3561,1.3064,1.3169,1.3007,1.2417,1.2498,0.0,1.3312,1.2373,1.21,1.261,1.3088,1.4213,1.5837,1.6542,1.7297,1.7984,1.6353,1.4387,1.2189,1.0659,0.9491,0.8694,0.8817,0.8751,0.8757,1.0284,1.0739,1.0342,0.8623,0.7806,0.7344,0.5684,0.5127,0.5127,0.5127,0.4854,0.46,0.0,0.0,0.0,0.7127,0.7704,0.849,1.2293,1.2808,1.2672,1.3835,1.2931,1.1772,1.1772,1.1094,1.0604,1.0618,1.0327,1.0234,1.0577,1.0624,1.0624,1.0624,1.0624,1.0624,1.0624,0.9837,0.9144,0.8819,0.7974,0.7078,0.6048,0.5864,0.5473,0.4735,0.4541,0.4787,0.5487,0.5542,0.5923,0.6642,0.5923,0.5218,0.4519,0.5164,0.5873,0.6642,0.8053,0.9162,0.9961,1.1266,1.1814,1.1913,1.2501,1.2344,1.1598,1.0847,0.8844,0.6212,0.4638,0.1863,-0.1438,0.0,0.0,0.0,0.0,0.0,0.0,0.0,0.0,0.0,0.0,0.0,0.0,0.0,1.1979,1.2525,1.3244,1.3292,1.304,1.2462,1.2292,1.2317,1.2589,1.2306,1.245,1.3122,1.1745,1.1317,1.1956,1.088,1.194,1.4951,1.4452,1.5115,1.6622,1.5629,1.4337,1.2747,1.0395,0.9017,0.8469,0.8713,0.9338,1.0151,1.064,1.1348,1.1861,1.0131,0.8718,0.7598,0.6975,0.6146,0.5279,0.4895,0.4985,0.5117,0.4652,0.4712,0.5009,0.5433,0.687,0.8574,0.9905,1.1588,1.2664,1.1935,1.215,1.2573,1.2573,1.1538,1.0744,1.1288,1.0836,1.0434,1.0604,1.0401,1.0341,1.0598,1.0394,1.0347,1.0598,0.9326,0.8447,0.8292,0.689,0.5794,0.5428,0.524,0.4977,0.4691,0.4601,0.4625,0.4838,0.5273,0.5651,0.5873,0.5651,0.5164,0.4519,0.566,0.6367,0.6642,0.8084,0.889,0.9211,1.0115,1.0998,1.1778,1.207,1.2012,1.1621,1.0537,0.893,0.6876,0.3989,0.1538,-0.0773,0.0,0.0,0.0,0.0,0.0,0.0,0.0,0.0,1.0944,1.101,0.0,0.0,0.0,0.0,1.2839,1.3248,1.3137,1.2633,1.1689,1.1573,1.1633,1.1859,1.1974,1.2124,1.2289,1.1205,1.0656,1.0683,0.9563,1.0375,1.307,1.3088,1.3846,1.522,1.4419,1.3848,1.3345,1.0935,0.9792,0.9613,1.0417,1.0966,1.1383,1.2329,1.2874,1.2934,0.0,0.0,0.0,0.8682,0.8077,0.7252,0.5919,0.5278,0.4797,0.3574,0.3962,0.4708,0.4471,0.5972,0.7816,0.8701,1.028,1.1604,1.1855,1.2284,1.2811,1.3322,1.2151,1.117,1.171,1.1023,1.0448,1.0611,1.0307,1.0187,1.0381,1.0154,1.0047,1.0241,0.9074,0.8164,0.785,0.651,0.5499,0.5135,0.4948,0.0,0.4697,0.4596,0.457,0.4519,0.4948,0.5191,0.525,0.5195,0.4978,0.4594,0.569,0.6367,0.6642,0.7616,0.8209,0.8427,0.8666,0.9614,1.1073,1.1082,1.1065,1.0939,1.003,0.8691,0.6951,0.4257,0.1863,-0.0441,0.0,0.0,0.0,0.0,0.0,0.0,0.0,0.0,1.1024,1.1275,0.0,0.0,0.0,0.0,0.0,1.3333,1.3209,1.2423,1.0791,1.1071,1.0979,1.0226,1.1491,1.1815,1.09,1.0851,1.0218,0.8895,0.9475,0.9887,1.021,1.2637,1.3851,1.3921,1.2806,1.2931,1.3858,1.2197,1.1678,1.2143,1.3808,1.3443,1.2256,1.5472,0.0,0.0,1.2735,1.2142,0.0,1.0775,0.0,0.0,0.8114,0.5659,0.3496,0.1836,0.228,0.3461,0.0,0.0,0.0,0.8763,0.8879,0.9402,1.3697,0.0,1.2337,1.3865,1.2857,1.1774,1.1804,1.0901,1.0207,1.0551,1.0281,1.0094,1.01,0.9853,0.9673,0.9686,0.9191,0.8477,0.7556,0.6985,0.625,0.5202,0.5131,0.5006,0.4718,0.4636,0.4565,0.4473,0.4467,0.4541,0.4697,0.4604,0.4604,0.4691,0.5254,0.5932,0.6588,0.6588,0.6966,0.7616,0.6912,0.7753,0.9651,0.9644,0.9621,0.9621,0.957,0.8312,0.6474,0.561,0.2997,-0.055,0.0,0.0,0.0,0.0,0.0,1.1967,1.1688,1.1593,1.1571,0.0,0.0,0.0,1.2287,1.3837,1.4638,1.407,1.3777,1.2661,1.0416,0.9795,0.9627,0.984,1.0126,1.0313,1.0383,0.9969,0.9468,0.8907,0.8823,0.8954,0.9274,1.0213,1.0806,1.1035,1.0734,1.0772,1.0935,0.9266,0.9945,1.2148,1.2087,1.2963,0.0,0.0,0.0,0.0,0.0,1.6472,1.5199,0.0,1.3225,1.1113,0.0,0.4007,0.2185,0.2614,0.3006,0.3502,0.4436,0.0,0.0,0.0,0.0,0.0,0.9446,0.0,1.0413,1.2957,1.1835,1.0778,1.2131,1.1585,1.0766,1.0066,0.9679,0.9559,0.9773,0.9546,0.9446,0.9659,0.9023,0.8224,0.744,0.6715,0.599,0.0,0.5131,0.4775,0.4069,0.3301,0.3208,0.3817,0.3872,0.417,0.4853,0.5455,0.5389,0.4691,0.6006,0.6346,0.5814,0.6367,0.6696,0.6912,0.6696,0.6612,0.6732,0.7184,0.7717,0.8063,0.6992,0.6255,0.5474,0.3115,0.0988,-0.1107,0.0,0.0,1.2293,1.291,1.3129,1.3204,1.3128,1.2852,1.2687,0.0,0.0,0.0,1.3229,1.5326,1.6138,1.4881,1.4417,1.3162,1.0681,0.9697,0.9201,0.9163,0.9652,0.9858,0.9747,0.9702,0.9388,0.8774,0.83,0.8058,0.8075,0.8837,0.9208,0.9227,0.931,0.9564,0.978,0.7966,0.913,0.0,1.3556,0.0,0.0,1.7936,1.867,0.0,0.0,0.0,1.6658,1.7157,1.5019,0.0,0.0,0.5268,0.273,0.3172,0.4166,0.5124,0.5097,0.5529,0.6012,0.6159,0.0,0.0,0.0,0.0,0.0,0.0,1.2995,1.191,1.2857,1.2208,1.1188,1.0102,0.9785,0.9625,0.9529,0.9245,0.9125,0.9299,0.8726,0.8028,0.7211,0.6589,0.5911,0.5109,0.5159,0.4785,0.3846,0.2804,0.2436,0.2988,0.3384,0.3882,0.4439,0.5597,0.5696,0.4785,0.6045,0.6239,0.5487,0.532,0.5429,0.5642,0.5039,0.4535,0.4146,0.4187,0.4871,0.5703,0.4841,0.4146,0.3416,0.1712,-0.0055,-0.1828,0.0,0.0,1.2995,1.4148,1.4491,1.475,1.5145,1.4534,1.4167,0.0,1.3412,1.3306,1.5128,1.7128,1.7618,1.5868,1.5206,1.3854,1.1382,1.0288,0.9305,0.8353,0.9604,0.9876,0.8942,0.9684,0.9534,0.8486,0.7894,0.736,0.6921,0.8115,0.8445,0.8022,0.8211,0.8709,0.9352,0.7804,0.9136,1.2601,1.6204,1.7247,0.0,0.0,1.9624,1.821,1.8853,1.8262,1.7399,1.9022,1.6678,0.0,0.0,0.0,0.4934,0.3854,0.575,0.7834,0.6205,0.6085,0.6693,0.7737,0.7003,0.0,0.0,0.0,0.0,0.0,1.4453,1.3405,1.3186,1.2303,1.119,1.0128,1.0023,0.9814,0.9233,0.0,0.0,0.0,0.0,0.0,0.7094,0.6653,0.6084,0.5107,0.5061,0.4646,0.3589,0.2407,0.1828,0.1954,0.2857,0.3501,0.3798,0.5559,0.5917,0.4942,0.5801,0.591,0.5385,0.4051,0.3766,0.4255,0.2813,0.2143,0.2035,0.1341,0.1877,0.3016,0.2882,0.1995,0.0758,0.0618,-0.0665,-0.2668,1.285,1.2924,1.3411,1.4956,1.4873,1.5019,1.6274,1.5839,1.545,1.553,1.5291,1.6027,1.8382,1.8499,1.817,1.7704,1.6344,1.4519,1.2128,1.0267,0.8788,0.7798,0.8696,0.8786,0.7915,0.8724,0.8707,0.7793,0.7662,0.736,0.6908,0.7165,0.6932,0.6277,0.6326,0.644,0.6679,0.8085,1.0289,1.294,1.3946,0.0,1.9057,2.0603,2.1521,2.2035,2.2157,2.2012,2.172,2.1434,1.946,1.6245,0.0,0.0,0.0,0.5985,0.801,1.0689,0.8056,0.7909,0.8438,0.8163,0.8996,0.0,0.0,0.8,0.8976,0.0,0.9361,0.9281,1.0077,0.9875,0.9194,0.8079,0.8164,0.0,0.0,0.0,0.0,0.0,0.0,0.0,0.7632,0.711,0.651,0.5864,0.4207,0.283,0.1839,0.0254,-0.0317,0.0377,0.1263,0.2442,0.3914,0.6427,0.679,0.5087,0.6657,0.6536,0.5005,0.398,0.3618,0.3675,0.2653,0.187,0.133,0.1156,0.1198,0.1225,0.006,-0.0664,-0.1207,-0.2281,-0.2952,-0.3519,1.3187,1.3385,1.4174,1.6149,1.599,1.6229,1.8068,1.7466,1.6914,1.7274,1.7784,1.8345,1.8856,1.9178,1.8935,1.7954,1.6877,1.5114,1.2427,1.0851,0.9332,0.7812,0.8277,0.8544,0.8496,0.8544,0.8476,0.8352,0.7719,0.7237,0.6894,0.6731,0.7012,0.7608,0.6465,0.6587,0.7654,0.7906,0.9305,1.1601,1.4611,0.0,2.0509,2.1735,2.2571,2.3078,2.3078,2.3365,2.3509,2.2247,2.0321,0.0,1.4829,1.3068,1.1577,0.0,0.938,1.0885,0.8499,0.8324,0.8982,0.9466,0.9595,0.0,0.0,0.0,0.9052,1.029,0.9861,0.9442,0.9977,0.9556,0.8915,0.8253,0.853,0.0,0.0,0.0,0.0,0.0,0.0,0.0,0.7972,0.6956,0.6119,0.5616,0.3783,0.251,0.2049,-0.013,-0.1109,-0.0642,0.0648,0.1707,0.2667,0.5778,0.6565,0.5131,0.6442,0.6092,0.4238,0.3439,0.2826,0.2335,0.1476,0.0862,0.0555,0.0564,0.0,-0.0917,-0.1168,-0.1612,-0.2187,-0.3276,-0.3862,-0.4323,1.3446,1.3711,1.4677,1.6912,1.6906,1.7341,1.9517,1.8809,1.8283,1.9047,1.9876,2.0008,1.9113,1.989,1.9908,1.8411,1.7674,1.6083,1.3122,1.1893,1.0574,0.9032,0.8568,0.8845,0.9919,0.885,0.841,0.8666,0.7546,0.6886,0.6675,0.64,0.7118,0.8571,0.7372,0.7625,0.8896,0.8137,0.0,1.1267,0.0,1.8754,2.0189,2.1863,2.2426,2.2489,2.2975,2.3543,2.3843,2.23,2.0615,1.8999,1.8113,1.6393,0.0,0.0,0.0,1.1055,0.8907,0.8801,0.9527,1.0545,0.0,0.9667,0.0,0.0,0.0,0.0,0.0,0.0,0.0,0.0,0.0,0.0,0.0,0.0,0.0,0.0,0.0,0.0,0.0,0.0,0.8031,0.6577,0.5521,0.5101,0.3466,0.238,0.2193,-0.0198,-0.1593,-0.1558,0.0132,0.1198,0.1533,0.4982,0.6193,0.5176,0.6058,0.5475,0.3623,0.2875,0.2001,0.1127,0.0314,0.0,0.0,-0.0193,-0.1103,-0.2388,-0.1768,-0.2158,-0.3163,-0.3823,-0.4436,-0.5133,1.3532,1.3447,1.415,1.6247,1.6601,1.7302,1.9409,1.9169,1.9192,2.024,2.008,2.0406,2.1718,2.1522,2.1295,2.108,1.9926,1.8051,1.5393,1.3515,1.2623,1.2853,1.0269,0.9776,1.1842,0.9695,0.8093,0.7156,0.6525,0.6131,0.5934,0.5873,0.574,0.562,0.8286,0.8527,0.7124,0.0,1.2607,0.0,1.6233,1.6166,0.0,1.8989,2.0175,2.0439,2.2422,2.3138,2.3111,0.0,2.1484,2.0416,0.0,1.7197,1.7801,1.1184,0.0,0.0,0.0,0.0,0.0,0.0,1.1202,1.1715,0.0,0.0,0.8851,0.7075,0.0,0.0,0.0,0.0,0.0,0.0,0.0,0.0,0.0,0.0,0.0,0.0,0.0,0.0,0.0,0.5995,0.5181,0.5077,0.3027,0.1333,0.0328,-0.1531,-0.2541,-0.2533,-0.0797,0.0931,0.2542,0.5325,0.6256,0.5401,0.6237,0.5694,0.3911,0.3051,0.2189,0.1262,0.04,0.0,-0.0067,-0.0801,-0.1267,-0.1533,-0.2258,-0.3588,-0.5051,-0.497,-0.5315,-0.5938,1.3464,1.3735,1.4438,1.571,1.597,1.6734,1.8831,2.0155,2.0716,2.0194,2.0813,2.1405,2.1794,2.1298,2.0925,2.0925,0.0,1.8611,0.0,0.0,1.3596,1.2215,1.0554,1.0129,1.1121,0.9313,0.8055,0.7411,0.6534,0.616,0.6251,0.5621,0.5768,0.6638,0.8375,0.9892,1.1128,0.0,1.2089,0.0,0.0,0.0,0.0,1.9573,2.1732,2.1857,2.2739,2.3424,2.3722,0.0,2.2062,0.0,0.0,0.0,0.0,1.363,0.0,0.0,0.0,0.0,0.0,0.0,0.0,0.0,0.8253,0.0,0.7648,0.0,0.0,0.0,0.0,0.0,0.0,0.0,0.6493,0.0,0.0,0.0,0.0,0.0,0.0,0.0,0.0,0.0,0.0,0.0,0.2632,0.137,0.0795,-0.0936,-0.1876,-0.1876,-0.02,0.1131,0.1868,0.4602,0.5752,0.5428,0.5213,0.4472,0.3211,0.2277,0.1408,0.0538,0.0135,-0.0269,-0.0806,-0.114,-0.1941,-0.2943,-0.387,-0.4339,-0.4613,-0.5088,-0.5676,-0.6322,1.3396,1.3819,1.4405,1.5129,1.5454,1.6234,1.8039,1.9768,2.0534,1.9712,2.0652,2.1543,2.1895,2.1393,2.1145,2.1414,2.1212,1.9779,0.0,0.0,1.5209,1.4056,1.1717,0.0,1.1975,0.9688,0.8159,0.7561,0.6511,0.6215,0.6583,0.566,0.595,0.7348,0.8929,1.0945,1.3146,0.0,1.2571,1.325,1.4079,1.478,1.5856,2.0464,2.2539,2.3078,2.3078,2.3484,2.3865,2.3454,2.1968,0.0,2.1641,1.9643,1.6708,0.0,0.0,0.0,1.2021,0.0,0.0,0.0,0.0,0.0,0.0,0.0,0.0,0.0,0.0,0.0,0.0,0.0,0.6754,0.7186,0.0,0.6958,0.0,0.0,0.0,0.0,0.0,0.0,0.0,0.0,0.0,0.0,0.0,0.121,0.0929,-0.0736,-0.1541,-0.134,-0.0067,0.0799,0.1267,0.3542,0.4686,0.4622,0.3949,0.3145,0.2277,0.1608,0.0806,0.0,-0.0269,-0.0739,-0.134,-0.1809,-0.2811,-0.4082,-0.5262,-0.5328,-0.4875,-0.5745,-0.6544,-0.713,1.3396,1.3413,1.3692,1.4489,1.5177,1.5958,1.6995,1.7219,1.7678,1.8866,0.0,0.0,0.0,0.0,0.0,0.0,0.0,2.2217,2.0232,0.0,1.8105,2.0935,1.4703,1.2729,0.0,1.1549,0.8434,0.6934,0.6173,0.608,0.6587,0.6029,0.5949,0.6419,1.0407,1.1388,1.0265,1.363,1.5857,1.7136,1.7451,1.9625,2.2527,0.0,2.1255,2.3078,2.3078,0.0,0.0,2.1335,2.1025,0.0,0.0,0.0,0.0,0.0,0.0,0.0,0.0,0.0,0.0,0.9002,0.0,0.0,0.0,0.0,0.7656,0.0,0.0,0.0,0.0,0.9303,0.9179,0.8295,0.7832,0.0,0.0,0.0,0.0,0.0,0.0,0.0,0.0,0.0,0.0,0.0,0.0,0.0,0.0066,-0.1671,-0.2209,-0.134,-0.1267,-0.04,0.1273,0.2277,0.2811,0.2811,0.2744,0.2275,0.134,0.134,0.0806,-0.0067,-0.0873,-0.1273,-0.1407,-0.3211,-0.3949,-0.4148,-0.5928,-0.6654,-0.6719,-0.7572,-0.826,-0.8728,1.4141,1.4513,1.4532,1.3452,1.3823,1.4745,1.6158,1.78,0.0,0.0,0.0,0.0,0.0,2.2915,2.3163,0.0,0.0,2.2808,2.0686,1.941,0.0,0.0,0.0,1.4365,0.0,0.0,0.0,0.856,0.7418,0.703,0.7307,0.6275,0.6661,0.8273,1.02,1.1799,0.0,0.0,0.0,0.0,0.0,1.8338,2.0653,0.0,2.1989,2.3005,2.2506,2.2641,0.0,2.1883,2.0852,2.0037,1.9819,1.8635,1.7289,1.7431,1.6959,1.6077,0.0,0.0,1.4358,1.124,0.0,0.0,0.0,0.0,0.0,0.0,0.0,0.0,0.0,0.9526,0.946,0.8446,0.8152,0.7426,0.0,0.0,0.0,0.0,0.0,0.0,0.0,0.0,0.0,0.0,0.0,0.0,0.0,-0.1139,-0.1608,-0.134,-0.1268,-0.0733,0.0401,0.1335,0.207,0.2678,0.2075,0.1608,0.1273,0.0672,0.0269,-0.0067,-0.094,-0.1675,-0.2344,-0.348,-0.435,-0.502,-0.626,-0.7046,-0.7567,-0.7897,-0.8495,-0.9196,1.4802,1.5101,1.5064,1.3907,1.4296,1.5106,1.619,0.0,0.0,0.0,2.0614,0.0,2.2927,0.0,2.315,0.0,2.3803,2.2912,2.1079,2.0386,0.0,1.977,1.7652,0.0,0.0,0.0,0.0,0.0,0.8949,0.8249,0.817,0.717,0.7454,0.8886,0.9803,1.1559,1.3854,1.4574,1.5679,0.0,0.0,1.8386,0.0,0.0,2.1319,2.1729,0.0,2.1741,2.2113,2.1616,2.0703,1.9922,2.0414,1.9099,1.7542,1.8284,1.7728,1.6754,1.598,1.5946,0.0,1.2782,1.1874,0.0,0.7988,0.0,0.858,0.0,0.0,0.0,0.0,1.1195,1.0573,0.997,0.9277,0.794,0.0,0.4487,0.0,0.0,0.0,0.0,0.0,0.0,0.0,0.0,0.0,0.0,0.0,0.0,-0.1808,-0.1808,-0.207,-0.1667,-0.0468,0.0067,0.0802,0.1744,0.1141,0.0806,0.0806,-0.0067,-0.0471,-0.0538,-0.1743,-0.2609,-0.3211,-0.4148,-0.4821,-0.5491,-0.633,-0.7242,-0.8027,-0.8355,-0.9005,-0.9849,1.5357,1.5184,1.533,1.5719,1.6278,1.6747,0.0,0.0,1.8995,0.0,2.0363,2.133,2.2962,2.2661,2.2786,2.3866,2.3452,2.2686,2.1644,2.1029,0.0,0.0,1.986,1.9037,1.9364,0.0,0.0,0.0,0.0,0.9654,0.9138,0.8562,0.8247,0.8198,0.9368,1.0754,1.2297,1.4033,1.6016,1.8076,1.8921,1.9727,2.0331,1.9541,1.9232,1.9317,2.018,2.059,2.059,2.0526,2.0526,2.0526,2.0462,2.0462,2.0333,1.9497,1.9233,1.8754,1.6733,1.6223,1.5713,1.3564,1.3008,0.0,0.0,0.0,1.1459,0.0,0.0,0.0,0.0,0.0,1.2391,1.2506,1.0821,0.8595,0.5907,0.0,0.0,0.0,0.0,0.0,0.0,0.0,0.0,0.0,0.0,0.0,0.0,0.0,-0.2725,-0.2744,-0.3547,-0.3145,-0.1407,-0.134,-0.0873,-0.0067,-0.0067,-0.0067,-0.0135,-0.1006,-0.134,-0.1474,-0.3211,-0.4015,-0.4082,-0.5024,-0.5428,-0.5557,-0.6396,-0.7242,-0.8156,-0.9075,-0.9913,-1.0624,1.6071,1.636,1.6772,1.6884,1.5813,1.5717,0.0,0.0,0.0,0.0,2.1192,2.1757,2.3,2.2952,2.3037,2.3339,2.3165,0.0,0.0,0.0,0.0,2.2673,2.0671,1.9788,2.0318,1.7483,0.0,1.4132,0.0,1.0058,0.9667,0.8738,0.8019,0.7595,0.8875,1.05,1.2278,1.3711,1.5742,1.8008,1.8269,1.8071,1.7742,0.0,1.7921,1.7573,1.9103,2.0074,2.0526,1.9814,1.9628,1.9497,1.8854,1.8654,1.8586,1.8395,1.8337,1.819,1.7664,1.751,1.7148,1.5625,1.4766,1.3877,0.0,0.0,0.0,0.0,0.0,0.0,0.0,0.0,0.0,1.0222,0.8275,0.0,0.0,0.0,0.0,0.4949,0.0,0.0,0.0,0.0,0.0,0.0,0.0,0.0,0.0,0.0,0.0,-0.3668,-0.3882,-0.348,-0.2342,-0.1675,-0.1207,-0.0939,-0.0939,-0.1342,-0.2011,-0.221,-0.2344,-0.241,-0.3547,-0.4015,-0.4082,-0.5024,-0.5749,-0.6396,-0.6588,-0.7632,-0.9075,-0.9913,-1.0428,-1.0624,1.6802,1.7334,0.0,1.7963,0.0,0.0,1.8861,1.8533,0.0,2.0865,2.1343,0.0,2.2347,2.2849,2.3078,2.3078,2.3078,0.0,2.2447,0.0,0.0,2.241,2.1669,2.1418,2.1732,1.9623,0.0,1.6011,0.0,1.1414,1.0244,0.9152,0.8364,0.7886,0.9111,1.0347,1.1674,1.4008,1.5937,1.748,1.7861,1.7725,0.0,1.7822,1.7822,1.7693,1.863,1.921,1.9396,1.9069,1.8883,1.8654,1.8134,1.8008,1.8008,1.8008,1.8008,1.8008,1.8008,1.8008,1.7832,1.71,1.6553,1.5811,1.4326,1.4316,1.4502,0.0,1.4463,1.4986,0.0,0.0,0.0,0.0,0.0,0.0,0.0,0.0,0.0,0.0,0.0,0.0,0.0,0.0,0.0,0.0,0.0,0.0,0.0,0.0,0.0,-0.4602,-0.4232,-0.357,-0.2678,-0.1788,-0.1325,-0.1273,-0.1273,-0.1808,-0.2744,-0.3078,-0.328,-0.3345,-0.4217,-0.4619,-0.4686,-0.516,-0.5947,-0.6785,-0.7567,-0.842,-0.9402,-1.0301,-1.0624,-1.0624,1.7255,1.799,0.0,0.0,0.0,0.0,0.0,1.946,0.0,2.074,0.0,2.1707,2.1707,2.256,2.3078,2.3078,0.0,2.2723,2.1769,2.2598,2.2711,2.1744,2.2623,2.3078,2.3078,2.1983,2.0112,0.0,0.0,1.2831,1.0568,0.9491,0.8763,0.8358,0.9489,1.0443,0.0,1.47,1.6416,1.7051,1.7793,1.8086,1.8096,1.8154,1.8408,1.873,1.8779,1.8535,1.8223,1.8535,1.8389,1.8086,1.8027,1.8008,1.8008,1.8008,1.8008,1.8008,1.8008,1.8008,1.794,1.7872,1.794,1.7551,1.5901,1.5974,1.6211,1.583,1.5156,1.5484,1.8288,0.0,0.0,0.0,0.0,0.0,0.0,0.0,0.0,0.0,0.0,0.0,0.0,0.0,0.0,0.0,0.0,0.0,0.0,0.0,0.0,-0.5338,-0.4378,-0.3452,-0.2729,-0.1765,-0.1373,-0.1466,-0.1605,-0.2143,-0.3078,-0.3813,-0.4151,-0.4217,-0.5153,-0.5557,-0.5557,-0.569,-0.6272,-0.7177,-0.8812,-0.9466,-0.953,-1.0301,-1.0624,-1.0624,1.6494,1.799,0.0,0.0,0.0,1.9799,2.0345,2.0399,2.0778,2.1882,2.2498,2.2849,2.2849,2.2965,2.3078,2.3078,2.3078,0.0,0.0,0.0,0.0,2.2862,2.3025,2.3078,2.3078,2.1606,1.9911,0.0,0.0,1.2209,1.0018,0.8939,0.8045,0.7405,0.8811,1.1165,1.4145,1.5537,0.0,1.8311,1.8467,1.8455,1.8564,1.8926,1.9111,1.9219,1.957,1.9424,1.9014,1.873,1.8584,1.8467,1.8115,1.8008,1.8008,1.8008,1.8008,1.8008,1.8008,1.8008,1.7794,1.707,1.7432,1.7716,1.6631,1.7044,1.7646,1.7568,1.7432,1.7086,1.6217,0.0,0.0,0.0,0.0,0.0,0.0,0.0,0.0,0.0,0.0,0.0,0.0,0.0,0.0,0.0,0.0,0.0,0.0,0.0,0.0,0.0,-0.3796,0.0,0.0,0.0,-0.1713,-0.2455,-0.3177,-0.4015,-0.4954,-0.509,-0.516,-0.5223,-0.6071,-0.6461,-0.6527,-0.7246,-0.8032,-0.8941,-0.9977,-1.0364,-1.0364,-1.0561,-1.0624,-1.0624,1.8478,0.0,0.0,0.0,0.0,0.0,0.0,2.266,2.2899,2.1995,2.2611,2.2965,2.2736,2.3226,2.359,2.359,2.3314,2.3078,2.3078,2.3078,2.3078,2.3078,2.3078,2.3078,2.3078,2.2648,2.1016,1.8204,0.0,1.3647,1.0307,0.9215,0.8368,0.7821,1.0295,1.2514,0.0,0.0,0.0,1.8027,1.8457,1.8562,1.8682,1.9121,1.9424,1.9639,1.9844,1.9932,1.9883,1.9443,1.916,1.8896,1.8467,1.833,1.8291,1.8076,1.8008,1.8008,1.8008,1.8008,1.7872,1.7432,1.7647,1.7862,1.7432,1.7647,1.8008,1.8008,1.8008,1.7478,1.5634,1.448,0.0,0.0,0.0,0.0,0.0,0.0,0.0,0.0,0.0,0.0,0.0,0.0,0.0,0.0,0.0,0.0,0.0,0.0,0.0,0.0,0.0,0.0,0.0,0.0,-0.1772,-0.2689,-0.3125,-0.4082,-0.5428,-0.5428,-0.562,-0.6075,-0.6527,-0.6981,-0.7437,-0.7832,-0.8484,-0.9338,-0.9786,-1.0174,-1.0624,-1.0624,-1.0624,-1.0624,2.0526,2.094,0.0,0.0,2.2774,2.3615,2.3514,2.4895,2.5059,2.2523,2.2949,2.3326,2.2899,2.364,2.4167,2.4167,2.3653,2.3364,2.3428,2.3203,2.3188,2.3314,2.3314,2.3314,2.3314,2.3879,2.2498,0.0,0.0,0.0,1.1399,0.9818,0.9192,0.949,1.2373,0.0,0.0,0.0,1.8628,1.8633,1.9253,1.9525,1.9505,1.9813,2.0044,2.0341,2.0124,2.0273,2.0508,2.0166,1.9766,1.9346,1.8916,1.8769,1.8691,1.8271,1.8144,1.8125,1.8037,1.8008,1.794,1.7725,1.7862,1.794,1.7725,1.7862,1.8008,1.8008,1.8008,1.7419,1.5481,1.4854,0.0,0.0,0.0,0.0,0.0,0.0,0.0,0.0,0.0,0.0,0.0,0.0,0.0,0.0,0.0,0.0,0.0,0.0,0.0,0.0,0.0,-0.4273,-0.2606,0.0,-0.1962,-0.272,-0.2871,-0.3816,-0.5428,-0.5428,-0.5749,-0.6461,-0.6785,-0.7567,-0.8544,-0.8156,-0.8613,-0.953,-0.9402,-0.9849,-1.0624,-1.0624,-1.0624,-1.0624,2.0784,0.0,0.0,0.0,0.0,2.5209,2.4745,2.6063,2.649,2.4745,2.4594,2.4644,2.4594,2.4682,2.4745,2.4745,2.4243,2.413,2.4632,2.3703,2.3364,2.3891,2.3916,2.3916,2.3916,2.4456,2.3816,0.0,0.0,1.6174,1.3707,1.0573,1.0435,1.2902,0.0,0.0,0.0,2.0159,2.0967,2.2399,2.2488,2.2522,2.2435,2.1956,2.1782,2.1673,2.0874,2.0527,2.0557,2.0518,2.0215,1.9785,1.9355,1.9228,1.9141,1.8701,1.8504,1.8496,1.8115,1.8008,1.7794,1.6922,1.7354,1.7794,1.6922,1.7354,1.8008,1.8008,1.8008,1.7353,1.5243,1.6991,1.7711,0.0,0.0,0.0,0.0,0.0,1.463,1.5764,0.0,0.0,0.0,0.0,0.0,0.0,0.4317,0.0,0.0,0.0,0.0,-0.6061,0.0,-0.3756,-0.2256,-0.2442,-0.2637,-0.2704,-0.3504,-0.4417,-0.5428,-0.5428,-0.5428,-0.5624,-0.7181,-0.8801,-1.0231,-0.8672,-0.9,-1.0428,-0.9594,-0.9849,-1.0624,-1.0624,-1.0624,-1.0624,0.0,0.0,0.0,0.0,0.0,0.0,0.0,2.7356,2.7544,2.6879,2.6791,2.654,2.5875,2.5799,2.5661,2.5322,2.4795,2.4582,2.4808,2.4393,2.4255,2.4481,2.4494,2.4343,2.4004,2.4544,2.3665,0.0,0.0,0.0,1.4097,1.3065,1.39,1.6318,0.0,2.0145,2.1439,2.2356,2.2808,2.288,2.288,2.288,2.2925,2.2897,2.2925,2.2776,2.1811,2.1441,2.1375,2.0789,2.0449,2.0225,1.9795,1.9668,1.958,1.915,1.8848,1.8533,1.8428,1.8203,1.794,1.7501,1.7716,1.7862,1.7501,1.7725,1.8008,1.8008,1.8008,1.7744,1.6885,1.6874,1.7042,1.7206,0.0,0.0,0.0,0.0,0.0,0.0,0.0,0.0,0.0,0.0,0.0,0.0,0.0,0.0,0.0,0.0,0.0,-0.5152,0.0,-0.4581,-0.2232,-0.2525,-0.2729,-0.2697,-0.3595,-0.4483,-0.5428,-0.5428,-0.5686,-0.6268,-0.7437,-0.8415,-0.893,-0.7697,-0.7957,-0.9,-0.8678,-0.9069,-0.9849,-1.0428,-1.0624,-1.0624,2.6063,0.0,2.5963,0.0,2.6866,2.6728,2.7921,2.8109,2.8024,2.7705,2.7631,2.7431,2.6804,2.6553,2.6302,2.5887,2.536,2.5121,2.5297,2.5008,2.4895,2.5046,2.5046,0.0,2.4481,2.5021,2.4343,2.243,2.1117,0.0,1.6509,1.622,1.7287,0.0,2.1619,2.275,2.3188,2.4432,2.456,2.3945,2.3945,2.3945,2.3991,2.3982,2.3963,2.3818,2.2776,2.2403,2.2253,2.1298,2.1231,2.1324,2.0707,2.0542,2.0452,2.0022,1.9673,1.9332,1.8929,1.8516,1.8193,1.8193,1.8193,1.8193,1.8193,1.8291,1.835,1.8223,1.8096,1.8008,1.8008,1.7002,1.6631,1.8107,0.0,0.0,0.0,1.8585,0.0,0.0,1.7676,1.6367,1.6478,0.0,0.0,0.0,0.0,0.0,0.0,0.0,0.0,0.0,0.0,0.0,-0.1845,-0.2449,-0.2722,-0.2744,-0.3643,-0.452,-0.5428,-0.5428,-0.5881,-0.6719,-0.7051,-0.7507,-0.7897,-0.6789,-0.6985,-0.7962,-0.7702,-0.8291,-0.9402,-0.9983,-1.0238,-1.0238,2.7155,2.7256,2.7431,2.7996,2.8084,2.8084,2.8109,2.8109,2.7705,2.6752,2.6602,2.6783,2.7247,2.6791,2.6533,2.6521,2.5925,2.5824,2.6471,2.5423,2.5059,0.0,0.0,2.5586,2.5573,2.6138,2.6496,2.6458,0.0,0.0,2.2171,1.9999,2.015,2.2284,2.2862,2.4356,2.6414,2.644,2.6452,2.6452,2.6452,2.6452,2.6371,2.537,2.5004,2.4862,2.3818,2.3514,2.3294,2.2328,2.2627,2.3294,2.2317,2.1941,2.1933,2.1481,2.1345,2.1032,1.9677,1.8965,1.8562,1.8562,1.8562,1.8562,1.8562,1.8965,1.915,1.8721,1.8301,1.8008,1.8008,1.7988,1.7568,1.6351,0.0,0.0,0.0,1.6538,0.0,1.6472,1.333,1.2256,1.4957,0.0,0.0,0.0,0.0,0.0,0.0,0.0,0.0,-0.484,-0.4578,0.0,-0.0923,-0.2203,-0.2826,-0.2744,-0.3717,-0.4608,-0.5428,-0.5428,-0.5881,-0.6654,-0.5818,-0.6404,-0.7897,-0.6145,-0.647,-0.7897,-0.7046,-0.7762,-0.9274,-0.9338,-0.9338,-0.9466,2.8373,2.8398,2.8461,2.8637,2.8047,2.767,2.8047,2.8109,2.8088,2.8138,2.8175,2.8201,2.8349,2.6955,2.6184,0.0,2.6289,2.6332,0.0,2.6138,2.6013,2.6176,2.6189,2.6,2.5598,2.5774,2.5875,2.5875,0.0,0.0,0.0,2.3301,2.4155,2.6264,2.644,2.6703,2.7017,2.7017,2.7017,2.6979,2.6684,2.6747,2.6979,2.63,2.6025,2.5873,2.485,2.4492,2.4337,2.3368,2.2776,2.2553,2.2925,2.2999,2.2892,2.2083,2.1597,2.1115,1.9687,1.8965,1.8494,1.8281,1.8213,1.8213,1.8213,1.832,1.8379,1.8242,1.8105,1.8008,1.8008,1.8008,1.7658,1.6617,1.7312,0.0,1.5724,0.0,1.7501,1.7423,1.5996,1.566,0.0,1.3026,0.0,0.0,0.0,0.0,0.0,0.0,0.0,0.0,-0.3356,0.0,-0.0916,-0.2247,-0.2853,-0.2754,-0.4456,-0.5419,-0.5661,-0.5661,-0.5745,-0.5916,-0.5651,-0.5791,-0.621,-0.5624,-0.5752,-0.6276,-0.6593,-0.7046,-0.7567,-0.8221,-0.842,-0.8484,2.9252,2.9076,2.8925,2.8925,2.8185,2.7708,2.8059,2.8109,2.8063,2.8014,2.805,2.805,2.805,2.6892,0.0,2.7034,2.708,2.708,2.708,2.708,2.708,2.708,2.708,2.6904,2.6553,2.654,0.0,2.654,2.5511,2.5473,2.6364,2.6151,2.6791,2.8109,2.8109,2.7908,2.7595,2.7595,2.7595,2.7557,2.7218,2.7281,2.7557,2.7205,2.708,2.6997,2.6404,2.6056,2.5731,2.4676,2.4027,2.3649,2.3514,2.3745,2.3784,2.22,2.1576,2.1115,1.9687,1.8965,1.8574,1.8311,1.8242,1.8291,1.8447,1.8359,1.8242,1.8242,1.8115,1.8008,1.8008,1.8008,1.7794,1.7207,1.7285,1.7079,1.5869,0.0,1.6696,0.0,0.0,0.0,0.0,1.2635,1.0464,0.0,0.0,0.0,0.0,0.0,0.0,-0.2407,-0.2202,-0.1586,-0.0555,-0.2186,-0.2935,-0.2834,-0.4819,-0.58,-0.58,-0.58,-0.5752,-0.5671,-0.5671,-0.5613,-0.5528,-0.5528,-0.5528,-0.5593,-0.6128,-0.6527,-0.6933,-0.7476,-0.7626,-0.7631,2.9842,2.939,2.9001,2.9038,2.8586,2.8222,2.8222,2.8222,2.7903,2.6947,2.6784,2.6784,2.6784,2.6784,2.7184,2.8136,0.0,0.0,2.8109,2.8109,2.8109,2.8109,2.8109,2.8109,2.8109,2.8109,2.8122,2.816,2.821,2.8486,2.8976,2.8461,2.8222,2.8222,2.8222,2.8124,2.8086,2.8086,2.8086,2.7927,2.8036,2.8049,2.8086,2.8122,2.8109,2.8109,2.8109,2.7698,2.7105,2.6178,2.6056,2.5992,2.4082,2.4143,2.447,2.2183,2.1554,2.123,1.98,1.9085,1.8742,1.8643,1.8613,1.8701,1.9102,1.8887,1.8594,1.8594,1.8281,1.8008,1.8008,1.8008,1.794,1.7794,1.7139,1.6558,1.6349,1.5579,1.4583,1.3327,0.0,0.0,1.1279,0.9893,0.8809,0.0,0.0,0.0,0.0,0.0,-0.1259,-0.1305,-0.127,-0.0824,0.0,-0.1988,-0.2979,-0.2919,-0.4731,-0.5604,-0.561,-0.5686,-0.5679,-0.5597,-0.5745,-0.5738,-0.5728,-0.58,-0.58,-0.58,-0.58,-0.6301,-0.7007,-0.7007,-0.69,-0.6979,3.0331,0.0,2.9716,3.0143,2.9754,2.9402,2.9402,2.9402,2.9313,2.9058,2.9058,2.9058,2.9058,2.9058,2.9148,2.939,2.8599,2.8109,2.8109,2.8109,2.8109,2.8109,2.8109,2.8109,2.8109,2.8109,2.831,2.8737,2.9176,2.9465,2.9578,2.9453,2.9402,2.9402,2.9402,2.8657,2.7529,2.8337,2.777,2.6297,2.7569,2.7879,2.7569,2.7953,2.8109,2.8109,2.8109,2.7484,2.662,2.6384,2.5644,2.4534,2.3253,2.3295,2.3722,2.3161,2.2981,2.2725,2.1324,2.0586,2.0021,1.8852,1.8398,1.8184,1.8291,1.8232,1.8154,1.8154,1.8076,1.8008,1.8008,1.8008,1.751,1.6088,1.6289,1.5852,1.3658,1.3738,1.3905,1.3584,1.2781,1.2529,1.2994,1.1447,0.9788,0.0,0.0,0.0,0.0,0.0536,-0.062,-0.127,-0.0691,-0.0233,0.0,-0.1325,-0.2334,-0.3071,-0.3392,-0.362,-0.3759,-0.4604,-0.4485,-0.3661,-0.5229,-0.5466,-0.4643,-0.544,-0.58,-0.58,-0.58,-0.5943,-0.6086,-0.6086,-0.6061,-0.6104,3.0557,3.057,3.062,3.0922,3.0721,3.052,3.052,3.052,3.052,3.052,3.0319,3.0168,3.0168,2.9942,2.9624,2.9106,2.8897,2.8875,2.8875,2.8875,2.8875,2.8875,2.8875,2.8875,2.8875,2.8875,2.9026,2.9327,2.9641,2.9792,2.9792,2.9792,2.9792,2.9792,2.9792,2.9282,2.8419,2.8497,2.8161,2.7577,2.7924,2.8228,2.8472,2.8749,2.8875,2.88,2.8297,2.7581,2.6765,2.6279,2.5392,2.4359,2.3896,2.3492,2.3327,2.4283,2.3902,2.3017,2.2018,2.1289,2.0438,1.8952,1.832,1.8008,1.8008,1.8008,1.8008,1.8008,1.8008,1.8008,1.8008,1.8008,1.751,1.6079,1.5939,1.5226,1.3237,1.3025,1.3098,1.3098,1.2592,1.2144,1.1749,1.0708,0.9385,0.7557,0.5225,0.0,0.2669,0.0953,-0.0225,-0.0691,-0.0234,0.0,0.0,-0.1097,-0.2113,-0.3122,-0.3008,-0.3009,-0.3124,-0.3671,-0.3645,-0.3066,-0.4673,-0.5019,-0.4507,-0.556,-0.601,-0.601,-0.601,-0.601,-0.601,-0.601,-0.5966,-0.5915,3.0821,3.121,3.1537,3.1625,3.165,3.165,3.165,3.1574,3.1512,3.1512,3.106,3.0733,3.0733,3.0244,2.9489,2.8295,2.8986,2.9534,2.9534,2.9702,2.9792,2.9792,2.9792,2.9792,2.9792,2.9792,2.9792,2.9792,2.9792,2.9792,2.9792,2.9624,2.9534,2.9534,2.9365,2.9209,2.8961,2.8187,2.8187,2.87,2.8108,2.8359,2.904,2.9209,2.93,2.9209,2.8187,2.7481,2.6779,2.5822,2.5098,2.4701,2.4634,2.3913,2.3348,2.4855,2.4246,2.2981,2.2556,2.1474,2.0225,1.8952,1.832,1.8008,1.8008,1.8008,1.8008,1.8008,1.8008,1.8008,1.8008,1.8008,1.7658,1.6469,1.5687,1.4751,1.3607,1.2788,1.2305,1.2305,1.2305,1.1552,0.9669,0.9372,0.8542,0.6641,0.4528,0.3279,0.3124,0.1253,0.0157,0.0,0.0,0.0,0.0,-0.0941,-0.1801,-0.2656,-0.2656,-0.2656,-0.2656,-0.2812,-0.2812,-0.2734,-0.3904,-0.4375,-0.4297,-0.555,-0.6025,-0.6103,-0.6257,-0.6338,-0.6338,-0.6338,-0.6176,-0.6084,3.1788,3.2026,3.224,3.2729,3.2817,3.2817,3.2817,3.2403,3.2089,3.2089,3.1612,3.1273,3.1273,3.0796,3.0047,2.8925,2.8518,2.8347,2.8347,2.9287,2.9792,2.9792,2.9792,2.9792,2.9792,2.9792,2.9792,2.9792,2.9792,2.9792,2.9792,2.8767,2.8347,2.8347,2.7464,2.6472,2.5619,2.6378,2.5724,2.4307,2.6047,2.6295,2.5703,2.6637,2.6976,2.6976,2.6801,2.6086,2.5176,2.5009,2.4555,2.3949,2.314,2.3614,2.4315,2.3457,2.3536,2.3929,2.3425,2.1479,1.9387,1.875,1.832,1.8008,1.8008,1.8008,1.8008,1.8008,1.8008,1.8008,1.8008,1.8008,1.7369,1.5314,1.5103,1.4493,1.241,1.2241,1.2305,1.2305,1.2305,1.1848,1.0714,0.982,0.8846,0.7629,0.5613,0.4062,0.3124,0.1957,0.0941,0.0,0.0,0.0,0.0,-0.0157,-0.0314,-0.0471,-0.0471,-0.0471,-0.0549,-0.141,-0.1332,-0.0627,-0.25,-0.2891,-0.2193,-0.4142,-0.4921,-0.5002,-0.5944,-0.6338,-0.6338,-0.6338,-0.6244,-0.623,3.2051,3.2466,3.2767,3.3031,3.3081,3.3081,3.3081,3.2855,3.2679,3.2679,3.219,3.1838,3.1838,3.1348,3.0604,2.9475,2.8821,2.8268,2.7694,2.8435,2.9197,2.9792,2.9792,2.9792,2.9792,2.9792,2.9792,2.9792,2.9792,2.9456,2.8858,2.8347,2.7763,2.7209,2.6719,2.6224,2.5714,2.563,2.5305,2.4978,2.5389,2.563,2.5797,2.6307,2.6883,2.729,2.6719,2.6141,2.5724,2.5724,2.4746,2.3679,2.442,2.4178,2.3625,2.3867,2.3896,2.3657,2.2905,2.145,1.994,1.9177,1.8496,1.8008,1.8008,1.8008,1.8008,1.8008,1.8008,1.8008,1.8008,1.8008,1.732,1.5312,1.511,1.4489,1.2368,1.2182,1.2305,1.2305,1.2305,1.17,1.0121,0.9599,0.8694,0.7099,0.5541,0.4453,0.3982,0.2969,0.1957,0.0863,0.0314,0.0,0.0,0.0,0.0,0.0,0.0,0.0,0.0,-0.0549,-0.0471,-0.0079,-0.1644,-0.2035,-0.1724,-0.3203,-0.4217,-0.4766,-0.5237,-0.5786,-0.6338,-0.6338,-0.6338,-0.6338,3.2303,3.2767,3.3081,3.3081,3.3081,3.2982,3.2698,3.2698,3.2698,3.2698,3.2228,3.2052,3.2416,3.1913,3.115,3.0121,2.9451,2.8727,2.7973,2.8163,2.8479,2.9052,2.904,2.904,2.904,2.904,2.904,2.904,2.904,2.8621,2.7683,2.7429,2.686,2.6058,2.5808,2.5724,2.5641,2.4798,2.5041,2.5975,2.4882,2.5221,2.6483,2.6224,2.6789,2.7602,2.6461,2.6141,2.6058,2.5808,2.4563,2.3387,2.5147,2.4324,2.2899,2.4051,2.3709,2.2778,2.1918,2.1166,2.0422,1.9644,1.8789,1.8154,1.8154,1.8076,1.8008,1.8008,1.7862,1.7647,1.7647,1.7647,1.7055,1.5032,1.4998,1.4506,1.2449,1.2244,1.2305,1.2305,1.2305,1.1626,0.982,0.9448,0.8542,0.6795,0.5702,0.4999,0.4688,0.3904,0.2891,0.1646,0.0549,0.0,0.0,0.0,0.0,0.0,0.0,0.0,0.0,0.0,0.0,-0.0079,-0.0863,-0.1254,-0.1333,-0.2347,-0.3359,-0.4373,-0.4608,-0.5392,-0.6338,-0.6338,-0.6338,-0.6338,3.2905,3.3056,3.3081,3.3081,3.3081,3.2698,3.15,3.1311,3.1311,3.1311,3.1276,3.1716,3.2907,3.2503,3.172,3.0673,3.0012,2.9714,2.9629,2.9118,2.8187,2.6823,2.673,2.673,2.673,2.673,2.673,2.673,2.673,2.673,2.6554,2.5546,2.5041,2.4872,2.38,2.3387,2.3387,2.3222,2.3877,2.4787,2.3714,2.4553,2.6389,2.5294,2.563,2.6472,2.5294,2.4957,2.4787,2.3724,2.3222,2.3135,2.3309,2.3193,2.3008,2.2748,2.2093,2.1243,2.083,2.0367,1.9938,1.9863,1.9228,1.8594,1.8594,1.8291,1.8008,1.8008,1.7285,1.6706,1.6706,1.6706,1.6002,1.3696,1.4367,1.4391,1.2167,1.2129,1.2305,1.2305,1.2305,1.1848,1.0789,0.982,0.8841,0.7783,0.6714,0.5786,0.4766,0.4608,0.3673,0.1646,0.0549,0.0,0.0,0.0,0.0,0.0,0.0,0.0,0.0,0.0,0.0,0.0,-0.0079,-0.0157,-0.0236,-0.1254,-0.2268,-0.3279,-0.4295,-0.5392,-0.6338,-0.6338,-0.6338,-0.6338,3.2968,3.2155,3.1576,3.1892,3.1323,3.0687,3.0135,3.0045,3.0045,3.0045,3.0045,3.0226,3.0777,3.1233,3.1375,3.1025,3.0548,3.0348,3.0348,2.9145,2.8145,2.7476,2.6883,2.6483,2.6483,2.6483,2.6483,2.6483,2.6483,2.6141,2.5462,2.5041,2.4457,2.3714,2.3299,2.3135,2.3135,2.3887,2.4372,2.4787,2.4296,2.4713,2.5378,2.4957,2.5041,2.5462,2.5797,2.5378,2.4872,2.5136,2.4307,2.3222,2.3963,2.3637,2.3008,2.2324,2.1699,2.1133,2.0684,2.0244,1.9853,1.959,1.9072,1.8494,1.8301,1.8125,1.8008,1.8008,1.7285,1.6636,1.6636,1.614,1.5443,1.461,1.4339,1.3961,1.3097,1.2583,1.2305,1.2305,1.2305,1.1922,1.0932,0.9895,0.8917,0.7859,0.6872,0.6103,0.5709,0.5079,0.4375,0.3517,0.188,0.0706,0.0,0.0,0.0,0.0,0.0,0.0,0.0,0.0,0.0,0.0,0.0,0.0,0.0,-0.0471,-0.1254,-0.219,-0.2582,-0.383,-0.5315,-0.5315,-0.5709,-0.6338,3.3257,3.2241,3.1255,3.1252,3.0866,3.0135,2.9039,2.9131,2.9223,2.8855,2.8866,2.8947,2.9315,3.0135,3.0676,3.0676,3.036,3.0349,3.0787,2.9596,2.8482,2.761,2.6836,2.619,2.5625,2.5615,2.5793,2.5975,2.5641,2.5221,2.4787,2.4457,2.3887,2.3135,2.3135,2.3135,2.3135,2.3963,2.4457,2.4787,2.4372,2.4713,2.5294,2.4957,2.5041,2.5378,2.5797,2.5462,2.4872,2.5305,2.4392,2.3222,2.4049,2.3714,2.2998,2.2295,2.1875,2.1543,2.1103,2.0557,2.0019,1.959,1.916,1.873,1.8301,1.8105,1.8047,1.8184,1.737,1.6569,1.6457,1.5833,1.5113,1.4543,1.4114,1.3719,1.3331,1.2739,1.2305,1.2305,1.2305,1.1996,1.1316,1.034,0.9367,0.8313,0.7326,0.6644,0.6338,0.5628,0.5079,0.4688,0.3283,0.188,0.0549,0.0157,0.0,0.0,0.0,0.0,0.0,0.0,0.0,0.0,0.0,0.0,0.0,0.0,-0.0628,-0.1568,-0.1568,-0.2895,-0.4688,-0.4688,-0.5392,-0.6338,3.3909,3.3458,3.2698,3.1412,3.2239,3.1801,2.8132,2.8588,2.8947,2.7778,2.7589,2.8038,2.9223,2.9407,2.9407,2.9407,2.9407,2.9954,3.1134,3.0834,2.9334,2.6472,2.6351,2.5527,2.3889,2.3789,2.4175,2.4798,2.3724,2.3724,2.4798,2.3637,2.3135,2.3135,2.3135,2.3135,2.3135,2.3135,2.38,2.4702,2.3551,2.4478,2.6389,2.521,2.5462,2.6307,2.521,2.4787,2.4617,2.3464,2.3135,2.3135,2.3135,2.3135,2.3057,2.2637,2.251,2.2422,2.2002,2.124,2.0469,2.0029,1.96,1.918,1.874,1.832,1.8135,1.8484,1.7577,1.6528,1.6246,1.5856,1.4961,1.312,1.3575,1.3761,1.2486,1.2305,1.2305,1.2305,1.2305,1.2305,1.2305,1.1391,1.0415,0.9372,0.8389,0.7326,0.6338,0.6338,0.5786,0.4766,0.4688,0.3675,0.1646,0.0549,0.0,0.0,0.0,0.0,0.0,0.0,0.0,0.0,0.0,0.0,0.0,0.0,-0.0628,-0.1568,-0.1568,-0.2817,-0.4686,-0.4686,-0.5392,-0.6261,3.4474,3.2965,3.1797,3.1812,3.1113,3.0135,2.9039,2.9131,2.8947,2.7778,2.7589,2.74,2.6839,2.7579,2.8132,2.8132,2.8947,2.9954,3.1134,3.108,3.0649,2.9765,2.8298,2.7349,2.6856,2.6856,2.6955,2.7148,2.6389,2.6225,2.6554,2.503,2.4296,2.4296,2.3474,2.3135,2.3135,2.3963,2.4967,2.588,2.4713,2.5221,2.6389,2.521,2.4542,2.4135,2.4628,2.4296,2.3551,2.3222,2.3135,2.3135,2.3135,2.3135,2.3057,2.2637,2.251,2.2422,2.2002,2.1475,2.0928,2.0488,1.9824,1.9248,1.9121,1.8994,1.8945,1.9072,1.8244,1.7487,1.7424,1.6078,1.5025,1.4926,1.4128,1.3418,1.3316,1.2926,1.2532,1.2325,1.2305,1.2305,1.2305,1.1391,1.0415,0.9372,0.7706,0.6644,0.6338,0.6338,0.618,0.5864,0.5079,0.4375,0.3752,0.2735,0.18,0.1098,0.18,0.2189,0.2189,0.2189,0.18,0.1098,0.1098,0.0706,0.0,0.0,-0.0157,-0.0471,-0.0471,-0.1332,-0.2504,-0.2504,-0.3675,-0.5157,3.5052,3.3658,3.2442,3.2201,3.1577,3.074,2.9624,2.9772,2.9681,2.8495,2.8319,2.8038,2.721,2.7851,2.8319,2.8319,2.8947,2.9954,3.1134,3.1223,3.14,3.1952,3.0727,2.9584,2.8418,2.8418,2.8491,2.8729,2.7992,2.7844,2.8257,2.6129,2.524,2.5322,2.3787,2.332,2.3633,2.422,2.5081,2.6008,2.5327,2.5635,2.6389,2.521,2.4372,2.38,2.4039,2.3714,2.3135,2.3135,2.3135,2.3135,2.3135,2.3135,2.3086,2.2832,2.2764,2.2705,2.2451,2.1826,2.1211,2.1113,2.0303,1.9492,1.9326,1.9287,1.9336,1.9502,1.8953,1.8406,1.8343,1.7184,1.6077,1.5631,1.4714,1.3902,1.3547,1.3189,1.2859,1.2685,1.2552,1.2478,1.2478,1.1832,1.0789,0.9372,0.7783,0.6718,0.6338,0.6338,0.6338,0.6338,0.5709,0.5157,0.4688,0.4453,0.3673,0.219,0.2813,0.3124,0.3124,0.3124,0.2579,0.1568,0.1568,0.102,0.0,0.0,0.0,0.0,0.0,-0.0628,-0.1568,-0.1568,-0.2659,-0.4062,3.5617,3.5177,3.4264,3.2726,3.3211,3.299,3.0148,3.0554,3.0777,2.9463,2.9257,2.9223,2.9223,2.9223,2.9315,2.9407,2.9407,2.9954,3.1134,3.1223,3.1777,3.3068,3.3081,3.1845,2.9215,2.9203,2.9503,3.0085,2.8993,2.897,3.0001,2.7223,2.6192,2.6487,2.4449,2.394,2.4569,2.4136,2.4563,2.5413,2.5284,2.5701,2.6389,2.521,2.4872,2.4798,2.38,2.3299,2.3222,2.3135,2.3135,2.3135,2.3135,2.3135,2.3135,2.3135,2.3135,2.3135,2.3135,2.2266,2.1445,2.1846,2.0977,1.9922,1.9502,1.9404,1.9512,1.9893,1.9668,1.9331,1.9146,1.8737,1.7769,1.5849,1.5561,1.4983,1.3564,1.3385,1.3319,1.3213,1.2959,1.2869,1.2869,1.2443,1.1434,0.9478,0.8399,0.7326,0.6338,0.6338,0.6338,0.6338,0.6338,0.5864,0.4844,0.5786,0.5237,0.3279,0.3357,0.3357,0.3357,0.3357,0.2813,0.1723,0.1723,0.1097,0.0,0.0,0.0,0.0,0.0,-0.0628,-0.1489,-0.1489,-0.2113,-0.2968,3.6182,3.5742,3.5236,3.4823,3.4282,3.3439,3.2215,3.1565,3.0545,2.872,2.8179,2.7955,2.7955,2.7955,2.8402,2.9315,2.9407,2.9954,3.1134,3.1223,3.1777,3.3068,3.3081,3.2834,3.2167,3.2167,3.2204,3.235,3.1637,3.1415,3.1667,2.9737,2.8955,2.8963,2.7629,2.6603,2.5882,2.5415,2.5315,2.5295,2.4092,2.4732,2.6389,2.521,2.5378,2.6141,2.5808,2.5221,2.4296,2.3387,2.3135,2.3135,2.3135,2.3135,2.3135,2.3135,2.3135,2.3135,2.3135,2.2695,2.2256,2.2353,2.166,2.083,2.0391,2.0283,2.0312,2.041,2.0352,2.0265,2.0285,1.9446,1.8644,1.7934,1.7267,1.6277,1.4658,1.4719,1.4482,1.3312,1.3153,1.3113,1.3113,1.2125,1.0952,0.971,0.8476,0.7326,0.6338,0.6338,0.6338,0.6338,0.6338,0.6183,0.5944,0.618,0.5628,0.4373,0.5237,0.5628,0.5628,0.5628,0.4611,0.2812,0.2812,0.1721,0.0,0.0,0.0,0.0,0.0,-0.0157,-0.0314,-0.0314,-0.1019,-0.2035,3.6358,3.6132,3.5855,3.5592,3.5064,3.4404,3.3753,3.2491,3.1246,3.0206,2.9162,2.8495,2.8495,2.8947,2.9772,3.1057,3.0045,3.0135,3.1965,3.15,3.1777,3.3068,3.3081,3.3081,3.3081,3.3081,3.3081,3.3081,3.2767,3.2629,3.2604,3.0919,3.0274,3.039,2.885,2.7679,2.6904,2.7058,2.703,2.692,2.666,2.7053,2.7566,2.6389,2.5825,2.5641,2.5052,2.4467,2.3887,2.3299,2.3135,2.3135,2.3135,2.3135,2.3135,2.3135,2.3135,2.3135,2.3135,2.2832,2.251,2.251,2.2021,2.1426,2.0986,2.0723,2.0566,2.0566,2.0566,2.0566,2.0566,1.9678,1.8726,1.804,1.713,1.6075,1.4691,1.4636,1.4433,1.3729,1.3507,1.3307,1.3019,1.1905,1.075,0.9632,0.8449,0.7326,0.6338,0.6338,0.6338,0.6338,0.6338,0.6338,0.6338,0.6338,0.6025,0.5473,0.6025,0.6338,0.6338,0.6338,0.5395,0.3826,0.3357,0.2189,0.0706,0.0236,0.0,0.0,0.0,0.0,0.0,0.0,-0.0392,-0.1019,3.6358,3.6358,3.6219,3.5768,3.5604,3.5336,3.4765,3.3314,3.2106,3.1716,3.0271,2.9254,2.9161,3.0181,3.1323,3.2339,3.0777,3.0586,3.2612,3.1965,3.1965,3.3068,3.3081,3.3081,3.3081,3.3081,3.3081,3.3081,3.3081,3.3081,3.3068,3.1428,3.0906,3.1086,2.9175,2.8028,2.7652,2.8265,2.8488,2.8399,2.919,2.916,2.8585,2.7493,2.6312,2.5179,2.4191,2.361,2.3387,2.3135,2.3135,2.3135,2.3135,2.3135,2.3135,2.3135,2.3135,2.3135,2.3135,2.2881,2.2617,2.2617,2.2305,2.1894,2.1533,2.1055,2.0654,2.0576,2.0566,2.0566,2.0566,1.9844,1.8957,1.798,1.6919,1.5869,1.4824,1.4496,1.4334,1.4088,1.3868,1.3507,1.2953,1.2073,1.0999,0.9753,0.8784,0.7855,0.6872,0.6644,0.6567,0.6567,0.6416,0.6338,0.6338,0.6338,0.6338,0.6338,0.6338,0.6338,0.6338,0.6338,0.5709,0.4686,0.3748,0.2813,0.1802,0.0862,0.0549,0.0549,0.0314,0.0392,0.0471,0.0314,0.0157,-0.0157,3.6358,3.6358,3.6332,3.6257,3.5868,3.5295,3.4511,3.3528,3.2099,3.0294,2.9191,2.8455,2.8348,2.9107,2.9681,2.9863,3.0586,3.1134,3.1412,3.2339,3.2884,3.3081,3.3081,3.3081,3.3081,3.3081,3.3081,3.3081,3.3081,3.3081,3.3068,3.1704,3.1151,3.1122,2.9806,2.8653,2.7589,2.7704,2.7533,2.707,2.6155,2.6732,2.7914,2.6711,2.6668,2.7216,2.6733,2.5722,2.4457,2.3474,2.3135,2.3135,2.3135,2.3135,2.3135,2.3135,2.3135,2.3135,2.3135,2.3096,2.3057,2.3057,2.2744,2.2412,2.2353,2.1719,2.1035,2.0644,2.0566,2.0566,2.0566,2.0479,2.0323,2.0157,1.9274,1.8149,1.7017,1.6034,1.5137,1.425,1.4048,1.3895,1.3554,1.3134,1.2387,1.1004,1.0616,0.9959,0.8917,0.8089,0.7629,0.7629,0.6718,0.6338,0.6338,0.6338,0.6338,0.6338,0.6338,0.6338,0.6338,0.6338,0.5709,0.4686,0.453,0.3906,0.289,0.2734,0.2656,0.2578,0.1723,0.1879,0.2578,0.1723,0.0784,0.0,3.6358,3.6358,3.6358,3.6358,3.6157,3.5881,3.5534,3.4316,3.303,3.2082,3.0035,2.8652,2.8292,2.7766,2.7851,2.9315,2.9315,2.9498,3.0135,3.0687,3.1057,3.1057,3.1689,3.2052,3.2052,3.2711,3.3081,3.3081,3.3081,3.3081,3.3081,3.2513,3.2239,3.2239,3.1689,3.0777,2.9681,3.0328,2.9738,2.8272,2.8433,2.8058,2.7284,2.6763,2.6233,2.5782,2.5685,2.4968,2.4173,2.3664,2.334,2.3135,2.3135,2.3135,2.3135,2.3135,2.3135,2.3135,2.3135,2.3135,2.3135,2.3135,2.2998,2.2803,2.2568,2.2217,2.1758,2.1074,2.0742,2.0566,2.0566,2.0079,1.9687,1.9687,1.8301,1.7001,1.6519,1.5462,1.465,1.4166,1.4088,1.3968,1.3592,1.2885,1.2037,1.1289,1.041,0.9744,0.9296,0.8841,0.8618,0.8618,0.7629,0.7176,0.7176,0.6567,0.6338,0.6338,0.6338,0.6338,0.6338,0.6338,0.6025,0.555,0.4921,0.4453,0.3982,0.3357,0.3124,0.3046,0.2579,0.2735,0.2968,0.1957,0.1333,0.0784]}]]